<?xml version="1.0" encoding="UTF-8" standalone="no" ?>
<gpx xmlns="http://www.topografix.com/GPX/1/1" xmlns:xsi="http://www.w3.org/2001/XMLSchema-instance" xsi:schemaLocation="http://www.topografix.com/GPX/1/1 http://www.topografix.com/GPX/1/1/gpx.xsd" version="1.1" creator="VisuGPX - https://www.visugpx.com">
  <metadata>
    <name>Forcalqueiret_Carcès_Vallon Sourn</name>
  </metadata>
  <trk>
    <name><![CDATA[13610719-2_Forcalqueiret_Carcès_Vallon Sourn]]></name>
    <extensions>
      <line xmlns="http://www.topografix.com/GPX/gpx_style/0/2">
        <color>0000FF</color>
        <width>4</width>
      </line>
    </extensions>
    <trkseg>
      <trkpt lat="43.33678" lon="6.08038">
        <ele>299</ele>
        <time>2021-08-27T12:02:19Z</time>
      </trkpt>
      <trkpt lat="43.33662" lon="6.08028">
        <ele>299</ele>
        <time>2021-08-27T12:02:22Z</time>
      </trkpt>
      <trkpt lat="43.33637" lon="6.08029">
        <ele>300</ele>
        <time>2021-08-27T12:02:27Z</time>
      </trkpt>
      <trkpt lat="43.33615" lon="6.08035">
        <ele>301</ele>
        <time>2021-08-27T12:02:31Z</time>
      </trkpt>
      <trkpt lat="43.33599" lon="6.08035">
        <ele>301</ele>
        <time>2021-08-27T12:02:33Z</time>
      </trkpt>
      <trkpt lat="43.33618" lon="6.08049">
        <ele>301</ele>
        <time>2021-08-27T12:02:37Z</time>
      </trkpt>
      <trkpt lat="43.33659" lon="6.08051">
        <ele>301</ele>
        <time>2021-08-27T12:02:45Z</time>
      </trkpt>
      <trkpt lat="43.33667" lon="6.08058">
        <ele>301</ele>
        <time>2021-08-27T12:02:46Z</time>
      </trkpt>
      <trkpt lat="43.33706" lon="6.08117">
        <ele>300</ele>
        <time>2021-08-27T12:02:57Z</time>
      </trkpt>
      <trkpt lat="43.33876" lon="6.08325">
        <ele>298</ele>
        <time>2021-08-27T12:03:37Z</time>
      </trkpt>
      <trkpt lat="43.33928" lon="6.08407">
        <ele>302</ele>
        <time>2021-08-27T12:03:51Z</time>
      </trkpt>
      <trkpt lat="43.3394" lon="6.0842">
        <ele>302</ele>
        <time>2021-08-27T12:03:54Z</time>
      </trkpt>
      <trkpt lat="43.33949" lon="6.08428">
        <ele>301</ele>
        <time>2021-08-27T12:03:56Z</time>
      </trkpt>
      <trkpt lat="43.33951" lon="6.08446">
        <ele>302</ele>
        <time>2021-08-27T12:03:58Z</time>
      </trkpt>
      <trkpt lat="43.33976" lon="6.08491">
        <ele>303</ele>
        <time>2021-08-27T12:04:05Z</time>
      </trkpt>
      <trkpt lat="43.3405" lon="6.08613">
        <ele>302</ele>
        <time>2021-08-27T12:04:26Z</time>
      </trkpt>
      <trkpt lat="43.34076" lon="6.08661">
        <ele>301</ele>
        <time>2021-08-27T12:04:34Z</time>
      </trkpt>
      <trkpt lat="43.34107" lon="6.08726">
        <ele>299</ele>
        <time>2021-08-27T12:04:44Z</time>
      </trkpt>
      <trkpt lat="43.34112" lon="6.08751">
        <ele>298</ele>
        <time>2021-08-27T12:04:47Z</time>
      </trkpt>
      <trkpt lat="43.34115" lon="6.08782">
        <ele>297</ele>
        <time>2021-08-27T12:04:51Z</time>
      </trkpt>
      <trkpt lat="43.34119" lon="6.08795">
        <ele>296</ele>
        <time>2021-08-27T12:04:53Z</time>
      </trkpt>
      <trkpt lat="43.3413" lon="6.08818">
        <ele>295</ele>
        <time>2021-08-27T12:04:57Z</time>
      </trkpt>
      <trkpt lat="43.34126" lon="6.08849">
        <ele>295</ele>
        <time>2021-08-27T12:05:01Z</time>
      </trkpt>
      <trkpt lat="43.34119" lon="6.08862">
        <ele>295</ele>
        <time>2021-08-27T12:05:03Z</time>
      </trkpt>
      <trkpt lat="43.34117" lon="6.08871">
        <ele>295</ele>
        <time>2021-08-27T12:05:04Z</time>
      </trkpt>
      <trkpt lat="43.3412" lon="6.08887">
        <ele>295</ele>
        <time>2021-08-27T12:05:06Z</time>
      </trkpt>
      <trkpt lat="43.34127" lon="6.08901">
        <ele>295</ele>
        <time>2021-08-27T12:05:08Z</time>
      </trkpt>
      <trkpt lat="43.34129" lon="6.08916">
        <ele>295</ele>
        <time>2021-08-27T12:05:10Z</time>
      </trkpt>
      <trkpt lat="43.34127" lon="6.08939">
        <ele>295</ele>
        <time>2021-08-27T12:05:13Z</time>
      </trkpt>
      <trkpt lat="43.34123" lon="6.0895">
        <ele>295</ele>
        <time>2021-08-27T12:05:15Z</time>
      </trkpt>
      <trkpt lat="43.34121" lon="6.08964">
        <ele>296</ele>
        <time>2021-08-27T12:05:17Z</time>
      </trkpt>
      <trkpt lat="43.34123" lon="6.09066">
        <ele>297</ele>
        <time>2021-08-27T12:05:30Z</time>
      </trkpt>
      <trkpt lat="43.34127" lon="6.09103">
        <ele>298</ele>
        <time>2021-08-27T12:05:35Z</time>
      </trkpt>
      <trkpt lat="43.34177" lon="6.093">
        <ele>298</ele>
        <time>2021-08-27T12:06:02Z</time>
      </trkpt>
      <trkpt lat="43.34176" lon="6.09339">
        <ele>298</ele>
        <time>2021-08-27T12:06:07Z</time>
      </trkpt>
      <trkpt lat="43.34156" lon="6.09369">
        <ele>298</ele>
        <time>2021-08-27T12:06:12Z</time>
      </trkpt>
      <trkpt lat="43.3409" lon="6.09441">
        <ele>298</ele>
        <time>2021-08-27T12:06:27Z</time>
      </trkpt>
      <trkpt lat="43.34011" lon="6.09651">
        <ele>292</ele>
        <time>2021-08-27T12:06:58Z</time>
      </trkpt>
      <trkpt lat="43.33929" lon="6.09845">
        <ele>292</ele>
        <time>2021-08-27T12:07:27Z</time>
      </trkpt>
      <trkpt lat="43.33907" lon="6.09866">
        <ele>294</ele>
        <time>2021-08-27T12:07:31Z</time>
      </trkpt>
      <trkpt lat="43.33863" lon="6.09924">
        <ele>300</ele>
        <time>2021-08-27T12:07:42Z</time>
      </trkpt>
      <trkpt lat="43.33817" lon="6.10008">
        <ele>299</ele>
        <time>2021-08-27T12:07:56Z</time>
      </trkpt>
      <trkpt lat="43.33807" lon="6.10041">
        <ele>297</ele>
        <time>2021-08-27T12:08:01Z</time>
      </trkpt>
      <trkpt lat="43.33815" lon="6.10101">
        <ele>289</ele>
        <time>2021-08-27T12:08:08Z</time>
      </trkpt>
      <trkpt lat="43.33904" lon="6.10575">
        <ele>286</ele>
        <time>2021-08-27T12:09:12Z</time>
      </trkpt>
      <trkpt lat="43.33907" lon="6.10629">
        <ele>287</ele>
        <time>2021-08-27T12:09:19Z</time>
      </trkpt>
      <trkpt lat="43.33892" lon="6.10689">
        <ele>288</ele>
        <time>2021-08-27T12:09:27Z</time>
      </trkpt>
      <trkpt lat="43.33869" lon="6.10812">
        <ele>291</ele>
        <time>2021-08-27T12:09:43Z</time>
      </trkpt>
      <trkpt lat="43.33863" lon="6.10914">
        <ele>292</ele>
        <time>2021-08-27T12:09:57Z</time>
      </trkpt>
      <trkpt lat="43.33861" lon="6.11128">
        <ele>290</ele>
        <time>2021-08-27T12:10:24Z</time>
      </trkpt>
      <trkpt lat="43.33872" lon="6.11199">
        <ele>290</ele>
        <time>2021-08-27T12:10:34Z</time>
      </trkpt>
      <trkpt lat="43.33897" lon="6.11301">
        <ele>291</ele>
        <time>2021-08-27T12:10:48Z</time>
      </trkpt>
      <trkpt lat="43.339" lon="6.11341">
        <ele>292</ele>
        <time>2021-08-27T12:10:53Z</time>
      </trkpt>
      <trkpt lat="43.339" lon="6.11381">
        <ele>293</ele>
        <time>2021-08-27T12:10:58Z</time>
      </trkpt>
      <trkpt lat="43.33892" lon="6.1154">
        <ele>295</ele>
        <time>2021-08-27T12:11:19Z</time>
      </trkpt>
      <trkpt lat="43.33906" lon="6.11618">
        <ele>294</ele>
        <time>2021-08-27T12:11:29Z</time>
      </trkpt>
      <trkpt lat="43.33923" lon="6.1168">
        <ele>294</ele>
        <time>2021-08-27T12:11:38Z</time>
      </trkpt>
      <trkpt lat="43.33936" lon="6.11752">
        <ele>295</ele>
        <time>2021-08-27T12:11:47Z</time>
      </trkpt>
      <trkpt lat="43.33976" lon="6.12016">
        <ele>292</ele>
        <time>2021-08-27T12:12:22Z</time>
      </trkpt>
      <trkpt lat="43.33976" lon="6.12075">
        <ele>293</ele>
        <time>2021-08-27T12:12:30Z</time>
      </trkpt>
      <trkpt lat="43.33973" lon="6.12131">
        <ele>293</ele>
        <time>2021-08-27T12:12:37Z</time>
      </trkpt>
      <trkpt lat="43.33974" lon="6.12202">
        <ele>293</ele>
        <time>2021-08-27T12:12:46Z</time>
      </trkpt>
      <trkpt lat="43.33968" lon="6.12253">
        <ele>292</ele>
        <time>2021-08-27T12:12:53Z</time>
      </trkpt>
      <trkpt lat="43.33954" lon="6.12346">
        <ele>287</ele>
        <time>2021-08-27T12:13:05Z</time>
      </trkpt>
      <trkpt lat="43.33924" lon="6.12475">
        <ele>282</ele>
        <time>2021-08-27T12:13:23Z</time>
      </trkpt>
      <trkpt lat="43.3392" lon="6.12501">
        <ele>281</ele>
        <time>2021-08-27T12:13:26Z</time>
      </trkpt>
      <trkpt lat="43.3392" lon="6.12577">
        <ele>279</ele>
        <time>2021-08-27T12:13:36Z</time>
      </trkpt>
      <trkpt lat="43.33921" lon="6.12639">
        <ele>278</ele>
        <time>2021-08-27T12:13:44Z</time>
      </trkpt>
      <trkpt lat="43.33945" lon="6.13054">
        <ele>287</ele>
        <time>2021-08-27T12:14:38Z</time>
      </trkpt>
      <trkpt lat="43.33954" lon="6.13171">
        <ele>283</ele>
        <time>2021-08-27T12:14:53Z</time>
      </trkpt>
      <trkpt lat="43.33986" lon="6.13362">
        <ele>276</ele>
        <time>2021-08-27T12:15:19Z</time>
      </trkpt>
      <trkpt lat="43.33994" lon="6.13411">
        <ele>272</ele>
        <time>2021-08-27T12:15:25Z</time>
      </trkpt>
      <trkpt lat="43.33997" lon="6.13442">
        <ele>271</ele>
        <time>2021-08-27T12:15:29Z</time>
      </trkpt>
      <trkpt lat="43.33993" lon="6.13509">
        <ele>270</ele>
        <time>2021-08-27T12:15:38Z</time>
      </trkpt>
      <trkpt lat="43.33983" lon="6.13559">
        <ele>270</ele>
        <time>2021-08-27T12:15:44Z</time>
      </trkpt>
      <trkpt lat="43.33956" lon="6.13635">
        <ele>270</ele>
        <time>2021-08-27T12:15:55Z</time>
      </trkpt>
      <trkpt lat="43.33923" lon="6.137">
        <ele>269</ele>
        <time>2021-08-27T12:16:06Z</time>
      </trkpt>
      <trkpt lat="43.33914" lon="6.13723">
        <ele>268</ele>
        <time>2021-08-27T12:16:09Z</time>
      </trkpt>
      <trkpt lat="43.33907" lon="6.1375">
        <ele>267</ele>
        <time>2021-08-27T12:16:13Z</time>
      </trkpt>
      <trkpt lat="43.33911" lon="6.13809">
        <ele>267</ele>
        <time>2021-08-27T12:16:20Z</time>
      </trkpt>
      <trkpt lat="43.33923" lon="6.13919">
        <ele>268</ele>
        <time>2021-08-27T12:16:35Z</time>
      </trkpt>
      <trkpt lat="43.33932" lon="6.14021">
        <ele>269</ele>
        <time>2021-08-27T12:16:48Z</time>
      </trkpt>
      <trkpt lat="43.33933" lon="6.1406">
        <ele>268</ele>
        <time>2021-08-27T12:16:53Z</time>
      </trkpt>
      <trkpt lat="43.3392" lon="6.14182">
        <ele>266</ele>
        <time>2021-08-27T12:17:09Z</time>
      </trkpt>
      <trkpt lat="43.3392" lon="6.14283">
        <ele>266</ele>
        <time>2021-08-27T12:17:22Z</time>
      </trkpt>
      <trkpt lat="43.33922" lon="6.14328">
        <ele>266</ele>
        <time>2021-08-27T12:17:28Z</time>
      </trkpt>
      <trkpt lat="43.33941" lon="6.14497">
        <ele>266</ele>
        <time>2021-08-27T12:17:50Z</time>
      </trkpt>
      <trkpt lat="43.33962" lon="6.14549">
        <ele>265</ele>
        <time>2021-08-27T12:17:58Z</time>
      </trkpt>
      <trkpt lat="43.33964" lon="6.14571">
        <ele>265</ele>
        <time>2021-08-27T12:18:01Z</time>
      </trkpt>
      <trkpt lat="43.33964" lon="6.14612">
        <ele>264</ele>
        <time>2021-08-27T12:18:06Z</time>
      </trkpt>
      <trkpt lat="43.33986" lon="6.14721">
        <ele>266</ele>
        <time>2021-08-27T12:18:21Z</time>
      </trkpt>
      <trkpt lat="43.33996" lon="6.1476">
        <ele>267</ele>
        <time>2021-08-27T12:18:26Z</time>
      </trkpt>
      <trkpt lat="43.34023" lon="6.14832">
        <ele>267</ele>
        <time>2021-08-27T12:18:37Z</time>
      </trkpt>
      <trkpt lat="43.34031" lon="6.14859">
        <ele>267</ele>
        <time>2021-08-27T12:18:40Z</time>
      </trkpt>
      <trkpt lat="43.34035" lon="6.14884">
        <ele>266</ele>
        <time>2021-08-27T12:18:44Z</time>
      </trkpt>
      <trkpt lat="43.34034" lon="6.14907">
        <ele>266</ele>
        <time>2021-08-27T12:18:47Z</time>
      </trkpt>
      <trkpt lat="43.34008" lon="6.15089">
        <ele>265</ele>
        <time>2021-08-27T12:19:11Z</time>
      </trkpt>
      <trkpt lat="43.34001" lon="6.15148">
        <ele>266</ele>
        <time>2021-08-27T12:19:18Z</time>
      </trkpt>
      <trkpt lat="43.34002" lon="6.1518">
        <ele>266</ele>
        <time>2021-08-27T12:19:22Z</time>
      </trkpt>
      <trkpt lat="43.34016" lon="6.15379">
        <ele>270</ele>
        <time>2021-08-27T12:19:48Z</time>
      </trkpt>
      <trkpt lat="43.34016" lon="6.15459">
        <ele>273</ele>
        <time>2021-08-27T12:19:59Z</time>
      </trkpt>
      <trkpt lat="43.3401" lon="6.1555">
        <ele>272</ele>
        <time>2021-08-27T12:20:11Z</time>
      </trkpt>
      <trkpt lat="43.33996" lon="6.15689">
        <ele>265</ele>
        <time>2021-08-27T12:20:29Z</time>
      </trkpt>
      <trkpt lat="43.33989" lon="6.15736">
        <ele>265</ele>
        <time>2021-08-27T12:20:35Z</time>
      </trkpt>
      <trkpt lat="43.3398" lon="6.15764">
        <ele>265</ele>
        <time>2021-08-27T12:20:39Z</time>
      </trkpt>
      <trkpt lat="43.33971" lon="6.15781">
        <ele>265</ele>
        <time>2021-08-27T12:20:42Z</time>
      </trkpt>
      <trkpt lat="43.33919" lon="6.15873">
        <ele>263</ele>
        <time>2021-08-27T12:20:57Z</time>
      </trkpt>
      <trkpt lat="43.3391" lon="6.15903">
        <ele>264</ele>
        <time>2021-08-27T12:21:01Z</time>
      </trkpt>
      <trkpt lat="43.3389" lon="6.15991">
        <ele>265</ele>
        <time>2021-08-27T12:21:13Z</time>
      </trkpt>
      <trkpt lat="43.33872" lon="6.16085">
        <ele>264</ele>
        <time>2021-08-27T12:21:25Z</time>
      </trkpt>
      <trkpt lat="43.3387" lon="6.16138">
        <ele>263</ele>
        <time>2021-08-27T12:21:32Z</time>
      </trkpt>
      <trkpt lat="43.33884" lon="6.16262">
        <ele>265</ele>
        <time>2021-08-27T12:21:48Z</time>
      </trkpt>
      <trkpt lat="43.33889" lon="6.16288">
        <ele>264</ele>
        <time>2021-08-27T12:21:52Z</time>
      </trkpt>
      <trkpt lat="43.33896" lon="6.16314">
        <ele>263</ele>
        <time>2021-08-27T12:21:56Z</time>
      </trkpt>
      <trkpt lat="43.33946" lon="6.16448">
        <ele>261</ele>
        <time>2021-08-27T12:22:15Z</time>
      </trkpt>
      <trkpt lat="43.33954" lon="6.16466">
        <ele>261</ele>
        <time>2021-08-27T12:22:18Z</time>
      </trkpt>
      <trkpt lat="43.34011" lon="6.16559">
        <ele>258</ele>
        <time>2021-08-27T12:22:33Z</time>
      </trkpt>
      <trkpt lat="43.34038" lon="6.16602">
        <ele>257</ele>
        <time>2021-08-27T12:22:41Z</time>
      </trkpt>
      <trkpt lat="43.34435" lon="6.17158">
        <ele>251</ele>
        <time>2021-08-27T12:24:22Z</time>
      </trkpt>
      <trkpt lat="43.34451" lon="6.17185">
        <ele>250</ele>
        <time>2021-08-27T12:24:26Z</time>
      </trkpt>
      <trkpt lat="43.34467" lon="6.17219">
        <ele>250</ele>
        <time>2021-08-27T12:24:31Z</time>
      </trkpt>
      <trkpt lat="43.34479" lon="6.17263">
        <ele>249</ele>
        <time>2021-08-27T12:24:37Z</time>
      </trkpt>
      <trkpt lat="43.34475" lon="6.17278">
        <ele>249</ele>
        <time>2021-08-27T12:24:40Z</time>
      </trkpt>
      <trkpt lat="43.34476" lon="6.17288">
        <ele>249</ele>
        <time>2021-08-27T12:24:41Z</time>
      </trkpt>
      <trkpt lat="43.34479" lon="6.17297">
        <ele>249</ele>
        <time>2021-08-27T12:24:42Z</time>
      </trkpt>
      <trkpt lat="43.34486" lon="6.17305">
        <ele>249</ele>
        <time>2021-08-27T12:24:44Z</time>
      </trkpt>
      <trkpt lat="43.34488" lon="6.17319">
        <ele>249</ele>
        <time>2021-08-27T12:24:46Z</time>
      </trkpt>
      <trkpt lat="43.34489" lon="6.17421">
        <ele>247</ele>
        <time>2021-08-27T12:24:59Z</time>
      </trkpt>
      <trkpt lat="43.34493" lon="6.1745">
        <ele>247</ele>
        <time>2021-08-27T12:25:03Z</time>
      </trkpt>
      <trkpt lat="43.34528" lon="6.17575">
        <ele>248</ele>
        <time>2021-08-27T12:25:20Z</time>
      </trkpt>
      <trkpt lat="43.3455" lon="6.17675">
        <ele>247</ele>
        <time>2021-08-27T12:25:33Z</time>
      </trkpt>
      <trkpt lat="43.34595" lon="6.17894">
        <ele>247</ele>
        <time>2021-08-27T12:26:03Z</time>
      </trkpt>
      <trkpt lat="43.34607" lon="6.1794">
        <ele>247</ele>
        <time>2021-08-27T12:26:09Z</time>
      </trkpt>
      <trkpt lat="43.34619" lon="6.1797">
        <ele>247</ele>
        <time>2021-08-27T12:26:14Z</time>
      </trkpt>
      <trkpt lat="43.34636" lon="6.18005">
        <ele>247</ele>
        <time>2021-08-27T12:26:19Z</time>
      </trkpt>
      <trkpt lat="43.3466" lon="6.18041">
        <ele>247</ele>
        <time>2021-08-27T12:26:25Z</time>
      </trkpt>
      <trkpt lat="43.34687" lon="6.18067">
        <ele>247</ele>
        <time>2021-08-27T12:26:31Z</time>
      </trkpt>
      <trkpt lat="43.34774" lon="6.18135">
        <ele>247</ele>
        <time>2021-08-27T12:26:49Z</time>
      </trkpt>
      <trkpt lat="43.34813" lon="6.1817">
        <ele>247</ele>
        <time>2021-08-27T12:26:57Z</time>
      </trkpt>
      <trkpt lat="43.34812" lon="6.18176">
        <ele>247</ele>
        <time>2021-08-27T12:26:58Z</time>
      </trkpt>
      <trkpt lat="43.34813" lon="6.18183">
        <ele>247</ele>
        <time>2021-08-27T12:26:59Z</time>
      </trkpt>
      <trkpt lat="43.34815" lon="6.18189">
        <ele>247</ele>
        <time>2021-08-27T12:27:00Z</time>
      </trkpt>
      <trkpt lat="43.34819" lon="6.18193">
        <ele>247</ele>
        <time>2021-08-27T12:27:01Z</time>
      </trkpt>
      <trkpt lat="43.34825" lon="6.18194">
        <ele>247</ele>
        <time>2021-08-27T12:27:02Z</time>
      </trkpt>
      <trkpt lat="43.3483" lon="6.18192">
        <ele>247</ele>
        <time>2021-08-27T12:27:03Z</time>
      </trkpt>
      <trkpt lat="43.34834" lon="6.18188">
        <ele>247</ele>
        <time>2021-08-27T12:27:04Z</time>
      </trkpt>
      <trkpt lat="43.34843" lon="6.18193">
        <ele>246</ele>
        <time>2021-08-27T12:27:05Z</time>
      </trkpt>
      <trkpt lat="43.35046" lon="6.1836">
        <ele>248</ele>
        <time>2021-08-27T12:27:48Z</time>
      </trkpt>
      <trkpt lat="43.35102" lon="6.1841">
        <ele>249</ele>
        <time>2021-08-27T12:27:59Z</time>
      </trkpt>
      <trkpt lat="43.35259" lon="6.18518">
        <ele>252</ele>
        <time>2021-08-27T12:28:31Z</time>
      </trkpt>
      <trkpt lat="43.35293" lon="6.18545">
        <ele>254</ele>
        <time>2021-08-27T12:28:38Z</time>
      </trkpt>
      <trkpt lat="43.3532" lon="6.1857">
        <ele>254</ele>
        <time>2021-08-27T12:28:43Z</time>
      </trkpt>
      <trkpt lat="43.35338" lon="6.18593">
        <ele>253</ele>
        <time>2021-08-27T12:28:48Z</time>
      </trkpt>
      <trkpt lat="43.35343" lon="6.18601">
        <ele>253</ele>
        <time>2021-08-27T12:28:49Z</time>
      </trkpt>
      <trkpt lat="43.35359" lon="6.18632">
        <ele>253</ele>
        <time>2021-08-27T12:28:54Z</time>
      </trkpt>
      <trkpt lat="43.35406" lon="6.18767">
        <ele>248</ele>
        <time>2021-08-27T12:29:13Z</time>
      </trkpt>
      <trkpt lat="43.3543" lon="6.18829">
        <ele>247</ele>
        <time>2021-08-27T12:29:23Z</time>
      </trkpt>
      <trkpt lat="43.35602" lon="6.19201">
        <ele>242</ele>
        <time>2021-08-27T12:30:20Z</time>
      </trkpt>
      <trkpt lat="43.35627" lon="6.19246">
        <ele>241</ele>
        <time>2021-08-27T12:30:27Z</time>
      </trkpt>
      <trkpt lat="43.3566" lon="6.19287">
        <ele>240</ele>
        <time>2021-08-27T12:30:35Z</time>
      </trkpt>
      <trkpt lat="43.35745" lon="6.19367">
        <ele>242</ele>
        <time>2021-08-27T12:30:53Z</time>
      </trkpt>
      <trkpt lat="43.35761" lon="6.19392">
        <ele>244</ele>
        <time>2021-08-27T12:30:57Z</time>
      </trkpt>
      <trkpt lat="43.35823" lon="6.19513">
        <ele>248</ele>
        <time>2021-08-27T12:31:17Z</time>
      </trkpt>
      <trkpt lat="43.35858" lon="6.19592">
        <ele>248</ele>
        <time>2021-08-27T12:31:29Z</time>
      </trkpt>
      <trkpt lat="43.35868" lon="6.19624">
        <ele>248</ele>
        <time>2021-08-27T12:31:33Z</time>
      </trkpt>
      <trkpt lat="43.35876" lon="6.1966">
        <ele>247</ele>
        <time>2021-08-27T12:31:38Z</time>
      </trkpt>
      <trkpt lat="43.35877" lon="6.19697">
        <ele>245</ele>
        <time>2021-08-27T12:31:43Z</time>
      </trkpt>
      <trkpt lat="43.35877" lon="6.19766">
        <ele>243</ele>
        <time>2021-08-27T12:31:52Z</time>
      </trkpt>
      <trkpt lat="43.3588" lon="6.19806">
        <ele>242</ele>
        <time>2021-08-27T12:31:57Z</time>
      </trkpt>
      <trkpt lat="43.35892" lon="6.19852">
        <ele>241</ele>
        <time>2021-08-27T12:32:03Z</time>
      </trkpt>
      <trkpt lat="43.35907" lon="6.19882">
        <ele>241</ele>
        <time>2021-08-27T12:32:08Z</time>
      </trkpt>
      <trkpt lat="43.35934" lon="6.19915">
        <ele>242</ele>
        <time>2021-08-27T12:32:14Z</time>
      </trkpt>
      <trkpt lat="43.35945" lon="6.19924">
        <ele>242</ele>
        <time>2021-08-27T12:32:17Z</time>
      </trkpt>
      <trkpt lat="43.35975" lon="6.19941">
        <ele>243</ele>
        <time>2021-08-27T12:32:22Z</time>
      </trkpt>
      <trkpt lat="43.36017" lon="6.19957">
        <ele>247</ele>
        <time>2021-08-27T12:32:30Z</time>
      </trkpt>
      <trkpt lat="43.36033" lon="6.19965">
        <ele>249</ele>
        <time>2021-08-27T12:32:33Z</time>
      </trkpt>
      <trkpt lat="43.36053" lon="6.19981">
        <ele>250</ele>
        <time>2021-08-27T12:32:37Z</time>
      </trkpt>
      <trkpt lat="43.36074" lon="6.20003">
        <ele>251</ele>
        <time>2021-08-27T12:32:42Z</time>
      </trkpt>
      <trkpt lat="43.36092" lon="6.20024">
        <ele>253</ele>
        <time>2021-08-27T12:32:46Z</time>
      </trkpt>
      <trkpt lat="43.36161" lon="6.20111">
        <ele>258</ele>
        <time>2021-08-27T12:33:03Z</time>
      </trkpt>
      <trkpt lat="43.36175" lon="6.20133">
        <ele>260</ele>
        <time>2021-08-27T12:33:07Z</time>
      </trkpt>
      <trkpt lat="43.36186" lon="6.20156">
        <ele>261</ele>
        <time>2021-08-27T12:33:10Z</time>
      </trkpt>
      <trkpt lat="43.3621" lon="6.20234">
        <ele>261</ele>
        <time>2021-08-27T12:33:21Z</time>
      </trkpt>
      <trkpt lat="43.36223" lon="6.2026">
        <ele>261</ele>
        <time>2021-08-27T12:33:25Z</time>
      </trkpt>
      <trkpt lat="43.36237" lon="6.20282">
        <ele>262</ele>
        <time>2021-08-27T12:33:29Z</time>
      </trkpt>
      <trkpt lat="43.36251" lon="6.203">
        <ele>262</ele>
        <time>2021-08-27T12:33:32Z</time>
      </trkpt>
      <trkpt lat="43.3627" lon="6.20315">
        <ele>262</ele>
        <time>2021-08-27T12:33:36Z</time>
      </trkpt>
      <trkpt lat="43.36307" lon="6.20337">
        <ele>264</ele>
        <time>2021-08-27T12:33:43Z</time>
      </trkpt>
      <trkpt lat="43.3632" lon="6.2034">
        <ele>265</ele>
        <time>2021-08-27T12:33:46Z</time>
      </trkpt>
      <trkpt lat="43.36366" lon="6.20345">
        <ele>266</ele>
        <time>2021-08-27T12:33:54Z</time>
      </trkpt>
      <trkpt lat="43.36409" lon="6.2034">
        <ele>265</ele>
        <time>2021-08-27T12:34:02Z</time>
      </trkpt>
      <trkpt lat="43.36457" lon="6.20319">
        <ele>259</ele>
        <time>2021-08-27T12:34:11Z</time>
      </trkpt>
      <trkpt lat="43.36484" lon="6.20315">
        <ele>256</ele>
        <time>2021-08-27T12:34:16Z</time>
      </trkpt>
      <trkpt lat="43.36533" lon="6.20317">
        <ele>252</ele>
        <time>2021-08-27T12:34:24Z</time>
      </trkpt>
      <trkpt lat="43.36587" lon="6.20332">
        <ele>248</ele>
        <time>2021-08-27T12:34:34Z</time>
      </trkpt>
      <trkpt lat="43.36601" lon="6.20333">
        <ele>249</ele>
        <time>2021-08-27T12:34:37Z</time>
      </trkpt>
      <trkpt lat="43.3662" lon="6.20331">
        <ele>250</ele>
        <time>2021-08-27T12:34:40Z</time>
      </trkpt>
      <trkpt lat="43.3664" lon="6.20323">
        <ele>252</ele>
        <time>2021-08-27T12:34:44Z</time>
      </trkpt>
      <trkpt lat="43.36658" lon="6.20312">
        <ele>254</ele>
        <time>2021-08-27T12:34:47Z</time>
      </trkpt>
      <trkpt lat="43.36698" lon="6.20281">
        <ele>257</ele>
        <time>2021-08-27T12:34:55Z</time>
      </trkpt>
      <trkpt lat="43.36729" lon="6.20254">
        <ele>258</ele>
        <time>2021-08-27T12:35:02Z</time>
      </trkpt>
      <trkpt lat="43.36779" lon="6.20215">
        <ele>259</ele>
        <time>2021-08-27T12:35:12Z</time>
      </trkpt>
      <trkpt lat="43.36801" lon="6.20204">
        <ele>258</ele>
        <time>2021-08-27T12:35:16Z</time>
      </trkpt>
      <trkpt lat="43.36837" lon="6.20192">
        <ele>257</ele>
        <time>2021-08-27T12:35:23Z</time>
      </trkpt>
      <trkpt lat="43.36874" lon="6.20189">
        <ele>258</ele>
        <time>2021-08-27T12:35:29Z</time>
      </trkpt>
      <trkpt lat="43.36913" lon="6.20191">
        <ele>258</ele>
        <time>2021-08-27T12:35:36Z</time>
      </trkpt>
      <trkpt lat="43.37026" lon="6.20209">
        <ele>251</ele>
        <time>2021-08-27T12:35:57Z</time>
      </trkpt>
      <trkpt lat="43.3707" lon="6.20218">
        <ele>246</ele>
        <time>2021-08-27T12:36:05Z</time>
      </trkpt>
      <trkpt lat="43.37091" lon="6.20225">
        <ele>244</ele>
        <time>2021-08-27T12:36:08Z</time>
      </trkpt>
      <trkpt lat="43.37142" lon="6.20258">
        <ele>243</ele>
        <time>2021-08-27T12:36:18Z</time>
      </trkpt>
      <trkpt lat="43.37182" lon="6.20294">
        <ele>242</ele>
        <time>2021-08-27T12:36:27Z</time>
      </trkpt>
      <trkpt lat="43.37207" lon="6.20325">
        <ele>242</ele>
        <time>2021-08-27T12:36:33Z</time>
      </trkpt>
      <trkpt lat="43.37211" lon="6.20333">
        <ele>242</ele>
        <time>2021-08-27T12:36:34Z</time>
      </trkpt>
      <trkpt lat="43.37211" lon="6.2034">
        <ele>242</ele>
        <time>2021-08-27T12:36:35Z</time>
      </trkpt>
      <trkpt lat="43.37215" lon="6.2035">
        <ele>242</ele>
        <time>2021-08-27T12:36:37Z</time>
      </trkpt>
      <trkpt lat="43.37221" lon="6.20355">
        <ele>242</ele>
        <time>2021-08-27T12:36:38Z</time>
      </trkpt>
      <trkpt lat="43.3723" lon="6.20356">
        <ele>242</ele>
        <time>2021-08-27T12:36:39Z</time>
      </trkpt>
      <trkpt lat="43.37251" lon="6.20367">
        <ele>243</ele>
        <time>2021-08-27T12:36:43Z</time>
      </trkpt>
      <trkpt lat="43.37263" lon="6.20378">
        <ele>243</ele>
        <time>2021-08-27T12:36:46Z</time>
      </trkpt>
      <trkpt lat="43.37344" lon="6.20434">
        <ele>248</ele>
        <time>2021-08-27T12:37:02Z</time>
      </trkpt>
      <trkpt lat="43.37377" lon="6.20445">
        <ele>249</ele>
        <time>2021-08-27T12:37:08Z</time>
      </trkpt>
      <trkpt lat="43.37383" lon="6.20449">
        <ele>249</ele>
        <time>2021-08-27T12:37:09Z</time>
      </trkpt>
      <trkpt lat="43.37385" lon="6.20448">
        <ele>249</ele>
        <time>2021-08-27T12:37:10Z</time>
      </trkpt>
      <trkpt lat="43.37402" lon="6.20457">
        <ele>249</ele>
        <time>2021-08-27T12:37:13Z</time>
      </trkpt>
      <trkpt lat="43.37511" lon="6.20494">
        <ele>247</ele>
        <time>2021-08-27T12:37:33Z</time>
      </trkpt>
      <trkpt lat="43.37599" lon="6.20513">
        <ele>244</ele>
        <time>2021-08-27T12:37:49Z</time>
      </trkpt>
      <trkpt lat="43.37638" lon="6.20532">
        <ele>243</ele>
        <time>2021-08-27T12:37:56Z</time>
      </trkpt>
      <trkpt lat="43.37707" lon="6.20572">
        <ele>236</ele>
        <time>2021-08-27T12:38:09Z</time>
      </trkpt>
      <trkpt lat="43.37714" lon="6.20579">
        <ele>236</ele>
        <time>2021-08-27T12:38:11Z</time>
      </trkpt>
      <trkpt lat="43.37733" lon="6.20605">
        <ele>234</ele>
        <time>2021-08-27T12:38:16Z</time>
      </trkpt>
      <trkpt lat="43.37819" lon="6.20742">
        <ele>228</ele>
        <time>2021-08-27T12:38:39Z</time>
      </trkpt>
      <trkpt lat="43.37846" lon="6.20778">
        <ele>225</ele>
        <time>2021-08-27T12:38:46Z</time>
      </trkpt>
      <trkpt lat="43.37883" lon="6.20821">
        <ele>223</ele>
        <time>2021-08-27T12:38:54Z</time>
      </trkpt>
      <trkpt lat="43.37909" lon="6.20865">
        <ele>222</ele>
        <time>2021-08-27T12:39:02Z</time>
      </trkpt>
      <trkpt lat="43.37968" lon="6.20939">
        <ele>223</ele>
        <time>2021-08-27T12:39:16Z</time>
      </trkpt>
      <trkpt lat="43.37996" lon="6.2096">
        <ele>224</ele>
        <time>2021-08-27T12:39:22Z</time>
      </trkpt>
      <trkpt lat="43.38098" lon="6.20991">
        <ele>223</ele>
        <time>2021-08-27T12:39:40Z</time>
      </trkpt>
      <trkpt lat="43.38133" lon="6.21">
        <ele>223</ele>
        <time>2021-08-27T12:39:47Z</time>
      </trkpt>
      <trkpt lat="43.38153" lon="6.20999">
        <ele>223</ele>
        <time>2021-08-27T12:39:50Z</time>
      </trkpt>
      <trkpt lat="43.38171" lon="6.20993">
        <ele>223</ele>
        <time>2021-08-27T12:39:53Z</time>
      </trkpt>
      <trkpt lat="43.38209" lon="6.20972">
        <ele>222</ele>
        <time>2021-08-27T12:40:01Z</time>
      </trkpt>
      <trkpt lat="43.38247" lon="6.20955">
        <ele>222</ele>
        <time>2021-08-27T12:40:08Z</time>
      </trkpt>
      <trkpt lat="43.38263" lon="6.20954">
        <ele>223</ele>
        <time>2021-08-27T12:40:11Z</time>
      </trkpt>
      <trkpt lat="43.38275" lon="6.20957">
        <ele>223</ele>
        <time>2021-08-27T12:40:13Z</time>
      </trkpt>
      <trkpt lat="43.38284" lon="6.20963">
        <ele>223</ele>
        <time>2021-08-27T12:40:15Z</time>
      </trkpt>
      <trkpt lat="43.38331" lon="6.21025">
        <ele>221</ele>
        <time>2021-08-27T12:40:26Z</time>
      </trkpt>
      <trkpt lat="43.38399" lon="6.21122">
        <ele>222</ele>
        <time>2021-08-27T12:40:44Z</time>
      </trkpt>
      <trkpt lat="43.38494" lon="6.21291">
        <ele>226</ele>
        <time>2021-08-27T12:41:11Z</time>
      </trkpt>
      <trkpt lat="43.38501" lon="6.21301">
        <ele>225</ele>
        <time>2021-08-27T12:41:13Z</time>
      </trkpt>
      <trkpt lat="43.38531" lon="6.21329">
        <ele>225</ele>
        <time>2021-08-27T12:41:20Z</time>
      </trkpt>
      <trkpt lat="43.38545" lon="6.21332">
        <ele>225</ele>
        <time>2021-08-27T12:41:22Z</time>
      </trkpt>
      <trkpt lat="43.38559" lon="6.21332">
        <ele>225</ele>
        <time>2021-08-27T12:41:25Z</time>
      </trkpt>
      <trkpt lat="43.38619" lon="6.21315">
        <ele>229</ele>
        <time>2021-08-27T12:41:35Z</time>
      </trkpt>
      <trkpt lat="43.3865" lon="6.21311">
        <ele>229</ele>
        <time>2021-08-27T12:41:41Z</time>
      </trkpt>
      <trkpt lat="43.38679" lon="6.213">
        <ele>229</ele>
        <time>2021-08-27T12:41:46Z</time>
      </trkpt>
      <trkpt lat="43.38696" lon="6.21289">
        <ele>229</ele>
        <time>2021-08-27T12:41:50Z</time>
      </trkpt>
      <trkpt lat="43.38711" lon="6.21273">
        <ele>229</ele>
        <time>2021-08-27T12:41:53Z</time>
      </trkpt>
      <trkpt lat="43.38747" lon="6.21217">
        <ele>230</ele>
        <time>2021-08-27T12:42:03Z</time>
      </trkpt>
      <trkpt lat="43.38766" lon="6.21197">
        <ele>231</ele>
        <time>2021-08-27T12:42:07Z</time>
      </trkpt>
      <trkpt lat="43.38811" lon="6.21162">
        <ele>231</ele>
        <time>2021-08-27T12:42:16Z</time>
      </trkpt>
      <trkpt lat="43.38839" lon="6.21145">
        <ele>230</ele>
        <time>2021-08-27T12:42:22Z</time>
      </trkpt>
      <trkpt lat="43.38857" lon="6.21138">
        <ele>228</ele>
        <time>2021-08-27T12:42:25Z</time>
      </trkpt>
      <trkpt lat="43.38875" lon="6.21139">
        <ele>225</ele>
        <time>2021-08-27T12:42:28Z</time>
      </trkpt>
      <trkpt lat="43.38932" lon="6.21161">
        <ele>218</ele>
        <time>2021-08-27T12:42:39Z</time>
      </trkpt>
      <trkpt lat="43.3896" lon="6.21175">
        <ele>217</ele>
        <time>2021-08-27T12:42:44Z</time>
      </trkpt>
      <trkpt lat="43.38988" lon="6.21192">
        <ele>216</ele>
        <time>2021-08-27T12:42:49Z</time>
      </trkpt>
      <trkpt lat="43.38999" lon="6.21201">
        <ele>216</ele>
        <time>2021-08-27T12:42:52Z</time>
      </trkpt>
      <trkpt lat="43.39007" lon="6.21219">
        <ele>216</ele>
        <time>2021-08-27T12:42:54Z</time>
      </trkpt>
      <trkpt lat="43.39023" lon="6.21281">
        <ele>217</ele>
        <time>2021-08-27T12:43:03Z</time>
      </trkpt>
      <trkpt lat="43.39029" lon="6.21295">
        <ele>217</ele>
        <time>2021-08-27T12:43:05Z</time>
      </trkpt>
      <trkpt lat="43.39048" lon="6.21314">
        <ele>217</ele>
        <time>2021-08-27T12:43:09Z</time>
      </trkpt>
      <trkpt lat="43.39067" lon="6.21327">
        <ele>218</ele>
        <time>2021-08-27T12:43:13Z</time>
      </trkpt>
      <trkpt lat="43.39096" lon="6.21342">
        <ele>217</ele>
        <time>2021-08-27T12:43:18Z</time>
      </trkpt>
      <trkpt lat="43.39178" lon="6.21363">
        <ele>214</ele>
        <time>2021-08-27T12:43:33Z</time>
      </trkpt>
      <trkpt lat="43.39187" lon="6.21368">
        <ele>213</ele>
        <time>2021-08-27T12:43:35Z</time>
      </trkpt>
      <trkpt lat="43.39236" lon="6.21413">
        <ele>212</ele>
        <time>2021-08-27T12:43:46Z</time>
      </trkpt>
      <trkpt lat="43.39259" lon="6.21427">
        <ele>212</ele>
        <time>2021-08-27T12:43:50Z</time>
      </trkpt>
      <trkpt lat="43.39352" lon="6.21456">
        <ele>212</ele>
        <time>2021-08-27T12:44:07Z</time>
      </trkpt>
      <trkpt lat="43.39402" lon="6.21485">
        <ele>213</ele>
        <time>2021-08-27T12:44:17Z</time>
      </trkpt>
      <trkpt lat="43.39418" lon="6.21488">
        <ele>214</ele>
        <time>2021-08-27T12:44:20Z</time>
      </trkpt>
      <trkpt lat="43.39609" lon="6.21477">
        <ele>216</ele>
        <time>2021-08-27T12:44:54Z</time>
      </trkpt>
      <trkpt lat="43.39706" lon="6.21495">
        <ele>218</ele>
        <time>2021-08-27T12:45:11Z</time>
      </trkpt>
      <trkpt lat="43.39823" lon="6.2156">
        <ele>211</ele>
        <time>2021-08-27T12:45:33Z</time>
      </trkpt>
      <trkpt lat="43.39842" lon="6.21565">
        <ele>210</ele>
        <time>2021-08-27T12:45:37Z</time>
      </trkpt>
      <trkpt lat="43.3997" lon="6.21558">
        <ele>206</ele>
        <time>2021-08-27T12:46:00Z</time>
      </trkpt>
      <trkpt lat="43.39993" lon="6.21554">
        <ele>205</ele>
        <time>2021-08-27T12:46:04Z</time>
      </trkpt>
      <trkpt lat="43.40059" lon="6.21525">
        <ele>204</ele>
        <time>2021-08-27T12:46:16Z</time>
      </trkpt>
      <trkpt lat="43.40088" lon="6.21518">
        <ele>204</ele>
        <time>2021-08-27T12:46:21Z</time>
      </trkpt>
      <trkpt lat="43.40121" lon="6.2152">
        <ele>205</ele>
        <time>2021-08-27T12:46:27Z</time>
      </trkpt>
      <trkpt lat="43.40151" lon="6.21532">
        <ele>206</ele>
        <time>2021-08-27T12:46:33Z</time>
      </trkpt>
      <trkpt lat="43.40201" lon="6.21558">
        <ele>207</ele>
        <time>2021-08-27T12:46:42Z</time>
      </trkpt>
      <trkpt lat="43.40236" lon="6.21576">
        <ele>206</ele>
        <time>2021-08-27T12:46:49Z</time>
      </trkpt>
      <trkpt lat="43.40246" lon="6.2158">
        <ele>206</ele>
        <time>2021-08-27T12:46:51Z</time>
      </trkpt>
      <trkpt lat="43.40263" lon="6.2158">
        <ele>206</ele>
        <time>2021-08-27T12:46:54Z</time>
      </trkpt>
      <trkpt lat="43.4035" lon="6.21546">
        <ele>209</ele>
        <time>2021-08-27T12:47:10Z</time>
      </trkpt>
      <trkpt lat="43.40382" lon="6.21547">
        <ele>209</ele>
        <time>2021-08-27T12:47:16Z</time>
      </trkpt>
      <trkpt lat="43.40527" lon="6.21618">
        <ele>205</ele>
        <time>2021-08-27T12:47:43Z</time>
      </trkpt>
      <trkpt lat="43.40695" lon="6.21662">
        <ele>202</ele>
        <time>2021-08-27T12:48:13Z</time>
      </trkpt>
      <trkpt lat="43.40739" lon="6.21691">
        <ele>201</ele>
        <time>2021-08-27T12:48:22Z</time>
      </trkpt>
      <trkpt lat="43.40843" lon="6.2172">
        <ele>207</ele>
        <time>2021-08-27T12:48:41Z</time>
      </trkpt>
      <trkpt lat="43.40956" lon="6.21784">
        <ele>207</ele>
        <time>2021-08-27T12:49:03Z</time>
      </trkpt>
      <trkpt lat="43.41012" lon="6.21793">
        <ele>206</ele>
        <time>2021-08-27T12:49:13Z</time>
      </trkpt>
      <trkpt lat="43.41023" lon="6.21799">
        <ele>208</ele>
        <time>2021-08-27T12:49:15Z</time>
      </trkpt>
      <trkpt lat="43.41035" lon="6.21811">
        <ele>209</ele>
        <time>2021-08-27T12:49:17Z</time>
      </trkpt>
      <trkpt lat="43.41062" lon="6.21875">
        <ele>209</ele>
        <time>2021-08-27T12:49:27Z</time>
      </trkpt>
      <trkpt lat="43.41083" lon="6.21906">
        <ele>206</ele>
        <time>2021-08-27T12:49:33Z</time>
      </trkpt>
      <trkpt lat="43.41154" lon="6.21971">
        <ele>209</ele>
        <time>2021-08-27T12:49:48Z</time>
      </trkpt>
      <trkpt lat="43.41178" lon="6.22001">
        <ele>208</ele>
        <time>2021-08-27T12:49:53Z</time>
      </trkpt>
      <trkpt lat="43.41322" lon="6.22199">
        <ele>209</ele>
        <time>2021-08-27T12:50:30Z</time>
      </trkpt>
      <trkpt lat="43.41329" lon="6.22206">
        <ele>209</ele>
        <time>2021-08-27T12:50:31Z</time>
      </trkpt>
      <trkpt lat="43.41341" lon="6.22212">
        <ele>208</ele>
        <time>2021-08-27T12:50:33Z</time>
      </trkpt>
      <trkpt lat="43.41352" lon="6.22215">
        <ele>208</ele>
        <time>2021-08-27T12:50:35Z</time>
      </trkpt>
      <trkpt lat="43.41388" lon="6.22208">
        <ele>208</ele>
        <time>2021-08-27T12:50:42Z</time>
      </trkpt>
      <trkpt lat="43.41403" lon="6.222">
        <ele>208</ele>
        <time>2021-08-27T12:50:45Z</time>
      </trkpt>
      <trkpt lat="43.41437" lon="6.22169">
        <ele>211</ele>
        <time>2021-08-27T12:50:52Z</time>
      </trkpt>
      <trkpt lat="43.41451" lon="6.22161">
        <ele>212</ele>
        <time>2021-08-27T12:50:55Z</time>
      </trkpt>
      <trkpt lat="43.4149" lon="6.22151">
        <ele>212</ele>
        <time>2021-08-27T12:51:02Z</time>
      </trkpt>
      <trkpt lat="43.41509" lon="6.22157">
        <ele>211</ele>
        <time>2021-08-27T12:51:05Z</time>
      </trkpt>
      <trkpt lat="43.41537" lon="6.22173">
        <ele>210</ele>
        <time>2021-08-27T12:51:11Z</time>
      </trkpt>
      <trkpt lat="43.41607" lon="6.2225">
        <ele>202</ele>
        <time>2021-08-27T12:51:27Z</time>
      </trkpt>
      <trkpt lat="43.41621" lon="6.2226">
        <ele>202</ele>
        <time>2021-08-27T12:51:29Z</time>
      </trkpt>
      <trkpt lat="43.41637" lon="6.22263">
        <ele>201</ele>
        <time>2021-08-27T12:51:32Z</time>
      </trkpt>
      <trkpt lat="43.41657" lon="6.22255">
        <ele>202</ele>
        <time>2021-08-27T12:51:36Z</time>
      </trkpt>
      <trkpt lat="43.41744" lon="6.22168">
        <ele>206</ele>
        <time>2021-08-27T12:51:55Z</time>
      </trkpt>
      <trkpt lat="43.41893" lon="6.2209">
        <ele>209</ele>
        <time>2021-08-27T12:52:24Z</time>
      </trkpt>
      <trkpt lat="43.41931" lon="6.2208">
        <ele>208</ele>
        <time>2021-08-27T12:52:30Z</time>
      </trkpt>
      <trkpt lat="43.42014" lon="6.22079">
        <ele>205</ele>
        <time>2021-08-27T12:52:45Z</time>
      </trkpt>
      <trkpt lat="43.4211" lon="6.22088">
        <ele>203</ele>
        <time>2021-08-27T12:53:02Z</time>
      </trkpt>
      <trkpt lat="43.42179" lon="6.2209">
        <ele>206</ele>
        <time>2021-08-27T12:53:15Z</time>
      </trkpt>
      <trkpt lat="43.42269" lon="6.22104">
        <ele>207</ele>
        <time>2021-08-27T12:53:31Z</time>
      </trkpt>
      <trkpt lat="43.42412" lon="6.22116">
        <ele>207</ele>
        <time>2021-08-27T12:53:56Z</time>
      </trkpt>
      <trkpt lat="43.42426" lon="6.22109">
        <ele>207</ele>
        <time>2021-08-27T12:53:59Z</time>
      </trkpt>
      <trkpt lat="43.42458" lon="6.22087">
        <ele>208</ele>
        <time>2021-08-27T12:54:05Z</time>
      </trkpt>
      <trkpt lat="43.42518" lon="6.22088">
        <ele>206</ele>
        <time>2021-08-27T12:54:16Z</time>
      </trkpt>
      <trkpt lat="43.42578" lon="6.22081">
        <ele>208</ele>
        <time>2021-08-27T12:54:27Z</time>
      </trkpt>
      <trkpt lat="43.42591" lon="6.22083">
        <ele>208</ele>
        <time>2021-08-27T12:54:29Z</time>
      </trkpt>
      <trkpt lat="43.426" lon="6.22086">
        <ele>207</ele>
        <time>2021-08-27T12:54:31Z</time>
      </trkpt>
      <trkpt lat="43.42654" lon="6.22118">
        <ele>204</ele>
        <time>2021-08-27T12:54:41Z</time>
      </trkpt>
      <trkpt lat="43.4269" lon="6.22104">
        <ele>203</ele>
        <time>2021-08-27T12:54:48Z</time>
      </trkpt>
      <trkpt lat="43.42701" lon="6.22103">
        <ele>203</ele>
        <time>2021-08-27T12:54:50Z</time>
      </trkpt>
      <trkpt lat="43.42726" lon="6.22106">
        <ele>203</ele>
        <time>2021-08-27T12:54:54Z</time>
      </trkpt>
      <trkpt lat="43.42757" lon="6.22113">
        <ele>203</ele>
        <time>2021-08-27T12:55:00Z</time>
      </trkpt>
      <trkpt lat="43.42766" lon="6.22119">
        <ele>203</ele>
        <time>2021-08-27T12:55:01Z</time>
      </trkpt>
      <trkpt lat="43.42775" lon="6.22129">
        <ele>203</ele>
        <time>2021-08-27T12:55:04Z</time>
      </trkpt>
      <trkpt lat="43.42814" lon="6.22228">
        <ele>200</ele>
        <time>2021-08-27T12:55:18Z</time>
      </trkpt>
      <trkpt lat="43.42858" lon="6.22328">
        <ele>201</ele>
        <time>2021-08-27T12:55:33Z</time>
      </trkpt>
      <trkpt lat="43.42861" lon="6.22331">
        <ele>201</ele>
        <time>2021-08-27T12:55:34Z</time>
      </trkpt>
      <trkpt lat="43.42887" lon="6.22357">
        <ele>201</ele>
        <time>2021-08-27T12:55:40Z</time>
      </trkpt>
      <trkpt lat="43.42914" lon="6.22374">
        <ele>201</ele>
        <time>2021-08-27T12:55:45Z</time>
      </trkpt>
      <trkpt lat="43.42952" lon="6.22378">
        <ele>200</ele>
        <time>2021-08-27T12:55:52Z</time>
      </trkpt>
      <trkpt lat="43.43" lon="6.22368">
        <ele>202</ele>
        <time>2021-08-27T12:56:00Z</time>
      </trkpt>
      <trkpt lat="43.43026" lon="6.22365">
        <ele>205</ele>
        <time>2021-08-27T12:56:05Z</time>
      </trkpt>
      <trkpt lat="43.43044" lon="6.22369">
        <ele>206</ele>
        <time>2021-08-27T12:56:08Z</time>
      </trkpt>
      <trkpt lat="43.43061" lon="6.22376">
        <ele>206</ele>
        <time>2021-08-27T12:56:11Z</time>
      </trkpt>
      <trkpt lat="43.43079" lon="6.22391">
        <ele>205</ele>
        <time>2021-08-27T12:56:15Z</time>
      </trkpt>
      <trkpt lat="43.43178" lon="6.22512">
        <ele>201</ele>
        <time>2021-08-27T12:56:39Z</time>
      </trkpt>
      <trkpt lat="43.43203" lon="6.2255">
        <ele>202</ele>
        <time>2021-08-27T12:56:45Z</time>
      </trkpt>
      <trkpt lat="43.43221" lon="6.22582">
        <ele>201</ele>
        <time>2021-08-27T12:56:50Z</time>
      </trkpt>
      <trkpt lat="43.43256" lon="6.22657">
        <ele>199</ele>
        <time>2021-08-27T12:57:02Z</time>
      </trkpt>
      <trkpt lat="43.4329" lon="6.22726">
        <ele>199</ele>
        <time>2021-08-27T12:57:13Z</time>
      </trkpt>
      <trkpt lat="43.43297" lon="6.22735">
        <ele>199</ele>
        <time>2021-08-27T12:57:14Z</time>
      </trkpt>
      <trkpt lat="43.43304" lon="6.22742">
        <ele>199</ele>
        <time>2021-08-27T12:57:16Z</time>
      </trkpt>
      <trkpt lat="43.43313" lon="6.22745">
        <ele>199</ele>
        <time>2021-08-27T12:57:18Z</time>
      </trkpt>
      <trkpt lat="43.43321" lon="6.22746">
        <ele>199</ele>
        <time>2021-08-27T12:57:19Z</time>
      </trkpt>
      <trkpt lat="43.43329" lon="6.22744">
        <ele>199</ele>
        <time>2021-08-27T12:57:21Z</time>
      </trkpt>
      <trkpt lat="43.4337" lon="6.22718">
        <ele>203</ele>
        <time>2021-08-27T12:57:29Z</time>
      </trkpt>
      <trkpt lat="43.4339" lon="6.2271">
        <ele>205</ele>
        <time>2021-08-27T12:57:32Z</time>
      </trkpt>
      <trkpt lat="43.434" lon="6.22708">
        <ele>205</ele>
        <time>2021-08-27T12:57:34Z</time>
      </trkpt>
      <trkpt lat="43.4342" lon="6.2271">
        <ele>205</ele>
        <time>2021-08-27T12:57:38Z</time>
      </trkpt>
      <trkpt lat="43.43481" lon="6.22727">
        <ele>205</ele>
        <time>2021-08-27T12:57:49Z</time>
      </trkpt>
      <trkpt lat="43.43533" lon="6.22752">
        <ele>204</ele>
        <time>2021-08-27T12:57:58Z</time>
      </trkpt>
      <trkpt lat="43.43552" lon="6.22765">
        <ele>204</ele>
        <time>2021-08-27T12:58:02Z</time>
      </trkpt>
      <trkpt lat="43.43588" lon="6.22797">
        <ele>202</ele>
        <time>2021-08-27T12:58:10Z</time>
      </trkpt>
      <trkpt lat="43.43597" lon="6.22806">
        <ele>200</ele>
        <time>2021-08-27T12:58:12Z</time>
      </trkpt>
      <trkpt lat="43.4362" lon="6.22842">
        <ele>195</ele>
        <time>2021-08-27T12:58:18Z</time>
      </trkpt>
      <trkpt lat="43.43629" lon="6.22851">
        <ele>195</ele>
        <time>2021-08-27T12:58:20Z</time>
      </trkpt>
      <trkpt lat="43.43638" lon="6.22858">
        <ele>195</ele>
        <time>2021-08-27T12:58:22Z</time>
      </trkpt>
      <trkpt lat="43.43658" lon="6.22864">
        <ele>195</ele>
        <time>2021-08-27T12:58:26Z</time>
      </trkpt>
      <trkpt lat="43.4368" lon="6.22862">
        <ele>196</ele>
        <time>2021-08-27T12:58:29Z</time>
      </trkpt>
      <trkpt lat="43.43761" lon="6.22843">
        <ele>196</ele>
        <time>2021-08-27T12:58:44Z</time>
      </trkpt>
      <trkpt lat="43.43773" lon="6.22839">
        <ele>196</ele>
        <time>2021-08-27T12:58:46Z</time>
      </trkpt>
      <trkpt lat="43.43807" lon="6.22817">
        <ele>198</ele>
        <time>2021-08-27T12:58:53Z</time>
      </trkpt>
      <trkpt lat="43.43826" lon="6.22798">
        <ele>200</ele>
        <time>2021-08-27T12:58:57Z</time>
      </trkpt>
      <trkpt lat="43.43862" lon="6.22754">
        <ele>203</ele>
        <time>2021-08-27T12:59:06Z</time>
      </trkpt>
      <trkpt lat="43.4389" lon="6.22732">
        <ele>206</ele>
        <time>2021-08-27T12:59:11Z</time>
      </trkpt>
      <trkpt lat="43.44014" lon="6.22663">
        <ele>201</ele>
        <time>2021-08-27T12:59:35Z</time>
      </trkpt>
      <trkpt lat="43.4405" lon="6.22645">
        <ele>201</ele>
        <time>2021-08-27T12:59:42Z</time>
      </trkpt>
      <trkpt lat="43.441" lon="6.22624">
        <ele>199</ele>
        <time>2021-08-27T12:59:51Z</time>
      </trkpt>
      <trkpt lat="43.44107" lon="6.22614">
        <ele>200</ele>
        <time>2021-08-27T12:59:53Z</time>
      </trkpt>
      <trkpt lat="43.44111" lon="6.22603">
        <ele>201</ele>
        <time>2021-08-27T12:59:55Z</time>
      </trkpt>
      <trkpt lat="43.44113" lon="6.22591">
        <ele>201</ele>
        <time>2021-08-27T12:59:56Z</time>
      </trkpt>
      <trkpt lat="43.44114" lon="6.22578">
        <ele>202</ele>
        <time>2021-08-27T12:59:58Z</time>
      </trkpt>
      <trkpt lat="43.44112" lon="6.22551">
        <ele>205</ele>
        <time>2021-08-27T13:00:02Z</time>
      </trkpt>
      <trkpt lat="43.44102" lon="6.22466">
        <ele>211</ele>
        <time>2021-08-27T13:00:13Z</time>
      </trkpt>
      <trkpt lat="43.44102" lon="6.22433">
        <ele>210</ele>
        <time>2021-08-27T13:00:17Z</time>
      </trkpt>
      <trkpt lat="43.44107" lon="6.22376">
        <ele>213</ele>
        <time>2021-08-27T13:00:24Z</time>
      </trkpt>
      <trkpt lat="43.44109" lon="6.22364">
        <ele>214</ele>
        <time>2021-08-27T13:00:26Z</time>
      </trkpt>
      <trkpt lat="43.44118" lon="6.2234">
        <ele>214</ele>
        <time>2021-08-27T13:00:29Z</time>
      </trkpt>
      <trkpt lat="43.44129" lon="6.22323">
        <ele>215</ele>
        <time>2021-08-27T13:00:32Z</time>
      </trkpt>
      <trkpt lat="43.44145" lon="6.2231">
        <ele>214</ele>
        <time>2021-08-27T13:00:36Z</time>
      </trkpt>
      <trkpt lat="43.44163" lon="6.22303">
        <ele>211</ele>
        <time>2021-08-27T13:00:39Z</time>
      </trkpt>
      <trkpt lat="43.44174" lon="6.22302">
        <ele>209</ele>
        <time>2021-08-27T13:00:41Z</time>
      </trkpt>
      <trkpt lat="43.4421" lon="6.22313">
        <ele>202</ele>
        <time>2021-08-27T13:00:47Z</time>
      </trkpt>
      <trkpt lat="43.44237" lon="6.2231">
        <ele>199</ele>
        <time>2021-08-27T13:00:52Z</time>
      </trkpt>
      <trkpt lat="43.44265" lon="6.22302">
        <ele>198</ele>
        <time>2021-08-27T13:00:57Z</time>
      </trkpt>
      <trkpt lat="43.44289" lon="6.22286">
        <ele>197</ele>
        <time>2021-08-27T13:01:02Z</time>
      </trkpt>
      <trkpt lat="43.44311" lon="6.2225">
        <ele>196</ele>
        <time>2021-08-27T13:01:08Z</time>
      </trkpt>
      <trkpt lat="43.44319" lon="6.22244">
        <ele>195</ele>
        <time>2021-08-27T13:01:10Z</time>
      </trkpt>
      <trkpt lat="43.44325" lon="6.22243">
        <ele>194</ele>
        <time>2021-08-27T13:01:11Z</time>
      </trkpt>
      <trkpt lat="43.44368" lon="6.22237">
        <ele>196</ele>
        <time>2021-08-27T13:01:19Z</time>
      </trkpt>
      <trkpt lat="43.44396" lon="6.22236">
        <ele>199</ele>
        <time>2021-08-27T13:01:24Z</time>
      </trkpt>
      <trkpt lat="43.44391" lon="6.22183">
        <ele>201</ele>
        <time>2021-08-27T13:01:30Z</time>
      </trkpt>
      <trkpt lat="43.4439" lon="6.22149">
        <ele>201</ele>
        <time>2021-08-27T13:01:35Z</time>
      </trkpt>
      <trkpt lat="43.44393" lon="6.22119">
        <ele>202</ele>
        <time>2021-08-27T13:01:39Z</time>
      </trkpt>
      <trkpt lat="43.44401" lon="6.2208">
        <ele>202</ele>
        <time>2021-08-27T13:01:44Z</time>
      </trkpt>
      <trkpt lat="43.44405" lon="6.22045">
        <ele>200</ele>
        <time>2021-08-27T13:01:49Z</time>
      </trkpt>
      <trkpt lat="43.44409" lon="6.21918">
        <ele>192</ele>
        <time>2021-08-27T13:02:05Z</time>
      </trkpt>
      <trkpt lat="43.44414" lon="6.21885">
        <ele>192</ele>
        <time>2021-08-27T13:02:09Z</time>
      </trkpt>
      <trkpt lat="43.44417" lon="6.2187">
        <ele>191</ele>
        <time>2021-08-27T13:02:11Z</time>
      </trkpt>
      <trkpt lat="43.44422" lon="6.21857">
        <ele>191</ele>
        <time>2021-08-27T13:02:13Z</time>
      </trkpt>
      <trkpt lat="43.44428" lon="6.21845">
        <ele>191</ele>
        <time>2021-08-27T13:02:15Z</time>
      </trkpt>
      <trkpt lat="43.44437" lon="6.21836">
        <ele>191</ele>
        <time>2021-08-27T13:02:17Z</time>
      </trkpt>
      <trkpt lat="43.44448" lon="6.21831">
        <ele>191</ele>
        <time>2021-08-27T13:02:19Z</time>
      </trkpt>
      <trkpt lat="43.4446" lon="6.2183">
        <ele>191</ele>
        <time>2021-08-27T13:02:21Z</time>
      </trkpt>
      <trkpt lat="43.44501" lon="6.21839">
        <ele>191</ele>
        <time>2021-08-27T13:02:29Z</time>
      </trkpt>
      <trkpt lat="43.44514" lon="6.21839">
        <ele>191</ele>
        <time>2021-08-27T13:02:31Z</time>
      </trkpt>
      <trkpt lat="43.44539" lon="6.21834">
        <ele>191</ele>
        <time>2021-08-27T13:02:36Z</time>
      </trkpt>
      <trkpt lat="43.44584" lon="6.2183">
        <ele>190</ele>
        <time>2021-08-27T13:02:44Z</time>
      </trkpt>
      <trkpt lat="43.44598" lon="6.21827">
        <ele>189</ele>
        <time>2021-08-27T13:02:46Z</time>
      </trkpt>
      <trkpt lat="43.44613" lon="6.2182">
        <ele>188</ele>
        <time>2021-08-27T13:02:49Z</time>
      </trkpt>
      <trkpt lat="43.44642" lon="6.21802">
        <ele>187</ele>
        <time>2021-08-27T13:02:55Z</time>
      </trkpt>
      <trkpt lat="43.44656" lon="6.21791">
        <ele>186</ele>
        <time>2021-08-27T13:02:57Z</time>
      </trkpt>
      <trkpt lat="43.44668" lon="6.21776">
        <ele>185</ele>
        <time>2021-08-27T13:03:00Z</time>
      </trkpt>
      <trkpt lat="43.44677" lon="6.21759">
        <ele>185</ele>
        <time>2021-08-27T13:03:03Z</time>
      </trkpt>
      <trkpt lat="43.44684" lon="6.21739">
        <ele>186</ele>
        <time>2021-08-27T13:03:06Z</time>
      </trkpt>
      <trkpt lat="43.44737" lon="6.21556">
        <ele>193</ele>
        <time>2021-08-27T13:03:31Z</time>
      </trkpt>
      <trkpt lat="43.44742" lon="6.21533">
        <ele>195</ele>
        <time>2021-08-27T13:03:34Z</time>
      </trkpt>
      <trkpt lat="43.44745" lon="6.21492">
        <ele>196</ele>
        <time>2021-08-27T13:03:40Z</time>
      </trkpt>
      <trkpt lat="43.44744" lon="6.21469">
        <ele>196</ele>
        <time>2021-08-27T13:03:43Z</time>
      </trkpt>
      <trkpt lat="43.44736" lon="6.21424">
        <ele>196</ele>
        <time>2021-08-27T13:03:49Z</time>
      </trkpt>
      <trkpt lat="43.44715" lon="6.21333">
        <ele>191</ele>
        <time>2021-08-27T13:04:01Z</time>
      </trkpt>
      <trkpt lat="43.44707" lon="6.21314">
        <ele>189</ele>
        <time>2021-08-27T13:04:04Z</time>
      </trkpt>
      <trkpt lat="43.44686" lon="6.21282">
        <ele>187</ele>
        <time>2021-08-27T13:04:09Z</time>
      </trkpt>
      <trkpt lat="43.4466" lon="6.2126">
        <ele>186</ele>
        <time>2021-08-27T13:04:15Z</time>
      </trkpt>
      <trkpt lat="43.44646" lon="6.21254">
        <ele>185</ele>
        <time>2021-08-27T13:04:18Z</time>
      </trkpt>
      <trkpt lat="43.44631" lon="6.2125">
        <ele>185</ele>
        <time>2021-08-27T13:04:20Z</time>
      </trkpt>
      <trkpt lat="43.44553" lon="6.21243">
        <ele>182</ele>
        <time>2021-08-27T13:04:34Z</time>
      </trkpt>
      <trkpt lat="43.44538" lon="6.21238">
        <ele>181</ele>
        <time>2021-08-27T13:04:37Z</time>
      </trkpt>
      <trkpt lat="43.44508" lon="6.2122">
        <ele>180</ele>
        <time>2021-08-27T13:04:43Z</time>
      </trkpt>
      <trkpt lat="43.44482" lon="6.21194">
        <ele>180</ele>
        <time>2021-08-27T13:04:48Z</time>
      </trkpt>
      <trkpt lat="43.4447" lon="6.21178">
        <ele>180</ele>
        <time>2021-08-27T13:04:51Z</time>
      </trkpt>
      <trkpt lat="43.44452" lon="6.21142">
        <ele>180</ele>
        <time>2021-08-27T13:04:57Z</time>
      </trkpt>
      <trkpt lat="43.44445" lon="6.21123">
        <ele>180</ele>
        <time>2021-08-27T13:05:00Z</time>
      </trkpt>
      <trkpt lat="43.44436" lon="6.21089">
        <ele>180</ele>
        <time>2021-08-27T13:05:04Z</time>
      </trkpt>
      <trkpt lat="43.44433" lon="6.21044">
        <ele>180</ele>
        <time>2021-08-27T13:05:10Z</time>
      </trkpt>
      <trkpt lat="43.44436" lon="6.21006">
        <ele>180</ele>
        <time>2021-08-27T13:05:15Z</time>
      </trkpt>
      <trkpt lat="43.44446" lon="6.20968">
        <ele>179</ele>
        <time>2021-08-27T13:05:20Z</time>
      </trkpt>
      <trkpt lat="43.44482" lon="6.20863">
        <ele>176</ele>
        <time>2021-08-27T13:05:35Z</time>
      </trkpt>
      <trkpt lat="43.44492" lon="6.20819">
        <ele>176</ele>
        <time>2021-08-27T13:05:41Z</time>
      </trkpt>
      <trkpt lat="43.44495" lon="6.20796">
        <ele>177</ele>
        <time>2021-08-27T13:05:44Z</time>
      </trkpt>
      <trkpt lat="43.44505" lon="6.20579">
        <ele>183</ele>
        <time>2021-08-27T13:06:13Z</time>
      </trkpt>
      <trkpt lat="43.44506" lon="6.2051">
        <ele>183</ele>
        <time>2021-08-27T13:06:21Z</time>
      </trkpt>
      <trkpt lat="43.44498" lon="6.20267">
        <ele>178</ele>
        <time>2021-08-27T13:06:53Z</time>
      </trkpt>
      <trkpt lat="43.44499" lon="6.20216">
        <ele>178</ele>
        <time>2021-08-27T13:06:59Z</time>
      </trkpt>
      <trkpt lat="43.44502" lon="6.20169">
        <ele>177</ele>
        <time>2021-08-27T13:07:06Z</time>
      </trkpt>
      <trkpt lat="43.44507" lon="6.20148">
        <ele>177</ele>
        <time>2021-08-27T13:07:08Z</time>
      </trkpt>
      <trkpt lat="43.44515" lon="6.2013">
        <ele>176</ele>
        <time>2021-08-27T13:07:11Z</time>
      </trkpt>
      <trkpt lat="43.44549" lon="6.20077">
        <ele>176</ele>
        <time>2021-08-27T13:07:20Z</time>
      </trkpt>
      <trkpt lat="43.44555" lon="6.20063">
        <ele>176</ele>
        <time>2021-08-27T13:07:22Z</time>
      </trkpt>
      <trkpt lat="43.44562" lon="6.20031">
        <ele>173</ele>
        <time>2021-08-27T13:07:27Z</time>
      </trkpt>
      <trkpt lat="43.44573" lon="6.20014">
        <ele>172</ele>
        <time>2021-08-27T13:07:30Z</time>
      </trkpt>
      <trkpt lat="43.44582" lon="6.2001">
        <ele>171</ele>
        <time>2021-08-27T13:07:31Z</time>
      </trkpt>
      <trkpt lat="43.44591" lon="6.20009">
        <ele>171</ele>
        <time>2021-08-27T13:07:33Z</time>
      </trkpt>
      <trkpt lat="43.44603" lon="6.20014">
        <ele>172</ele>
        <time>2021-08-27T13:07:35Z</time>
      </trkpt>
      <trkpt lat="43.4461" lon="6.20021">
        <ele>173</ele>
        <time>2021-08-27T13:07:37Z</time>
      </trkpt>
      <trkpt lat="43.44633" lon="6.20038">
        <ele>176</ele>
        <time>2021-08-27T13:07:41Z</time>
      </trkpt>
      <trkpt lat="43.44653" lon="6.20044">
        <ele>177</ele>
        <time>2021-08-27T13:07:45Z</time>
      </trkpt>
      <trkpt lat="43.44663" lon="6.20046">
        <ele>178</ele>
        <time>2021-08-27T13:07:47Z</time>
      </trkpt>
      <trkpt lat="43.44682" lon="6.20041">
        <ele>182</ele>
        <time>2021-08-27T13:07:50Z</time>
      </trkpt>
      <trkpt lat="43.44692" lon="6.20035">
        <ele>184</ele>
        <time>2021-08-27T13:07:52Z</time>
      </trkpt>
      <trkpt lat="43.447" lon="6.20024">
        <ele>185</ele>
        <time>2021-08-27T13:07:54Z</time>
      </trkpt>
      <trkpt lat="43.44708" lon="6.20011">
        <ele>185</ele>
        <time>2021-08-27T13:07:56Z</time>
      </trkpt>
      <trkpt lat="43.44726" lon="6.19962">
        <ele>183</ele>
        <time>2021-08-27T13:08:03Z</time>
      </trkpt>
      <trkpt lat="43.44739" lon="6.19909">
        <ele>180</ele>
        <time>2021-08-27T13:08:11Z</time>
      </trkpt>
      <trkpt lat="43.44751" lon="6.19877">
        <ele>179</ele>
        <time>2021-08-27T13:08:15Z</time>
      </trkpt>
      <trkpt lat="43.44798" lon="6.198">
        <ele>176</ele>
        <time>2021-08-27T13:08:28Z</time>
      </trkpt>
      <trkpt lat="43.44806" lon="6.19791">
        <ele>175</ele>
        <time>2021-08-27T13:08:30Z</time>
      </trkpt>
      <trkpt lat="43.44815" lon="6.19784">
        <ele>174</ele>
        <time>2021-08-27T13:08:32Z</time>
      </trkpt>
      <trkpt lat="43.44834" lon="6.1978">
        <ele>174</ele>
        <time>2021-08-27T13:08:35Z</time>
      </trkpt>
      <trkpt lat="43.44846" lon="6.19782">
        <ele>173</ele>
        <time>2021-08-27T13:08:38Z</time>
      </trkpt>
      <trkpt lat="43.44857" lon="6.19789">
        <ele>173</ele>
        <time>2021-08-27T13:08:40Z</time>
      </trkpt>
      <trkpt lat="43.44866" lon="6.19799">
        <ele>173</ele>
        <time>2021-08-27T13:08:42Z</time>
      </trkpt>
      <trkpt lat="43.44881" lon="6.19826">
        <ele>173</ele>
        <time>2021-08-27T13:08:46Z</time>
      </trkpt>
      <trkpt lat="43.44891" lon="6.19859">
        <ele>174</ele>
        <time>2021-08-27T13:08:51Z</time>
      </trkpt>
      <trkpt lat="43.44925" lon="6.20034">
        <ele>177</ele>
        <time>2021-08-27T13:09:14Z</time>
      </trkpt>
      <trkpt lat="43.4493" lon="6.20111">
        <ele>180</ele>
        <time>2021-08-27T13:09:24Z</time>
      </trkpt>
      <trkpt lat="43.44934" lon="6.20251">
        <ele>183</ele>
        <time>2021-08-27T13:09:42Z</time>
      </trkpt>
      <trkpt lat="43.44939" lon="6.20292">
        <ele>183</ele>
        <time>2021-08-27T13:09:48Z</time>
      </trkpt>
      <trkpt lat="43.44955" lon="6.20395">
        <ele>185</ele>
        <time>2021-08-27T13:10:01Z</time>
      </trkpt>
      <trkpt lat="43.44964" lon="6.20476">
        <ele>188</ele>
        <time>2021-08-27T13:10:12Z</time>
      </trkpt>
      <trkpt lat="43.44979" lon="6.20531">
        <ele>187</ele>
        <time>2021-08-27T13:10:19Z</time>
      </trkpt>
      <trkpt lat="43.4499" lon="6.2059">
        <ele>190</ele>
        <time>2021-08-27T13:10:27Z</time>
      </trkpt>
      <trkpt lat="43.44996" lon="6.20608">
        <ele>189</ele>
        <time>2021-08-27T13:10:30Z</time>
      </trkpt>
      <trkpt lat="43.45019" lon="6.20661">
        <ele>187</ele>
        <time>2021-08-27T13:10:38Z</time>
      </trkpt>
      <trkpt lat="43.45069" lon="6.20834">
        <ele>184</ele>
        <time>2021-08-27T13:11:02Z</time>
      </trkpt>
      <trkpt lat="43.45104" lon="6.20922">
        <ele>184</ele>
        <time>2021-08-27T13:11:15Z</time>
      </trkpt>
      <trkpt lat="43.45109" lon="6.20939">
        <ele>184</ele>
        <time>2021-08-27T13:11:17Z</time>
      </trkpt>
      <trkpt lat="43.45128" lon="6.21035">
        <ele>185</ele>
        <time>2021-08-27T13:11:30Z</time>
      </trkpt>
      <trkpt lat="43.45134" lon="6.21076">
        <ele>185</ele>
        <time>2021-08-27T13:11:36Z</time>
      </trkpt>
      <trkpt lat="43.45136" lon="6.21159">
        <ele>188</ele>
        <time>2021-08-27T13:11:46Z</time>
      </trkpt>
      <trkpt lat="43.45143" lon="6.21198">
        <ele>187</ele>
        <time>2021-08-27T13:11:51Z</time>
      </trkpt>
      <trkpt lat="43.45165" lon="6.21272">
        <ele>185</ele>
        <time>2021-08-27T13:12:02Z</time>
      </trkpt>
      <trkpt lat="43.4518" lon="6.21305">
        <ele>185</ele>
        <time>2021-08-27T13:12:07Z</time>
      </trkpt>
      <trkpt lat="43.45189" lon="6.21321">
        <ele>184</ele>
        <time>2021-08-27T13:12:09Z</time>
      </trkpt>
      <trkpt lat="43.45287" lon="6.2144">
        <ele>181</ele>
        <time>2021-08-27T13:12:33Z</time>
      </trkpt>
      <trkpt lat="43.45297" lon="6.21448">
        <ele>181</ele>
        <time>2021-08-27T13:12:35Z</time>
      </trkpt>
      <trkpt lat="43.45308" lon="6.21453">
        <ele>181</ele>
        <time>2021-08-27T13:12:37Z</time>
      </trkpt>
      <trkpt lat="43.45319" lon="6.21456">
        <ele>180</ele>
        <time>2021-08-27T13:12:39Z</time>
      </trkpt>
      <trkpt lat="43.45341" lon="6.21451">
        <ele>179</ele>
        <time>2021-08-27T13:12:43Z</time>
      </trkpt>
      <trkpt lat="43.4535" lon="6.21446">
        <ele>180</ele>
        <time>2021-08-27T13:12:44Z</time>
      </trkpt>
      <trkpt lat="43.45359" lon="6.21438">
        <ele>180</ele>
        <time>2021-08-27T13:12:46Z</time>
      </trkpt>
      <trkpt lat="43.45374" lon="6.21417">
        <ele>179</ele>
        <time>2021-08-27T13:12:50Z</time>
      </trkpt>
      <trkpt lat="43.45383" lon="6.21409">
        <ele>179</ele>
        <time>2021-08-27T13:12:52Z</time>
      </trkpt>
      <trkpt lat="43.45405" lon="6.21399">
        <ele>179</ele>
        <time>2021-08-27T13:12:56Z</time>
      </trkpt>
      <trkpt lat="43.45429" lon="6.21395">
        <ele>178</ele>
        <time>2021-08-27T13:13:00Z</time>
      </trkpt>
      <trkpt lat="43.45441" lon="6.21397">
        <ele>177</ele>
        <time>2021-08-27T13:13:03Z</time>
      </trkpt>
      <trkpt lat="43.45451" lon="6.21403">
        <ele>176</ele>
        <time>2021-08-27T13:13:05Z</time>
      </trkpt>
      <trkpt lat="43.4546" lon="6.21411">
        <ele>176</ele>
        <time>2021-08-27T13:13:06Z</time>
      </trkpt>
      <trkpt lat="43.45467" lon="6.21423">
        <ele>177</ele>
        <time>2021-08-27T13:13:08Z</time>
      </trkpt>
      <trkpt lat="43.45478" lon="6.21452">
        <ele>179</ele>
        <time>2021-08-27T13:13:13Z</time>
      </trkpt>
      <trkpt lat="43.4549" lon="6.21498">
        <ele>183</ele>
        <time>2021-08-27T13:13:19Z</time>
      </trkpt>
      <trkpt lat="43.45504" lon="6.21524">
        <ele>183</ele>
        <time>2021-08-27T13:13:23Z</time>
      </trkpt>
      <trkpt lat="43.45513" lon="6.21534">
        <ele>184</ele>
        <time>2021-08-27T13:13:25Z</time>
      </trkpt>
      <trkpt lat="43.45524" lon="6.21539">
        <ele>183</ele>
        <time>2021-08-27T13:13:27Z</time>
      </trkpt>
      <trkpt lat="43.45535" lon="6.21541">
        <ele>182</ele>
        <time>2021-08-27T13:13:29Z</time>
      </trkpt>
      <trkpt lat="43.45586" lon="6.21544">
        <ele>177</ele>
        <time>2021-08-27T13:13:38Z</time>
      </trkpt>
      <trkpt lat="43.45598" lon="6.21543">
        <ele>179</ele>
        <time>2021-08-27T13:13:41Z</time>
      </trkpt>
      <trkpt lat="43.4561" lon="6.21538">
        <ele>179</ele>
        <time>2021-08-27T13:13:43Z</time>
      </trkpt>
      <trkpt lat="43.4562" lon="6.21531">
        <ele>180</ele>
        <time>2021-08-27T13:13:45Z</time>
      </trkpt>
      <trkpt lat="43.45628" lon="6.21521">
        <ele>181</ele>
        <time>2021-08-27T13:13:47Z</time>
      </trkpt>
      <trkpt lat="43.45634" lon="6.21509">
        <ele>181</ele>
        <time>2021-08-27T13:13:49Z</time>
      </trkpt>
      <trkpt lat="43.45637" lon="6.21495">
        <ele>181</ele>
        <time>2021-08-27T13:13:50Z</time>
      </trkpt>
      <trkpt lat="43.45637" lon="6.21481">
        <ele>182</ele>
        <time>2021-08-27T13:13:52Z</time>
      </trkpt>
      <trkpt lat="43.45634" lon="6.21467">
        <ele>182</ele>
        <time>2021-08-27T13:13:54Z</time>
      </trkpt>
      <trkpt lat="43.45622" lon="6.21425">
        <ele>182</ele>
        <time>2021-08-27T13:14:00Z</time>
      </trkpt>
      <trkpt lat="43.45615" lon="6.2138">
        <ele>182</ele>
        <time>2021-08-27T13:14:06Z</time>
      </trkpt>
      <trkpt lat="43.45596" lon="6.21338">
        <ele>178</ele>
        <time>2021-08-27T13:14:12Z</time>
      </trkpt>
      <trkpt lat="43.45592" lon="6.21319">
        <ele>177</ele>
        <time>2021-08-27T13:14:15Z</time>
      </trkpt>
      <trkpt lat="43.45595" lon="6.213">
        <ele>178</ele>
        <time>2021-08-27T13:14:17Z</time>
      </trkpt>
      <trkpt lat="43.45616" lon="6.21191">
        <ele>181</ele>
        <time>2021-08-27T13:14:32Z</time>
      </trkpt>
      <trkpt lat="43.45633" lon="6.21072">
        <ele>179</ele>
        <time>2021-08-27T13:14:48Z</time>
      </trkpt>
      <trkpt lat="43.45643" lon="6.20972">
        <ele>180</ele>
        <time>2021-08-27T13:15:01Z</time>
      </trkpt>
      <trkpt lat="43.45649" lon="6.20944">
        <ele>179</ele>
        <time>2021-08-27T13:15:04Z</time>
      </trkpt>
      <trkpt lat="43.45654" lon="6.2093">
        <ele>178</ele>
        <time>2021-08-27T13:15:06Z</time>
      </trkpt>
      <trkpt lat="43.45663" lon="6.20912">
        <ele>177</ele>
        <time>2021-08-27T13:15:09Z</time>
      </trkpt>
      <trkpt lat="43.45675" lon="6.20897">
        <ele>177</ele>
        <time>2021-08-27T13:15:12Z</time>
      </trkpt>
      <trkpt lat="43.45688" lon="6.20883">
        <ele>176</ele>
        <time>2021-08-27T13:15:15Z</time>
      </trkpt>
      <trkpt lat="43.45718" lon="6.20862">
        <ele>174</ele>
        <time>2021-08-27T13:15:21Z</time>
      </trkpt>
      <trkpt lat="43.45734" lon="6.20856">
        <ele>173</ele>
        <time>2021-08-27T13:15:24Z</time>
      </trkpt>
      <trkpt lat="43.45798" lon="6.20849">
        <ele>176</ele>
        <time>2021-08-27T13:15:35Z</time>
      </trkpt>
      <trkpt lat="43.45815" lon="6.20845">
        <ele>176</ele>
        <time>2021-08-27T13:15:38Z</time>
      </trkpt>
      <trkpt lat="43.45863" lon="6.20823">
        <ele>173</ele>
        <time>2021-08-27T13:15:47Z</time>
      </trkpt>
      <trkpt lat="43.45876" lon="6.20821">
        <ele>173</ele>
        <time>2021-08-27T13:15:50Z</time>
      </trkpt>
      <trkpt lat="43.45887" lon="6.20823">
        <ele>173</ele>
        <time>2021-08-27T13:15:52Z</time>
      </trkpt>
      <trkpt lat="43.45906" lon="6.20833">
        <ele>174</ele>
        <time>2021-08-27T13:15:55Z</time>
      </trkpt>
      <trkpt lat="43.45913" lon="6.20841">
        <ele>175</ele>
        <time>2021-08-27T13:15:57Z</time>
      </trkpt>
      <trkpt lat="43.45943" lon="6.20892">
        <ele>179</ele>
        <time>2021-08-27T13:16:05Z</time>
      </trkpt>
      <trkpt lat="43.45959" lon="6.20931">
        <ele>180</ele>
        <time>2021-08-27T13:16:11Z</time>
      </trkpt>
      <trkpt lat="43.45965" lon="6.20963">
        <ele>183</ele>
        <time>2021-08-27T13:16:16Z</time>
      </trkpt>
      <trkpt lat="43.4598" lon="6.21018">
        <ele>186</ele>
        <time>2021-08-27T13:16:23Z</time>
      </trkpt>
      <trkpt lat="43.45996" lon="6.21053">
        <ele>188</ele>
        <time>2021-08-27T13:16:28Z</time>
      </trkpt>
      <trkpt lat="43.46046" lon="6.21141">
        <ele>191</ele>
        <time>2021-08-27T13:16:43Z</time>
      </trkpt>
      <trkpt lat="43.46058" lon="6.21157">
        <ele>190</ele>
        <time>2021-08-27T13:16:46Z</time>
      </trkpt>
      <trkpt lat="43.46084" lon="6.21184">
        <ele>189</ele>
        <time>2021-08-27T13:16:52Z</time>
      </trkpt>
      <trkpt lat="43.46099" lon="6.21195">
        <ele>191</ele>
        <time>2021-08-27T13:16:55Z</time>
      </trkpt>
      <trkpt lat="43.46113" lon="6.21204">
        <ele>192</ele>
        <time>2021-08-27T13:16:57Z</time>
      </trkpt>
      <trkpt lat="43.4616" lon="6.21212">
        <ele>188</ele>
        <time>2021-08-27T13:17:06Z</time>
      </trkpt>
      <trkpt lat="43.46191" lon="6.21213">
        <ele>185</ele>
        <time>2021-08-27T13:17:11Z</time>
      </trkpt>
      <trkpt lat="43.46207" lon="6.21212">
        <ele>184</ele>
        <time>2021-08-27T13:17:14Z</time>
      </trkpt>
      <trkpt lat="43.46247" lon="6.21204">
        <ele>178</ele>
        <time>2021-08-27T13:17:21Z</time>
      </trkpt>
      <trkpt lat="43.4626" lon="6.21206">
        <ele>179</ele>
        <time>2021-08-27T13:17:24Z</time>
      </trkpt>
      <trkpt lat="43.46298" lon="6.2122">
        <ele>182</ele>
        <time>2021-08-27T13:17:31Z</time>
      </trkpt>
      <trkpt lat="43.46311" lon="6.21218">
        <ele>182</ele>
        <time>2021-08-27T13:17:33Z</time>
      </trkpt>
      <trkpt lat="43.46322" lon="6.21211">
        <ele>181</ele>
        <time>2021-08-27T13:17:35Z</time>
      </trkpt>
      <trkpt lat="43.46353" lon="6.21177">
        <ele>179</ele>
        <time>2021-08-27T13:17:42Z</time>
      </trkpt>
      <trkpt lat="43.46364" lon="6.21167">
        <ele>179</ele>
        <time>2021-08-27T13:17:45Z</time>
      </trkpt>
      <trkpt lat="43.4639" lon="6.21151">
        <ele>182</ele>
        <time>2021-08-27T13:17:50Z</time>
      </trkpt>
      <trkpt lat="43.46418" lon="6.21138">
        <ele>183</ele>
        <time>2021-08-27T13:17:55Z</time>
      </trkpt>
      <trkpt lat="43.46453" lon="6.21113">
        <ele>179</ele>
        <time>2021-08-27T13:18:02Z</time>
      </trkpt>
      <trkpt lat="43.46492" lon="6.21101">
        <ele>177</ele>
        <time>2021-08-27T13:18:09Z</time>
      </trkpt>
      <trkpt lat="43.46504" lon="6.21092">
        <ele>176</ele>
        <time>2021-08-27T13:18:12Z</time>
      </trkpt>
      <trkpt lat="43.46513" lon="6.2108">
        <ele>175</ele>
        <time>2021-08-27T13:18:14Z</time>
      </trkpt>
      <trkpt lat="43.4653" lon="6.21053">
        <ele>173</ele>
        <time>2021-08-27T13:18:18Z</time>
      </trkpt>
      <trkpt lat="43.4654" lon="6.21042">
        <ele>172</ele>
        <time>2021-08-27T13:18:21Z</time>
      </trkpt>
      <trkpt lat="43.46552" lon="6.21033">
        <ele>172</ele>
        <time>2021-08-27T13:18:23Z</time>
      </trkpt>
      <trkpt lat="43.46603" lon="6.21011">
        <ele>173</ele>
        <time>2021-08-27T13:18:33Z</time>
      </trkpt>
      <trkpt lat="43.46617" lon="6.20999">
        <ele>173</ele>
        <time>2021-08-27T13:18:36Z</time>
      </trkpt>
      <trkpt lat="43.46628" lon="6.20986">
        <ele>173</ele>
        <time>2021-08-27T13:18:38Z</time>
      </trkpt>
      <trkpt lat="43.46655" lon="6.2094">
        <ele>171</ele>
        <time>2021-08-27T13:18:46Z</time>
      </trkpt>
      <trkpt lat="43.46666" lon="6.20927">
        <ele>170</ele>
        <time>2021-08-27T13:18:48Z</time>
      </trkpt>
      <trkpt lat="43.46692" lon="6.209">
        <ele>175</ele>
        <time>2021-08-27T13:18:54Z</time>
      </trkpt>
      <trkpt lat="43.46732" lon="6.20862">
        <ele>178</ele>
        <time>2021-08-27T13:19:03Z</time>
      </trkpt>
      <trkpt lat="43.46743" lon="6.20848">
        <ele>177</ele>
        <time>2021-08-27T13:19:05Z</time>
      </trkpt>
      <trkpt lat="43.46752" lon="6.20833">
        <ele>176</ele>
        <time>2021-08-27T13:19:08Z</time>
      </trkpt>
      <trkpt lat="43.4676" lon="6.20815">
        <ele>176</ele>
        <time>2021-08-27T13:19:11Z</time>
      </trkpt>
      <trkpt lat="43.46773" lon="6.20773">
        <ele>175</ele>
        <time>2021-08-27T13:19:17Z</time>
      </trkpt>
      <trkpt lat="43.46791" lon="6.20705">
        <ele>169</ele>
        <time>2021-08-27T13:19:26Z</time>
      </trkpt>
      <trkpt lat="43.46806" lon="6.20665">
        <ele>165</ele>
        <time>2021-08-27T13:19:32Z</time>
      </trkpt>
      <trkpt lat="43.46825" lon="6.2063">
        <ele>163</ele>
        <time>2021-08-27T13:19:37Z</time>
      </trkpt>
      <trkpt lat="43.46883" lon="6.20544">
        <ele>161</ele>
        <time>2021-08-27T13:19:53Z</time>
      </trkpt>
      <trkpt lat="43.469" lon="6.20508">
        <ele>162</ele>
        <time>2021-08-27T13:19:58Z</time>
      </trkpt>
      <trkpt lat="43.46911" lon="6.20469">
        <ele>163</ele>
        <time>2021-08-27T13:20:03Z</time>
      </trkpt>
      <trkpt lat="43.46925" lon="6.20428">
        <ele>164</ele>
        <time>2021-08-27T13:20:09Z</time>
      </trkpt>
      <trkpt lat="43.46982" lon="6.20276">
        <ele>161</ele>
        <time>2021-08-27T13:20:31Z</time>
      </trkpt>
      <trkpt lat="43.47011" lon="6.20189">
        <ele>160</ele>
        <time>2021-08-27T13:20:44Z</time>
      </trkpt>
      <trkpt lat="43.47019" lon="6.20172">
        <ele>160</ele>
        <time>2021-08-27T13:20:46Z</time>
      </trkpt>
      <trkpt lat="43.47075" lon="6.201">
        <ele>161</ele>
        <time>2021-08-27T13:21:00Z</time>
      </trkpt>
      <trkpt lat="43.47087" lon="6.20076">
        <ele>161</ele>
        <time>2021-08-27T13:21:04Z</time>
      </trkpt>
      <trkpt lat="43.47087" lon="6.2005">
        <ele>161</ele>
        <time>2021-08-27T13:21:07Z</time>
      </trkpt>
      <trkpt lat="43.47079" lon="6.2001">
        <ele>162</ele>
        <time>2021-08-27T13:21:12Z</time>
      </trkpt>
      <trkpt lat="43.47069" lon="6.19948">
        <ele>163</ele>
        <time>2021-08-27T13:21:21Z</time>
      </trkpt>
      <trkpt lat="43.47064" lon="6.19889">
        <ele>164</ele>
        <time>2021-08-27T13:21:28Z</time>
      </trkpt>
      <trkpt lat="43.47061" lon="6.19847">
        <ele>164</ele>
        <time>2021-08-27T13:21:34Z</time>
      </trkpt>
      <trkpt lat="43.47058" lon="6.19762">
        <ele>163</ele>
        <time>2021-08-27T13:21:45Z</time>
      </trkpt>
      <trkpt lat="43.4705" lon="6.1973">
        <ele>162</ele>
        <time>2021-08-27T13:21:49Z</time>
      </trkpt>
      <trkpt lat="43.47043" lon="6.19718">
        <ele>161</ele>
        <time>2021-08-27T13:21:51Z</time>
      </trkpt>
      <trkpt lat="43.47032" lon="6.19709">
        <ele>161</ele>
        <time>2021-08-27T13:21:53Z</time>
      </trkpt>
      <trkpt lat="43.46912" lon="6.19631">
        <ele>158</ele>
        <time>2021-08-27T13:22:17Z</time>
      </trkpt>
      <trkpt lat="43.46902" lon="6.1962">
        <ele>158</ele>
        <time>2021-08-27T13:22:19Z</time>
      </trkpt>
      <trkpt lat="43.46888" lon="6.19595">
        <ele>157</ele>
        <time>2021-08-27T13:22:23Z</time>
      </trkpt>
      <trkpt lat="43.46884" lon="6.19581">
        <ele>156</ele>
        <time>2021-08-27T13:22:25Z</time>
      </trkpt>
      <trkpt lat="43.46884" lon="6.19566">
        <ele>154</ele>
        <time>2021-08-27T13:22:27Z</time>
      </trkpt>
      <trkpt lat="43.46888" lon="6.19554">
        <ele>153</ele>
        <time>2021-08-27T13:22:29Z</time>
      </trkpt>
      <trkpt lat="43.46894" lon="6.19545">
        <ele>152</ele>
        <time>2021-08-27T13:22:31Z</time>
      </trkpt>
      <trkpt lat="43.46903" lon="6.19539">
        <ele>151</ele>
        <time>2021-08-27T13:22:32Z</time>
      </trkpt>
      <trkpt lat="43.46915" lon="6.19537">
        <ele>151</ele>
        <time>2021-08-27T13:22:34Z</time>
      </trkpt>
      <trkpt lat="43.46948" lon="6.19548">
        <ele>153</ele>
        <time>2021-08-27T13:22:41Z</time>
      </trkpt>
      <trkpt lat="43.4696" lon="6.19549">
        <ele>153</ele>
        <time>2021-08-27T13:22:43Z</time>
      </trkpt>
      <trkpt lat="43.46971" lon="6.19546">
        <ele>153</ele>
        <time>2021-08-27T13:22:45Z</time>
      </trkpt>
      <trkpt lat="43.46982" lon="6.19539">
        <ele>152</ele>
        <time>2021-08-27T13:22:47Z</time>
      </trkpt>
      <trkpt lat="43.47002" lon="6.19517">
        <ele>151</ele>
        <time>2021-08-27T13:22:51Z</time>
      </trkpt>
      <trkpt lat="43.47027" lon="6.19498">
        <ele>150</ele>
        <time>2021-08-27T13:22:56Z</time>
      </trkpt>
      <trkpt lat="43.4704" lon="6.19491">
        <ele>150</ele>
        <time>2021-08-27T13:22:59Z</time>
      </trkpt>
      <trkpt lat="43.47096" lon="6.19474">
        <ele>148</ele>
        <time>2021-08-27T13:23:09Z</time>
      </trkpt>
      <trkpt lat="43.47136" lon="6.19449">
        <ele>144</ele>
        <time>2021-08-27T13:23:17Z</time>
      </trkpt>
      <trkpt lat="43.47161" lon="6.19442">
        <ele>143</ele>
        <time>2021-08-27T13:23:21Z</time>
      </trkpt>
      <trkpt lat="43.47185" lon="6.19442">
        <ele>141</ele>
        <time>2021-08-27T13:23:26Z</time>
      </trkpt>
      <trkpt lat="43.47206" lon="6.19447">
        <ele>140</ele>
        <time>2021-08-27T13:23:30Z</time>
      </trkpt>
      <trkpt lat="43.47217" lon="6.19448">
        <ele>139</ele>
        <time>2021-08-27T13:23:32Z</time>
      </trkpt>
      <trkpt lat="43.47229" lon="6.19441">
        <ele>137</ele>
        <time>2021-08-27T13:23:34Z</time>
      </trkpt>
      <trkpt lat="43.47238" lon="6.19434">
        <ele>136</ele>
        <time>2021-08-27T13:23:36Z</time>
      </trkpt>
      <trkpt lat="43.47261" lon="6.19405">
        <ele>136</ele>
        <time>2021-08-27T13:23:41Z</time>
      </trkpt>
      <trkpt lat="43.47285" lon="6.19373">
        <ele>138</ele>
        <time>2021-08-27T13:23:47Z</time>
      </trkpt>
      <trkpt lat="43.47302" lon="6.19343">
        <ele>139</ele>
        <time>2021-08-27T13:23:52Z</time>
      </trkpt>
      <trkpt lat="43.47314" lon="6.19318">
        <ele>139</ele>
        <time>2021-08-27T13:23:56Z</time>
      </trkpt>
      <trkpt lat="43.47328" lon="6.19278">
        <ele>139</ele>
        <time>2021-08-27T13:24:02Z</time>
      </trkpt>
      <trkpt lat="43.47361" lon="6.19163">
        <ele>140</ele>
        <time>2021-08-27T13:24:18Z</time>
      </trkpt>
      <trkpt lat="43.4742" lon="6.18918">
        <ele>136</ele>
        <time>2021-08-27T13:24:51Z</time>
      </trkpt>
      <trkpt lat="43.47428" lon="6.18877">
        <ele>136</ele>
        <time>2021-08-27T13:24:56Z</time>
      </trkpt>
      <trkpt lat="43.47429" lon="6.18857">
        <ele>136</ele>
        <time>2021-08-27T13:24:59Z</time>
      </trkpt>
      <trkpt lat="43.47428" lon="6.1882">
        <ele>136</ele>
        <time>2021-08-27T13:25:04Z</time>
      </trkpt>
      <trkpt lat="43.47418" lon="6.18786">
        <ele>136</ele>
        <time>2021-08-27T13:25:09Z</time>
      </trkpt>
      <trkpt lat="43.47368" lon="6.18661">
        <ele>135</ele>
        <time>2021-08-27T13:25:27Z</time>
      </trkpt>
      <trkpt lat="43.47363" lon="6.18653">
        <ele>134</ele>
        <time>2021-08-27T13:25:28Z</time>
      </trkpt>
      <trkpt lat="43.47358" lon="6.18647">
        <ele>134</ele>
        <time>2021-08-27T13:25:30Z</time>
      </trkpt>
      <trkpt lat="43.47353" lon="6.18646">
        <ele>134</ele>
        <time>2021-08-27T13:25:30Z</time>
      </trkpt>
      <trkpt lat="43.47331" lon="6.18653">
        <ele>133</ele>
        <time>2021-08-27T13:25:34Z</time>
      </trkpt>
      <trkpt lat="43.47327" lon="6.18654">
        <ele>134</ele>
        <time>2021-08-27T13:25:35Z</time>
      </trkpt>
      <trkpt lat="43.47329" lon="6.18685">
        <ele>133</ele>
        <time>2021-08-27T13:25:39Z</time>
      </trkpt>
      <trkpt lat="43.47331" lon="6.18687">
        <ele>133</ele>
        <time>2021-08-27T13:25:40Z</time>
      </trkpt>
      <trkpt lat="43.47329" lon="6.18685">
        <ele>133</ele>
        <time>2021-08-27T13:25:40Z</time>
      </trkpt>
      <trkpt lat="43.47327" lon="6.18654">
        <ele>134</ele>
        <time>2021-08-27T13:25:44Z</time>
      </trkpt>
      <trkpt lat="43.47318" lon="6.18649">
        <ele>134</ele>
        <time>2021-08-27T13:25:46Z</time>
      </trkpt>
      <trkpt lat="43.4731" lon="6.18628">
        <ele>135</ele>
        <time>2021-08-27T13:25:49Z</time>
      </trkpt>
      <trkpt lat="43.47305" lon="6.18602">
        <ele>136</ele>
        <time>2021-08-27T13:25:52Z</time>
      </trkpt>
      <trkpt lat="43.47299" lon="6.18543">
        <ele>137</ele>
        <time>2021-08-27T13:26:00Z</time>
      </trkpt>
      <trkpt lat="43.47298" lon="6.18448">
        <ele>140</ele>
        <time>2021-08-27T13:26:12Z</time>
      </trkpt>
      <trkpt lat="43.473" lon="6.1843">
        <ele>141</ele>
        <time>2021-08-27T13:26:15Z</time>
      </trkpt>
      <trkpt lat="43.47307" lon="6.18418">
        <ele>141</ele>
        <time>2021-08-27T13:26:17Z</time>
      </trkpt>
      <trkpt lat="43.47313" lon="6.18412">
        <ele>140</ele>
        <time>2021-08-27T13:26:18Z</time>
      </trkpt>
      <trkpt lat="43.4732" lon="6.18407">
        <ele>140</ele>
        <time>2021-08-27T13:26:19Z</time>
      </trkpt>
      <trkpt lat="43.47329" lon="6.18404">
        <ele>139</ele>
        <time>2021-08-27T13:26:21Z</time>
      </trkpt>
      <trkpt lat="43.47339" lon="6.18404">
        <ele>138</ele>
        <time>2021-08-27T13:26:23Z</time>
      </trkpt>
      <trkpt lat="43.47672" lon="6.18486">
        <ele>141</ele>
        <time>2021-08-27T13:27:23Z</time>
      </trkpt>
      <trkpt lat="43.47677" lon="6.18489">
        <ele>141</ele>
        <time>2021-08-27T13:27:24Z</time>
      </trkpt>
      <trkpt lat="43.47693" lon="6.18528">
        <ele>138</ele>
        <time>2021-08-27T13:27:30Z</time>
      </trkpt>
      <trkpt lat="43.47717" lon="6.18569">
        <ele>135</ele>
        <time>2021-08-27T13:27:37Z</time>
      </trkpt>
      <trkpt lat="43.47725" lon="6.18586">
        <ele>134</ele>
        <time>2021-08-27T13:27:39Z</time>
      </trkpt>
      <trkpt lat="43.47728" lon="6.18599">
        <ele>134</ele>
        <time>2021-08-27T13:27:41Z</time>
      </trkpt>
      <trkpt lat="43.47739" lon="6.18678">
        <ele>133</ele>
        <time>2021-08-27T13:27:51Z</time>
      </trkpt>
      <trkpt lat="43.47742" lon="6.18684">
        <ele>133</ele>
        <time>2021-08-27T13:27:52Z</time>
      </trkpt>
      <trkpt lat="43.47761" lon="6.18704">
        <ele>135</ele>
        <time>2021-08-27T13:27:57Z</time>
      </trkpt>
      <trkpt lat="43.47765" lon="6.18707">
        <ele>135</ele>
        <time>2021-08-27T13:27:57Z</time>
      </trkpt>
      <trkpt lat="43.47794" lon="6.18678">
        <ele>137</ele>
        <time>2021-08-27T13:28:04Z</time>
      </trkpt>
      <trkpt lat="43.478" lon="6.18666">
        <ele>137</ele>
        <time>2021-08-27T13:28:06Z</time>
      </trkpt>
      <trkpt lat="43.47809" lon="6.18633">
        <ele>136</ele>
        <time>2021-08-27T13:28:10Z</time>
      </trkpt>
      <trkpt lat="43.47827" lon="6.18489">
        <ele>134</ele>
        <time>2021-08-27T13:28:29Z</time>
      </trkpt>
      <trkpt lat="43.47833" lon="6.1847">
        <ele>133</ele>
        <time>2021-08-27T13:28:32Z</time>
      </trkpt>
      <trkpt lat="43.47847" lon="6.18443">
        <ele>134</ele>
        <time>2021-08-27T13:28:36Z</time>
      </trkpt>
      <trkpt lat="43.47876" lon="6.18395">
        <ele>134</ele>
        <time>2021-08-27T13:28:44Z</time>
      </trkpt>
      <trkpt lat="43.47894" lon="6.18376">
        <ele>134</ele>
        <time>2021-08-27T13:28:48Z</time>
      </trkpt>
      <trkpt lat="43.47912" lon="6.18362">
        <ele>134</ele>
        <time>2021-08-27T13:28:52Z</time>
      </trkpt>
      <trkpt lat="43.47934" lon="6.18367">
        <ele>135</ele>
        <time>2021-08-27T13:28:56Z</time>
      </trkpt>
      <trkpt lat="43.47937" lon="6.18371">
        <ele>135</ele>
        <time>2021-08-27T13:28:56Z</time>
      </trkpt>
      <trkpt lat="43.47945" lon="6.18375">
        <ele>136</ele>
        <time>2021-08-27T13:28:58Z</time>
      </trkpt>
      <trkpt lat="43.47951" lon="6.18372">
        <ele>136</ele>
        <time>2021-08-27T13:28:59Z</time>
      </trkpt>
      <trkpt lat="43.47955" lon="6.18364">
        <ele>136</ele>
        <time>2021-08-27T13:29:00Z</time>
      </trkpt>
      <trkpt lat="43.47954" lon="6.18354">
        <ele>135</ele>
        <time>2021-08-27T13:29:02Z</time>
      </trkpt>
      <trkpt lat="43.47966" lon="6.18332">
        <ele>135</ele>
        <time>2021-08-27T13:29:05Z</time>
      </trkpt>
      <trkpt lat="43.48026" lon="6.18288">
        <ele>138</ele>
        <time>2021-08-27T13:29:17Z</time>
      </trkpt>
      <trkpt lat="43.48035" lon="6.18279">
        <ele>139</ele>
        <time>2021-08-27T13:29:19Z</time>
      </trkpt>
      <trkpt lat="43.48089" lon="6.18194">
        <ele>140</ele>
        <time>2021-08-27T13:29:34Z</time>
      </trkpt>
      <trkpt lat="43.48107" lon="6.18176">
        <ele>140</ele>
        <time>2021-08-27T13:29:38Z</time>
      </trkpt>
      <trkpt lat="43.48118" lon="6.18169">
        <ele>141</ele>
        <time>2021-08-27T13:29:40Z</time>
      </trkpt>
      <trkpt lat="43.482" lon="6.18131">
        <ele>142</ele>
        <time>2021-08-27T13:29:55Z</time>
      </trkpt>
      <trkpt lat="43.48213" lon="6.18121">
        <ele>141</ele>
        <time>2021-08-27T13:29:58Z</time>
      </trkpt>
      <trkpt lat="43.48231" lon="6.18095">
        <ele>140</ele>
        <time>2021-08-27T13:30:03Z</time>
      </trkpt>
      <trkpt lat="43.48237" lon="6.18077">
        <ele>140</ele>
        <time>2021-08-27T13:30:05Z</time>
      </trkpt>
      <trkpt lat="43.4824" lon="6.18059">
        <ele>140</ele>
        <time>2021-08-27T13:30:08Z</time>
      </trkpt>
      <trkpt lat="43.4824" lon="6.18032">
        <ele>141</ele>
        <time>2021-08-27T13:30:11Z</time>
      </trkpt>
      <trkpt lat="43.48228" lon="6.17869">
        <ele>141</ele>
        <time>2021-08-27T13:30:32Z</time>
      </trkpt>
      <trkpt lat="43.48227" lon="6.1782">
        <ele>141</ele>
        <time>2021-08-27T13:30:39Z</time>
      </trkpt>
      <trkpt lat="43.48233" lon="6.17738">
        <ele>141</ele>
        <time>2021-08-27T13:30:49Z</time>
      </trkpt>
      <trkpt lat="43.48228" lon="6.17598">
        <ele>142</ele>
        <time>2021-08-27T13:31:07Z</time>
      </trkpt>
      <trkpt lat="43.48225" lon="6.17577">
        <ele>142</ele>
        <time>2021-08-27T13:31:10Z</time>
      </trkpt>
      <trkpt lat="43.48221" lon="6.17566">
        <ele>141</ele>
        <time>2021-08-27T13:31:12Z</time>
      </trkpt>
      <trkpt lat="43.48204" lon="6.17544">
        <ele>139</ele>
        <time>2021-08-27T13:31:16Z</time>
      </trkpt>
      <trkpt lat="43.48176" lon="6.17505">
        <ele>138</ele>
        <time>2021-08-27T13:31:23Z</time>
      </trkpt>
      <trkpt lat="43.48164" lon="6.17487">
        <ele>139</ele>
        <time>2021-08-27T13:31:26Z</time>
      </trkpt>
      <trkpt lat="43.4815" lon="6.17473">
        <ele>139</ele>
        <time>2021-08-27T13:31:29Z</time>
      </trkpt>
      <trkpt lat="43.48112" lon="6.17441">
        <ele>139</ele>
        <time>2021-08-27T13:31:37Z</time>
      </trkpt>
      <trkpt lat="43.48098" lon="6.17426">
        <ele>138</ele>
        <time>2021-08-27T13:31:40Z</time>
      </trkpt>
      <trkpt lat="43.48089" lon="6.1741">
        <ele>137</ele>
        <time>2021-08-27T13:31:43Z</time>
      </trkpt>
      <trkpt lat="43.48004" lon="6.17064">
        <ele>134</ele>
        <time>2021-08-27T13:32:30Z</time>
      </trkpt>
      <trkpt lat="43.47994" lon="6.17012">
        <ele>136</ele>
        <time>2021-08-27T13:32:37Z</time>
      </trkpt>
      <trkpt lat="43.47989" lon="6.16972">
        <ele>136</ele>
        <time>2021-08-27T13:32:42Z</time>
      </trkpt>
      <trkpt lat="43.47967" lon="6.16738">
        <ele>137</ele>
        <time>2021-08-27T13:33:13Z</time>
      </trkpt>
      <trkpt lat="43.47966" lon="6.16697">
        <ele>138</ele>
        <time>2021-08-27T13:33:18Z</time>
      </trkpt>
      <trkpt lat="43.47978" lon="6.16546">
        <ele>140</ele>
        <time>2021-08-27T13:33:38Z</time>
      </trkpt>
      <trkpt lat="43.47979" lon="6.16522">
        <ele>140</ele>
        <time>2021-08-27T13:33:41Z</time>
      </trkpt>
      <trkpt lat="43.47976" lon="6.16493">
        <ele>141</ele>
        <time>2021-08-27T13:33:44Z</time>
      </trkpt>
      <trkpt lat="43.47951" lon="6.16375">
        <ele>141</ele>
        <time>2021-08-27T13:34:00Z</time>
      </trkpt>
      <trkpt lat="43.47936" lon="6.16276">
        <ele>142</ele>
        <time>2021-08-27T13:34:13Z</time>
      </trkpt>
      <trkpt lat="43.47921" lon="6.16138">
        <ele>140</ele>
        <time>2021-08-27T13:34:31Z</time>
      </trkpt>
      <trkpt lat="43.47909" lon="6.16053">
        <ele>141</ele>
        <time>2021-08-27T13:34:43Z</time>
      </trkpt>
      <trkpt lat="43.47868" lon="6.15675">
        <ele>149</ele>
        <time>2021-08-27T13:35:32Z</time>
      </trkpt>
      <trkpt lat="43.47842" lon="6.15377">
        <ele>149</ele>
        <time>2021-08-27T13:36:11Z</time>
      </trkpt>
      <trkpt lat="43.47811" lon="6.15134">
        <ele>146</ele>
        <time>2021-08-27T13:36:42Z</time>
      </trkpt>
      <trkpt lat="43.47756" lon="6.14657">
        <ele>148</ele>
        <time>2021-08-27T13:37:45Z</time>
      </trkpt>
      <trkpt lat="43.47753" lon="6.14627">
        <ele>147</ele>
        <time>2021-08-27T13:37:49Z</time>
      </trkpt>
      <trkpt lat="43.47723" lon="6.1436">
        <ele>148</ele>
        <time>2021-08-27T13:38:24Z</time>
      </trkpt>
      <trkpt lat="43.47711" lon="6.143">
        <ele>149</ele>
        <time>2021-08-27T13:38:32Z</time>
      </trkpt>
      <trkpt lat="43.477" lon="6.14209">
        <ele>150</ele>
        <time>2021-08-27T13:38:44Z</time>
      </trkpt>
      <trkpt lat="43.47689" lon="6.14143">
        <ele>150</ele>
        <time>2021-08-27T13:38:52Z</time>
      </trkpt>
      <trkpt lat="43.47687" lon="6.14115">
        <ele>151</ele>
        <time>2021-08-27T13:38:56Z</time>
      </trkpt>
      <trkpt lat="43.47686" lon="6.14062">
        <ele>151</ele>
        <time>2021-08-27T13:39:03Z</time>
      </trkpt>
      <trkpt lat="43.47665" lon="6.13888">
        <ele>152</ele>
        <time>2021-08-27T13:39:26Z</time>
      </trkpt>
      <trkpt lat="43.47646" lon="6.13703">
        <ele>156</ele>
        <time>2021-08-27T13:39:50Z</time>
      </trkpt>
      <trkpt lat="43.47655" lon="6.13673">
        <ele>159</ele>
        <time>2021-08-27T13:39:54Z</time>
      </trkpt>
      <trkpt lat="43.47665" lon="6.13653">
        <ele>160</ele>
        <time>2021-08-27T13:39:57Z</time>
      </trkpt>
      <trkpt lat="43.47646" lon="6.13629">
        <ele>160</ele>
        <time>2021-08-27T13:40:02Z</time>
      </trkpt>
      <trkpt lat="43.47634" lon="6.13607">
        <ele>159</ele>
        <time>2021-08-27T13:40:05Z</time>
      </trkpt>
      <trkpt lat="43.47612" lon="6.13558">
        <ele>158</ele>
        <time>2021-08-27T13:40:13Z</time>
      </trkpt>
      <trkpt lat="43.47599" lon="6.13526">
        <ele>158</ele>
        <time>2021-08-27T13:40:17Z</time>
      </trkpt>
      <trkpt lat="43.47595" lon="6.13512">
        <ele>157</ele>
        <time>2021-08-27T13:40:19Z</time>
      </trkpt>
      <trkpt lat="43.47592" lon="6.13494">
        <ele>157</ele>
        <time>2021-08-27T13:40:22Z</time>
      </trkpt>
      <trkpt lat="43.47592" lon="6.13478">
        <ele>158</ele>
        <time>2021-08-27T13:40:24Z</time>
      </trkpt>
      <trkpt lat="43.47596" lon="6.13453">
        <ele>158</ele>
        <time>2021-08-27T13:40:27Z</time>
      </trkpt>
      <trkpt lat="43.47604" lon="6.1342">
        <ele>160</ele>
        <time>2021-08-27T13:40:32Z</time>
      </trkpt>
      <trkpt lat="43.47637" lon="6.13319">
        <ele>163</ele>
        <time>2021-08-27T13:40:46Z</time>
      </trkpt>
      <trkpt lat="43.4764" lon="6.13305">
        <ele>163</ele>
        <time>2021-08-27T13:40:48Z</time>
      </trkpt>
      <trkpt lat="43.4764" lon="6.13289">
        <ele>164</ele>
        <time>2021-08-27T13:40:50Z</time>
      </trkpt>
      <trkpt lat="43.47624" lon="6.13214">
        <ele>164</ele>
        <time>2021-08-27T13:41:00Z</time>
      </trkpt>
      <trkpt lat="43.47612" lon="6.13146">
        <ele>162</ele>
        <time>2021-08-27T13:41:09Z</time>
      </trkpt>
      <trkpt lat="43.47603" lon="6.13124">
        <ele>161</ele>
        <time>2021-08-27T13:41:12Z</time>
      </trkpt>
      <trkpt lat="43.47595" lon="6.13112">
        <ele>160</ele>
        <time>2021-08-27T13:41:14Z</time>
      </trkpt>
      <trkpt lat="43.47585" lon="6.13103">
        <ele>158</ele>
        <time>2021-08-27T13:41:16Z</time>
      </trkpt>
      <trkpt lat="43.47555" lon="6.13083">
        <ele>156</ele>
        <time>2021-08-27T13:41:22Z</time>
      </trkpt>
      <trkpt lat="43.47544" lon="6.13078">
        <ele>155</ele>
        <time>2021-08-27T13:41:24Z</time>
      </trkpt>
      <trkpt lat="43.47447" lon="6.13062">
        <ele>151</ele>
        <time>2021-08-27T13:41:42Z</time>
      </trkpt>
      <trkpt lat="43.47424" lon="6.13056">
        <ele>152</ele>
        <time>2021-08-27T13:41:46Z</time>
      </trkpt>
      <trkpt lat="43.47412" lon="6.13051">
        <ele>152</ele>
        <time>2021-08-27T13:41:48Z</time>
      </trkpt>
      <trkpt lat="43.47394" lon="6.13032">
        <ele>152</ele>
        <time>2021-08-27T13:41:52Z</time>
      </trkpt>
      <trkpt lat="43.47371" lon="6.12996">
        <ele>152</ele>
        <time>2021-08-27T13:41:58Z</time>
      </trkpt>
      <trkpt lat="43.47299" lon="6.1287">
        <ele>146</ele>
        <time>2021-08-27T13:42:19Z</time>
      </trkpt>
      <trkpt lat="43.47287" lon="6.12841">
        <ele>145</ele>
        <time>2021-08-27T13:42:23Z</time>
      </trkpt>
      <trkpt lat="43.4727" lon="6.12752">
        <ele>144</ele>
        <time>2021-08-27T13:42:35Z</time>
      </trkpt>
      <trkpt lat="43.47253" lon="6.12649">
        <ele>144</ele>
        <time>2021-08-27T13:42:49Z</time>
      </trkpt>
      <trkpt lat="43.47243" lon="6.12597">
        <ele>143</ele>
        <time>2021-08-27T13:42:56Z</time>
      </trkpt>
      <trkpt lat="43.47237" lon="6.12542">
        <ele>143</ele>
        <time>2021-08-27T13:43:03Z</time>
      </trkpt>
      <trkpt lat="43.47233" lon="6.12529">
        <ele>143</ele>
        <time>2021-08-27T13:43:05Z</time>
      </trkpt>
      <trkpt lat="43.47236" lon="6.12523">
        <ele>143</ele>
        <time>2021-08-27T13:43:06Z</time>
      </trkpt>
      <trkpt lat="43.47237" lon="6.12514">
        <ele>144</ele>
        <time>2021-08-27T13:43:07Z</time>
      </trkpt>
      <trkpt lat="43.47244" lon="6.12289">
        <ele>147</ele>
        <time>2021-08-27T13:43:36Z</time>
      </trkpt>
      <trkpt lat="43.47247" lon="6.12252">
        <ele>148</ele>
        <time>2021-08-27T13:43:41Z</time>
      </trkpt>
      <trkpt lat="43.47252" lon="6.12245">
        <ele>148</ele>
        <time>2021-08-27T13:43:42Z</time>
      </trkpt>
      <trkpt lat="43.47258" lon="6.1224">
        <ele>148</ele>
        <time>2021-08-27T13:43:43Z</time>
      </trkpt>
      <trkpt lat="43.47301" lon="6.12217">
        <ele>151</ele>
        <time>2021-08-27T13:43:52Z</time>
      </trkpt>
      <trkpt lat="43.47326" lon="6.12207">
        <ele>152</ele>
        <time>2021-08-27T13:43:56Z</time>
      </trkpt>
      <trkpt lat="43.47352" lon="6.12202">
        <ele>154</ele>
        <time>2021-08-27T13:44:01Z</time>
      </trkpt>
      <trkpt lat="43.474" lon="6.12187">
        <ele>160</ele>
        <time>2021-08-27T13:44:10Z</time>
      </trkpt>
      <trkpt lat="43.474" lon="6.12187">
        <ele>160</ele>
        <time>2021-08-27T13:44:10Z</time>
      </trkpt>
      <trkpt lat="43.47399" lon="6.12175">
        <ele>160</ele>
        <time>2021-08-27T13:44:11Z</time>
      </trkpt>
      <trkpt lat="43.47391" lon="6.12139">
        <ele>160</ele>
        <time>2021-08-27T13:44:16Z</time>
      </trkpt>
      <trkpt lat="43.47374" lon="6.12067">
        <ele>159</ele>
        <time>2021-08-27T13:44:26Z</time>
      </trkpt>
      <trkpt lat="43.47369" lon="6.12053">
        <ele>159</ele>
        <time>2021-08-27T13:44:28Z</time>
      </trkpt>
      <trkpt lat="43.47316" lon="6.12002">
        <ele>152</ele>
        <time>2021-08-27T13:44:39Z</time>
      </trkpt>
      <trkpt lat="43.47305" lon="6.11989">
        <ele>152</ele>
        <time>2021-08-27T13:44:42Z</time>
      </trkpt>
      <trkpt lat="43.47298" lon="6.11969">
        <ele>152</ele>
        <time>2021-08-27T13:44:45Z</time>
      </trkpt>
      <trkpt lat="43.47296" lon="6.11959">
        <ele>153</ele>
        <time>2021-08-27T13:44:46Z</time>
      </trkpt>
      <trkpt lat="43.47296" lon="6.11897">
        <ele>157</ele>
        <time>2021-08-27T13:44:54Z</time>
      </trkpt>
      <trkpt lat="43.47289" lon="6.11871">
        <ele>158</ele>
        <time>2021-08-27T13:44:58Z</time>
      </trkpt>
      <trkpt lat="43.4728" lon="6.11857">
        <ele>158</ele>
        <time>2021-08-27T13:45:00Z</time>
      </trkpt>
      <trkpt lat="43.47269" lon="6.11846">
        <ele>158</ele>
        <time>2021-08-27T13:45:03Z</time>
      </trkpt>
      <trkpt lat="43.4723" lon="6.11823">
        <ele>154</ele>
        <time>2021-08-27T13:45:10Z</time>
      </trkpt>
      <trkpt lat="43.47222" lon="6.11813">
        <ele>154</ele>
        <time>2021-08-27T13:45:12Z</time>
      </trkpt>
      <trkpt lat="43.47178" lon="6.117">
        <ele>151</ele>
        <time>2021-08-27T13:45:29Z</time>
      </trkpt>
      <trkpt lat="43.47171" lon="6.11675">
        <ele>150</ele>
        <time>2021-08-27T13:45:32Z</time>
      </trkpt>
      <trkpt lat="43.47164" lon="6.11644">
        <ele>151</ele>
        <time>2021-08-27T13:45:36Z</time>
      </trkpt>
      <trkpt lat="43.47163" lon="6.11625">
        <ele>152</ele>
        <time>2021-08-27T13:45:39Z</time>
      </trkpt>
      <trkpt lat="43.47169" lon="6.11546">
        <ele>155</ele>
        <time>2021-08-27T13:45:49Z</time>
      </trkpt>
      <trkpt lat="43.47169" lon="6.11529">
        <ele>155</ele>
        <time>2021-08-27T13:45:51Z</time>
      </trkpt>
      <trkpt lat="43.47167" lon="6.11493">
        <ele>155</ele>
        <time>2021-08-27T13:45:56Z</time>
      </trkpt>
      <trkpt lat="43.47161" lon="6.11482">
        <ele>154</ele>
        <time>2021-08-27T13:45:58Z</time>
      </trkpt>
      <trkpt lat="43.47155" lon="6.11477">
        <ele>154</ele>
        <time>2021-08-27T13:45:59Z</time>
      </trkpt>
      <trkpt lat="43.47121" lon="6.11473">
        <ele>151</ele>
        <time>2021-08-27T13:46:05Z</time>
      </trkpt>
      <trkpt lat="43.47098" lon="6.11468">
        <ele>148</ele>
        <time>2021-08-27T13:46:09Z</time>
      </trkpt>
      <trkpt lat="43.47089" lon="6.11461">
        <ele>148</ele>
        <time>2021-08-27T13:46:11Z</time>
      </trkpt>
      <trkpt lat="43.47079" lon="6.11461">
        <ele>147</ele>
        <time>2021-08-27T13:46:13Z</time>
      </trkpt>
      <trkpt lat="43.47066" lon="6.11468">
        <ele>147</ele>
        <time>2021-08-27T13:46:15Z</time>
      </trkpt>
      <trkpt lat="43.47041" lon="6.11447">
        <ele>146</ele>
        <time>2021-08-27T13:46:20Z</time>
      </trkpt>
      <trkpt lat="43.47019" lon="6.11434">
        <ele>145</ele>
        <time>2021-08-27T13:46:25Z</time>
      </trkpt>
      <trkpt lat="43.47005" lon="6.11428">
        <ele>144</ele>
        <time>2021-08-27T13:46:27Z</time>
      </trkpt>
      <trkpt lat="43.46977" lon="6.11423">
        <ele>145</ele>
        <time>2021-08-27T13:46:32Z</time>
      </trkpt>
      <trkpt lat="43.46964" lon="6.11423">
        <ele>145</ele>
        <time>2021-08-27T13:46:35Z</time>
      </trkpt>
      <trkpt lat="43.46935" lon="6.11427">
        <ele>146</ele>
        <time>2021-08-27T13:46:40Z</time>
      </trkpt>
      <trkpt lat="43.46761" lon="6.11435">
        <ele>143</ele>
        <time>2021-08-27T13:47:11Z</time>
      </trkpt>
      <trkpt lat="43.46738" lon="6.1143">
        <ele>144</ele>
        <time>2021-08-27T13:47:15Z</time>
      </trkpt>
      <trkpt lat="43.46724" lon="6.11417">
        <ele>144</ele>
        <time>2021-08-27T13:47:18Z</time>
      </trkpt>
      <trkpt lat="43.46704" lon="6.11381">
        <ele>145</ele>
        <time>2021-08-27T13:47:24Z</time>
      </trkpt>
      <trkpt lat="43.46673" lon="6.11328">
        <ele>146</ele>
        <time>2021-08-27T13:47:33Z</time>
      </trkpt>
      <trkpt lat="43.46649" lon="6.11295">
        <ele>146</ele>
        <time>2021-08-27T13:47:39Z</time>
      </trkpt>
      <trkpt lat="43.4655" lon="6.11178">
        <ele>147</ele>
        <time>2021-08-27T13:48:02Z</time>
      </trkpt>
      <trkpt lat="43.46563" lon="6.11137">
        <ele>148</ele>
        <time>2021-08-27T13:48:08Z</time>
      </trkpt>
      <trkpt lat="43.46693" lon="6.10919">
        <ele>150</ele>
        <time>2021-08-27T13:48:44Z</time>
      </trkpt>
      <trkpt lat="43.46709" lon="6.10887">
        <ele>151</ele>
        <time>2021-08-27T13:48:49Z</time>
      </trkpt>
      <trkpt lat="43.46715" lon="6.10871">
        <ele>151</ele>
        <time>2021-08-27T13:48:51Z</time>
      </trkpt>
      <trkpt lat="43.46718" lon="6.10851">
        <ele>152</ele>
        <time>2021-08-27T13:48:54Z</time>
      </trkpt>
      <trkpt lat="43.46717" lon="6.10829">
        <ele>152</ele>
        <time>2021-08-27T13:48:57Z</time>
      </trkpt>
      <trkpt lat="43.46704" lon="6.10681">
        <ele>154</ele>
        <time>2021-08-27T13:49:16Z</time>
      </trkpt>
      <trkpt lat="43.46701" lon="6.10562">
        <ele>158</ele>
        <time>2021-08-27T13:49:31Z</time>
      </trkpt>
      <trkpt lat="43.46703" lon="6.10524">
        <ele>161</ele>
        <time>2021-08-27T13:49:36Z</time>
      </trkpt>
      <trkpt lat="43.4672" lon="6.10459">
        <ele>161</ele>
        <time>2021-08-27T13:49:45Z</time>
      </trkpt>
      <trkpt lat="43.46731" lon="6.10396">
        <ele>162</ele>
        <time>2021-08-27T13:49:54Z</time>
      </trkpt>
      <trkpt lat="43.46742" lon="6.10301">
        <ele>162</ele>
        <time>2021-08-27T13:50:06Z</time>
      </trkpt>
      <trkpt lat="43.46737" lon="6.10246">
        <ele>162</ele>
        <time>2021-08-27T13:50:13Z</time>
      </trkpt>
      <trkpt lat="43.46738" lon="6.10212">
        <ele>163</ele>
        <time>2021-08-27T13:50:18Z</time>
      </trkpt>
      <trkpt lat="43.46746" lon="6.10167">
        <ele>162</ele>
        <time>2021-08-27T13:50:24Z</time>
      </trkpt>
      <trkpt lat="43.4678" lon="6.10039">
        <ele>170</ele>
        <time>2021-08-27T13:50:41Z</time>
      </trkpt>
      <trkpt lat="43.46796" lon="6.09994">
        <ele>170</ele>
        <time>2021-08-27T13:50:48Z</time>
      </trkpt>
      <trkpt lat="43.46806" lon="6.09972">
        <ele>169</ele>
        <time>2021-08-27T13:50:51Z</time>
      </trkpt>
      <trkpt lat="43.46818" lon="6.09952">
        <ele>168</ele>
        <time>2021-08-27T13:50:54Z</time>
      </trkpt>
      <trkpt lat="43.46861" lon="6.09892">
        <ele>168</ele>
        <time>2021-08-27T13:51:05Z</time>
      </trkpt>
      <trkpt lat="43.46877" lon="6.09874">
        <ele>168</ele>
        <time>2021-08-27T13:51:09Z</time>
      </trkpt>
      <trkpt lat="43.46891" lon="6.09863">
        <ele>167</ele>
        <time>2021-08-27T13:51:12Z</time>
      </trkpt>
      <trkpt lat="43.46914" lon="6.09851">
        <ele>164</ele>
        <time>2021-08-27T13:51:16Z</time>
      </trkpt>
      <trkpt lat="43.46923" lon="6.09845">
        <ele>164</ele>
        <time>2021-08-27T13:51:18Z</time>
      </trkpt>
      <trkpt lat="43.46957" lon="6.09814">
        <ele>167</ele>
        <time>2021-08-27T13:51:25Z</time>
      </trkpt>
      <trkpt lat="43.46973" lon="6.09803">
        <ele>167</ele>
        <time>2021-08-27T13:51:28Z</time>
      </trkpt>
      <trkpt lat="43.47031" lon="6.09782">
        <ele>171</ele>
        <time>2021-08-27T13:51:39Z</time>
      </trkpt>
      <trkpt lat="43.47048" lon="6.09779">
        <ele>172</ele>
        <time>2021-08-27T13:51:42Z</time>
      </trkpt>
      <trkpt lat="43.47087" lon="6.09785">
        <ele>174</ele>
        <time>2021-08-27T13:51:49Z</time>
      </trkpt>
      <trkpt lat="43.47125" lon="6.09783">
        <ele>172</ele>
        <time>2021-08-27T13:51:56Z</time>
      </trkpt>
      <trkpt lat="43.47139" lon="6.09779">
        <ele>173</ele>
        <time>2021-08-27T13:51:58Z</time>
      </trkpt>
      <trkpt lat="43.47162" lon="6.09769">
        <ele>174</ele>
        <time>2021-08-27T13:52:03Z</time>
      </trkpt>
      <trkpt lat="43.47309" lon="6.09698">
        <ele>180</ele>
        <time>2021-08-27T13:52:30Z</time>
      </trkpt>
      <trkpt lat="43.47348" lon="6.09672">
        <ele>179</ele>
        <time>2021-08-27T13:52:38Z</time>
      </trkpt>
      <trkpt lat="43.47373" lon="6.09648">
        <ele>181</ele>
        <time>2021-08-27T13:52:44Z</time>
      </trkpt>
      <trkpt lat="43.47467" lon="6.09565">
        <ele>179</ele>
        <time>2021-08-27T13:53:03Z</time>
      </trkpt>
      <trkpt lat="43.47477" lon="6.09558">
        <ele>178</ele>
        <time>2021-08-27T13:53:05Z</time>
      </trkpt>
      <trkpt lat="43.47536" lon="6.09536">
        <ele>171</ele>
        <time>2021-08-27T13:53:16Z</time>
      </trkpt>
      <trkpt lat="43.47546" lon="6.0953">
        <ele>170</ele>
        <time>2021-08-27T13:53:18Z</time>
      </trkpt>
      <trkpt lat="43.47553" lon="6.09522">
        <ele>169</ele>
        <time>2021-08-27T13:53:20Z</time>
      </trkpt>
      <trkpt lat="43.4756" lon="6.0951">
        <ele>169</ele>
        <time>2021-08-27T13:53:22Z</time>
      </trkpt>
      <trkpt lat="43.47591" lon="6.09429">
        <ele>166</ele>
        <time>2021-08-27T13:53:34Z</time>
      </trkpt>
      <trkpt lat="43.47596" lon="6.09403">
        <ele>167</ele>
        <time>2021-08-27T13:53:37Z</time>
      </trkpt>
      <trkpt lat="43.476" lon="6.09345">
        <ele>171</ele>
        <time>2021-08-27T13:53:45Z</time>
      </trkpt>
      <trkpt lat="43.47603" lon="6.09332">
        <ele>172</ele>
        <time>2021-08-27T13:53:46Z</time>
      </trkpt>
      <trkpt lat="43.47609" lon="6.09321">
        <ele>171</ele>
        <time>2021-08-27T13:53:48Z</time>
      </trkpt>
      <trkpt lat="43.47622" lon="6.09306">
        <ele>170</ele>
        <time>2021-08-27T13:53:51Z</time>
      </trkpt>
      <trkpt lat="43.47641" lon="6.09291">
        <ele>169</ele>
        <time>2021-08-27T13:53:55Z</time>
      </trkpt>
      <trkpt lat="43.47686" lon="6.09264">
        <ele>169</ele>
        <time>2021-08-27T13:54:04Z</time>
      </trkpt>
      <trkpt lat="43.47725" lon="6.09251">
        <ele>172</ele>
        <time>2021-08-27T13:54:11Z</time>
      </trkpt>
      <trkpt lat="43.47736" lon="6.09246">
        <ele>173</ele>
        <time>2021-08-27T13:54:13Z</time>
      </trkpt>
      <trkpt lat="43.47788" lon="6.09205">
        <ele>180</ele>
        <time>2021-08-27T13:54:24Z</time>
      </trkpt>
      <trkpt lat="43.47807" lon="6.09199">
        <ele>181</ele>
        <time>2021-08-27T13:54:27Z</time>
      </trkpt>
      <trkpt lat="43.47857" lon="6.09186">
        <ele>181</ele>
        <time>2021-08-27T13:54:36Z</time>
      </trkpt>
      <trkpt lat="43.47876" lon="6.09177">
        <ele>180</ele>
        <time>2021-08-27T13:54:40Z</time>
      </trkpt>
      <trkpt lat="43.47891" lon="6.09162">
        <ele>179</ele>
        <time>2021-08-27T13:54:43Z</time>
      </trkpt>
      <trkpt lat="43.47897" lon="6.09149">
        <ele>180</ele>
        <time>2021-08-27T13:54:45Z</time>
      </trkpt>
      <trkpt lat="43.47902" lon="6.09126">
        <ele>180</ele>
        <time>2021-08-27T13:54:48Z</time>
      </trkpt>
      <trkpt lat="43.47904" lon="6.0911">
        <ele>180</ele>
        <time>2021-08-27T13:54:50Z</time>
      </trkpt>
      <trkpt lat="43.47905" lon="6.08955">
        <ele>175</ele>
        <time>2021-08-27T13:55:10Z</time>
      </trkpt>
      <trkpt lat="43.4789" lon="6.08735">
        <ele>177</ele>
        <time>2021-08-27T13:55:39Z</time>
      </trkpt>
      <trkpt lat="43.47892" lon="6.08687">
        <ele>173</ele>
        <time>2021-08-27T13:55:45Z</time>
      </trkpt>
      <trkpt lat="43.47897" lon="6.0867">
        <ele>170</ele>
        <time>2021-08-27T13:55:47Z</time>
      </trkpt>
      <trkpt lat="43.47964" lon="6.08515">
        <ele>163</ele>
        <time>2021-08-27T13:56:11Z</time>
      </trkpt>
      <trkpt lat="43.47972" lon="6.08494">
        <ele>163</ele>
        <time>2021-08-27T13:56:14Z</time>
      </trkpt>
      <trkpt lat="43.47978" lon="6.08476">
        <ele>163</ele>
        <time>2021-08-27T13:56:16Z</time>
      </trkpt>
      <trkpt lat="43.47998" lon="6.0839">
        <ele>161</ele>
        <time>2021-08-27T13:56:28Z</time>
      </trkpt>
      <trkpt lat="43.4805" lon="6.08244">
        <ele>162</ele>
        <time>2021-08-27T13:56:49Z</time>
      </trkpt>
      <trkpt lat="43.48058" lon="6.08224">
        <ele>162</ele>
        <time>2021-08-27T13:56:52Z</time>
      </trkpt>
      <trkpt lat="43.48074" lon="6.08204">
        <ele>160</ele>
        <time>2021-08-27T13:56:56Z</time>
      </trkpt>
      <trkpt lat="43.48125" lon="6.08158">
        <ele>158</ele>
        <time>2021-08-27T13:57:07Z</time>
      </trkpt>
      <trkpt lat="43.48216" lon="6.08102">
        <ele>159</ele>
        <time>2021-08-27T13:57:24Z</time>
      </trkpt>
      <trkpt lat="43.48246" lon="6.08073">
        <ele>161</ele>
        <time>2021-08-27T13:57:31Z</time>
      </trkpt>
      <trkpt lat="43.48263" lon="6.08054">
        <ele>162</ele>
        <time>2021-08-27T13:57:35Z</time>
      </trkpt>
      <trkpt lat="43.48275" lon="6.0805">
        <ele>162</ele>
        <time>2021-08-27T13:57:37Z</time>
      </trkpt>
      <trkpt lat="43.48295" lon="6.08048">
        <ele>162</ele>
        <time>2021-08-27T13:57:41Z</time>
      </trkpt>
      <trkpt lat="43.48306" lon="6.08051">
        <ele>162</ele>
        <time>2021-08-27T13:57:43Z</time>
      </trkpt>
      <trkpt lat="43.4837" lon="6.0808">
        <ele>161</ele>
        <time>2021-08-27T13:57:55Z</time>
      </trkpt>
      <trkpt lat="43.48392" lon="6.08084">
        <ele>161</ele>
        <time>2021-08-27T13:57:58Z</time>
      </trkpt>
      <trkpt lat="43.48552" lon="6.08077">
        <ele>165</ele>
        <time>2021-08-27T13:58:27Z</time>
      </trkpt>
      <trkpt lat="43.48586" lon="6.08067">
        <ele>165</ele>
        <time>2021-08-27T13:58:33Z</time>
      </trkpt>
      <trkpt lat="43.48607" lon="6.08049">
        <ele>166</ele>
        <time>2021-08-27T13:58:38Z</time>
      </trkpt>
      <trkpt lat="43.48615" lon="6.08038">
        <ele>166</ele>
        <time>2021-08-27T13:58:40Z</time>
      </trkpt>
      <trkpt lat="43.48623" lon="6.08033">
        <ele>166</ele>
        <time>2021-08-27T13:58:41Z</time>
      </trkpt>
      <trkpt lat="43.48649" lon="6.08023">
        <ele>166</ele>
        <time>2021-08-27T13:58:46Z</time>
      </trkpt>
      <trkpt lat="43.48671" lon="6.08017">
        <ele>166</ele>
        <time>2021-08-27T13:58:50Z</time>
      </trkpt>
      <trkpt lat="43.4871" lon="6.08021">
        <ele>168</ele>
        <time>2021-08-27T13:58:57Z</time>
      </trkpt>
      <trkpt lat="43.48709" lon="6.08033">
        <ele>168</ele>
        <time>2021-08-27T13:58:58Z</time>
      </trkpt>
      <trkpt lat="43.48714" lon="6.08063">
        <ele>167</ele>
        <time>2021-08-27T13:59:02Z</time>
      </trkpt>
      <trkpt lat="43.48719" lon="6.08076">
        <ele>167</ele>
        <time>2021-08-27T13:59:04Z</time>
      </trkpt>
      <trkpt lat="43.48748" lon="6.08112">
        <ele>167</ele>
        <time>2021-08-27T13:59:11Z</time>
      </trkpt>
      <trkpt lat="43.4876" lon="6.08113">
        <ele>167</ele>
        <time>2021-08-27T13:59:13Z</time>
      </trkpt>
      <trkpt lat="43.48775" lon="6.08133">
        <ele>166</ele>
        <time>2021-08-27T13:59:17Z</time>
      </trkpt>
      <trkpt lat="43.48791" lon="6.08154">
        <ele>166</ele>
        <time>2021-08-27T13:59:21Z</time>
      </trkpt>
      <trkpt lat="43.48799" lon="6.08164">
        <ele>165</ele>
        <time>2021-08-27T13:59:23Z</time>
      </trkpt>
      <trkpt lat="43.48938" lon="6.08113">
        <ele>163</ele>
        <time>2021-08-27T13:59:49Z</time>
      </trkpt>
      <trkpt lat="43.48949" lon="6.08109">
        <ele>163</ele>
        <time>2021-08-27T13:59:51Z</time>
      </trkpt>
      <trkpt lat="43.48986" lon="6.08093">
        <ele>163</ele>
        <time>2021-08-27T13:59:57Z</time>
      </trkpt>
      <trkpt lat="43.49" lon="6.08091">
        <ele>163</ele>
        <time>2021-08-27T14:00:00Z</time>
      </trkpt>
      <trkpt lat="43.4903" lon="6.08091">
        <ele>163</ele>
        <time>2021-08-27T14:00:05Z</time>
      </trkpt>
      <trkpt lat="43.49066" lon="6.08094">
        <ele>164</ele>
        <time>2021-08-27T14:00:12Z</time>
      </trkpt>
      <trkpt lat="43.49087" lon="6.08098">
        <ele>164</ele>
        <time>2021-08-27T14:00:16Z</time>
      </trkpt>
      <trkpt lat="43.49165" lon="6.08096">
        <ele>165</ele>
        <time>2021-08-27T14:00:29Z</time>
      </trkpt>
      <trkpt lat="43.4918" lon="6.08092">
        <ele>165</ele>
        <time>2021-08-27T14:00:32Z</time>
      </trkpt>
      <trkpt lat="43.49203" lon="6.08077">
        <ele>165</ele>
        <time>2021-08-27T14:00:37Z</time>
      </trkpt>
      <trkpt lat="43.49226" lon="6.08052">
        <ele>165</ele>
        <time>2021-08-27T14:00:42Z</time>
      </trkpt>
      <trkpt lat="43.49275" lon="6.07991">
        <ele>165</ele>
        <time>2021-08-27T14:00:54Z</time>
      </trkpt>
      <trkpt lat="43.49327" lon="6.0792">
        <ele>165</ele>
        <time>2021-08-27T14:01:07Z</time>
      </trkpt>
      <trkpt lat="43.49386" lon="6.07833">
        <ele>165</ele>
        <time>2021-08-27T14:01:22Z</time>
      </trkpt>
      <trkpt lat="43.49413" lon="6.07788">
        <ele>165</ele>
        <time>2021-08-27T14:01:30Z</time>
      </trkpt>
      <trkpt lat="43.49425" lon="6.07764">
        <ele>165</ele>
        <time>2021-08-27T14:01:33Z</time>
      </trkpt>
      <trkpt lat="43.49436" lon="6.07738">
        <ele>165</ele>
        <time>2021-08-27T14:01:37Z</time>
      </trkpt>
      <trkpt lat="43.49527" lon="6.07493">
        <ele>165</ele>
        <time>2021-08-27T14:02:13Z</time>
      </trkpt>
      <trkpt lat="43.49534" lon="6.07476">
        <ele>165</ele>
        <time>2021-08-27T14:02:15Z</time>
      </trkpt>
      <trkpt lat="43.49543" lon="6.07463">
        <ele>164</ele>
        <time>2021-08-27T14:02:18Z</time>
      </trkpt>
      <trkpt lat="43.49572" lon="6.0743">
        <ele>163</ele>
        <time>2021-08-27T14:02:24Z</time>
      </trkpt>
      <trkpt lat="43.49581" lon="6.07413">
        <ele>163</ele>
        <time>2021-08-27T14:02:27Z</time>
      </trkpt>
      <trkpt lat="43.49586" lon="6.07398">
        <ele>163</ele>
        <time>2021-08-27T14:02:29Z</time>
      </trkpt>
      <trkpt lat="43.49588" lon="6.07382">
        <ele>163</ele>
        <time>2021-08-27T14:02:31Z</time>
      </trkpt>
      <trkpt lat="43.49585" lon="6.07335">
        <ele>162</ele>
        <time>2021-08-27T14:02:37Z</time>
      </trkpt>
      <trkpt lat="43.49587" lon="6.07321">
        <ele>163</ele>
        <time>2021-08-27T14:02:39Z</time>
      </trkpt>
      <trkpt lat="43.49591" lon="6.07306">
        <ele>164</ele>
        <time>2021-08-27T14:02:41Z</time>
      </trkpt>
      <trkpt lat="43.49598" lon="6.07293">
        <ele>164</ele>
        <time>2021-08-27T14:02:43Z</time>
      </trkpt>
      <trkpt lat="43.49607" lon="6.07281">
        <ele>165</ele>
        <time>2021-08-27T14:02:45Z</time>
      </trkpt>
      <trkpt lat="43.49687" lon="6.07207">
        <ele>164</ele>
        <time>2021-08-27T14:03:03Z</time>
      </trkpt>
      <trkpt lat="43.4971" lon="6.0718">
        <ele>164</ele>
        <time>2021-08-27T14:03:08Z</time>
      </trkpt>
      <trkpt lat="43.49729" lon="6.07146">
        <ele>164</ele>
        <time>2021-08-27T14:03:14Z</time>
      </trkpt>
      <trkpt lat="43.49745" lon="6.07106">
        <ele>165</ele>
        <time>2021-08-27T14:03:19Z</time>
      </trkpt>
      <trkpt lat="43.4975" lon="6.07061">
        <ele>165</ele>
        <time>2021-08-27T14:03:25Z</time>
      </trkpt>
      <trkpt lat="43.49766" lon="6.06745">
        <ele>170</ele>
        <time>2021-08-27T14:04:06Z</time>
      </trkpt>
      <trkpt lat="43.49764" lon="6.06688">
        <ele>169</ele>
        <time>2021-08-27T14:04:14Z</time>
      </trkpt>
      <trkpt lat="43.4975" lon="6.06605">
        <ele>168</ele>
        <time>2021-08-27T14:04:25Z</time>
      </trkpt>
      <trkpt lat="43.49749" lon="6.06592">
        <ele>169</ele>
        <time>2021-08-27T14:04:26Z</time>
      </trkpt>
      <trkpt lat="43.49741" lon="6.06498">
        <ele>173</ele>
        <time>2021-08-27T14:04:38Z</time>
      </trkpt>
      <trkpt lat="43.49737" lon="6.06476">
        <ele>174</ele>
        <time>2021-08-27T14:04:41Z</time>
      </trkpt>
      <trkpt lat="43.49724" lon="6.06434">
        <ele>174</ele>
        <time>2021-08-27T14:04:47Z</time>
      </trkpt>
      <trkpt lat="43.49693" lon="6.06355">
        <ele>174</ele>
        <time>2021-08-27T14:04:59Z</time>
      </trkpt>
      <trkpt lat="43.49679" lon="6.06316">
        <ele>174</ele>
        <time>2021-08-27T14:05:05Z</time>
      </trkpt>
      <trkpt lat="43.49661" lon="6.06233">
        <ele>175</ele>
        <time>2021-08-27T14:05:16Z</time>
      </trkpt>
      <trkpt lat="43.49655" lon="6.06173">
        <ele>174</ele>
        <time>2021-08-27T14:05:24Z</time>
      </trkpt>
      <trkpt lat="43.49648" lon="6.06134">
        <ele>173</ele>
        <time>2021-08-27T14:05:29Z</time>
      </trkpt>
      <trkpt lat="43.49643" lon="6.06114">
        <ele>173</ele>
        <time>2021-08-27T14:05:31Z</time>
      </trkpt>
      <trkpt lat="43.49612" lon="6.06023">
        <ele>171</ele>
        <time>2021-08-27T14:05:44Z</time>
      </trkpt>
      <trkpt lat="43.49606" lon="6.05983">
        <ele>170</ele>
        <time>2021-08-27T14:05:50Z</time>
      </trkpt>
      <trkpt lat="43.49602" lon="6.0594">
        <ele>170</ele>
        <time>2021-08-27T14:05:55Z</time>
      </trkpt>
      <trkpt lat="43.49602" lon="6.05918">
        <ele>170</ele>
        <time>2021-08-27T14:05:58Z</time>
      </trkpt>
      <trkpt lat="43.49616" lon="6.05835">
        <ele>174</ele>
        <time>2021-08-27T14:06:09Z</time>
      </trkpt>
      <trkpt lat="43.49621" lon="6.05737">
        <ele>180</ele>
        <time>2021-08-27T14:06:22Z</time>
      </trkpt>
      <trkpt lat="43.49625" lon="6.05705">
        <ele>181</ele>
        <time>2021-08-27T14:06:26Z</time>
      </trkpt>
      <trkpt lat="43.49651" lon="6.05646">
        <ele>185</ele>
        <time>2021-08-27T14:06:35Z</time>
      </trkpt>
      <trkpt lat="43.4967" lon="6.05594">
        <ele>180</ele>
        <time>2021-08-27T14:06:42Z</time>
      </trkpt>
      <trkpt lat="43.49684" lon="6.05551">
        <ele>182</ele>
        <time>2021-08-27T14:06:48Z</time>
      </trkpt>
      <trkpt lat="43.4969" lon="6.05514">
        <ele>182</ele>
        <time>2021-08-27T14:06:53Z</time>
      </trkpt>
      <trkpt lat="43.49688" lon="6.05361">
        <ele>193</ele>
        <time>2021-08-27T14:07:13Z</time>
      </trkpt>
      <trkpt lat="43.49683" lon="6.05322">
        <ele>194</ele>
        <time>2021-08-27T14:07:18Z</time>
      </trkpt>
      <trkpt lat="43.49678" lon="6.05303">
        <ele>195</ele>
        <time>2021-08-27T14:07:21Z</time>
      </trkpt>
      <trkpt lat="43.49671" lon="6.05285">
        <ele>194</ele>
        <time>2021-08-27T14:07:23Z</time>
      </trkpt>
      <trkpt lat="43.49629" lon="6.05201">
        <ele>196</ele>
        <time>2021-08-27T14:07:37Z</time>
      </trkpt>
      <trkpt lat="43.49619" lon="6.05187">
        <ele>195</ele>
        <time>2021-08-27T14:07:39Z</time>
      </trkpt>
      <trkpt lat="43.49608" lon="6.05176">
        <ele>192</ele>
        <time>2021-08-27T14:07:42Z</time>
      </trkpt>
      <trkpt lat="43.49571" lon="6.05147">
        <ele>186</ele>
        <time>2021-08-27T14:07:49Z</time>
      </trkpt>
      <trkpt lat="43.49486" lon="6.05102">
        <ele>187</ele>
        <time>2021-08-27T14:08:05Z</time>
      </trkpt>
      <trkpt lat="43.49462" lon="6.05085">
        <ele>185</ele>
        <time>2021-08-27T14:08:10Z</time>
      </trkpt>
      <trkpt lat="43.4945" lon="6.05074">
        <ele>186</ele>
        <time>2021-08-27T14:08:13Z</time>
      </trkpt>
      <trkpt lat="43.49431" lon="6.05047">
        <ele>189</ele>
        <time>2021-08-27T14:08:18Z</time>
      </trkpt>
      <trkpt lat="43.49362" lon="6.04925">
        <ele>201</ele>
        <time>2021-08-27T14:08:38Z</time>
      </trkpt>
      <trkpt lat="43.49346" lon="6.04902">
        <ele>196</ele>
        <time>2021-08-27T14:08:42Z</time>
      </trkpt>
      <trkpt lat="43.49336" lon="6.04895">
        <ele>192</ele>
        <time>2021-08-27T14:08:44Z</time>
      </trkpt>
      <trkpt lat="43.49325" lon="6.04893">
        <ele>192</ele>
        <time>2021-08-27T14:08:46Z</time>
      </trkpt>
      <trkpt lat="43.49309" lon="6.04895">
        <ele>193</ele>
        <time>2021-08-27T14:08:49Z</time>
      </trkpt>
      <trkpt lat="43.493" lon="6.04893">
        <ele>194</ele>
        <time>2021-08-27T14:08:50Z</time>
      </trkpt>
      <trkpt lat="43.49292" lon="6.04888">
        <ele>195</ele>
        <time>2021-08-27T14:08:52Z</time>
      </trkpt>
      <trkpt lat="43.49279" lon="6.04867">
        <ele>195</ele>
        <time>2021-08-27T14:08:55Z</time>
      </trkpt>
      <trkpt lat="43.49276" lon="6.04853">
        <ele>194</ele>
        <time>2021-08-27T14:08:57Z</time>
      </trkpt>
      <trkpt lat="43.49278" lon="6.04842">
        <ele>193</ele>
        <time>2021-08-27T14:08:59Z</time>
      </trkpt>
      <trkpt lat="43.49285" lon="6.04821">
        <ele>194</ele>
        <time>2021-08-27T14:09:02Z</time>
      </trkpt>
      <trkpt lat="43.49314" lon="6.04762">
        <ele>199</ele>
        <time>2021-08-27T14:09:11Z</time>
      </trkpt>
      <trkpt lat="43.49324" lon="6.04733">
        <ele>199</ele>
        <time>2021-08-27T14:09:15Z</time>
      </trkpt>
      <trkpt lat="43.49343" lon="6.04636">
        <ele>198</ele>
        <time>2021-08-27T14:09:28Z</time>
      </trkpt>
      <trkpt lat="43.49343" lon="6.04585">
        <ele>195</ele>
        <time>2021-08-27T14:09:34Z</time>
      </trkpt>
      <trkpt lat="43.49339" lon="6.04532">
        <ele>200</ele>
        <time>2021-08-27T14:09:41Z</time>
      </trkpt>
      <trkpt lat="43.49334" lon="6.04493">
        <ele>204</ele>
        <time>2021-08-27T14:09:46Z</time>
      </trkpt>
      <trkpt lat="43.49323" lon="6.04456">
        <ele>213</ele>
        <time>2021-08-27T14:09:52Z</time>
      </trkpt>
      <trkpt lat="43.49316" lon="6.04439">
        <ele>215</ele>
        <time>2021-08-27T14:09:54Z</time>
      </trkpt>
      <trkpt lat="43.49307" lon="6.04424">
        <ele>215</ele>
        <time>2021-08-27T14:09:57Z</time>
      </trkpt>
      <trkpt lat="43.49298" lon="6.04411">
        <ele>212</ele>
        <time>2021-08-27T14:09:59Z</time>
      </trkpt>
      <trkpt lat="43.49282" lon="6.04399">
        <ele>207</ele>
        <time>2021-08-27T14:10:02Z</time>
      </trkpt>
      <trkpt lat="43.4925" lon="6.04379">
        <ele>197</ele>
        <time>2021-08-27T14:10:08Z</time>
      </trkpt>
      <trkpt lat="43.49228" lon="6.04371">
        <ele>197</ele>
        <time>2021-08-27T14:10:13Z</time>
      </trkpt>
      <trkpt lat="43.49198" lon="6.04365">
        <ele>194</ele>
        <time>2021-08-27T14:10:18Z</time>
      </trkpt>
      <trkpt lat="43.49187" lon="6.04361">
        <ele>193</ele>
        <time>2021-08-27T14:10:20Z</time>
      </trkpt>
      <trkpt lat="43.49169" lon="6.04347">
        <ele>190</ele>
        <time>2021-08-27T14:10:24Z</time>
      </trkpt>
      <trkpt lat="43.49153" lon="6.04327">
        <ele>191</ele>
        <time>2021-08-27T14:10:27Z</time>
      </trkpt>
      <trkpt lat="43.49147" lon="6.04316">
        <ele>192</ele>
        <time>2021-08-27T14:10:29Z</time>
      </trkpt>
      <trkpt lat="43.49142" lon="6.04303">
        <ele>192</ele>
        <time>2021-08-27T14:10:31Z</time>
      </trkpt>
      <trkpt lat="43.49139" lon="6.04278">
        <ele>193</ele>
        <time>2021-08-27T14:10:34Z</time>
      </trkpt>
      <trkpt lat="43.4914" lon="6.04265">
        <ele>192</ele>
        <time>2021-08-27T14:10:36Z</time>
      </trkpt>
      <trkpt lat="43.49148" lon="6.0424">
        <ele>192</ele>
        <time>2021-08-27T14:10:40Z</time>
      </trkpt>
      <trkpt lat="43.49171" lon="6.04214">
        <ele>189</ele>
        <time>2021-08-27T14:10:45Z</time>
      </trkpt>
      <trkpt lat="43.49191" lon="6.04206">
        <ele>190</ele>
        <time>2021-08-27T14:10:49Z</time>
      </trkpt>
      <trkpt lat="43.49239" lon="6.04197">
        <ele>189</ele>
        <time>2021-08-27T14:10:57Z</time>
      </trkpt>
      <trkpt lat="43.49314" lon="6.04188">
        <ele>188</ele>
        <time>2021-08-27T14:11:11Z</time>
      </trkpt>
      <trkpt lat="43.49362" lon="6.04179">
        <ele>189</ele>
        <time>2021-08-27T14:11:19Z</time>
      </trkpt>
      <trkpt lat="43.49545" lon="6.0412">
        <ele>195</ele>
        <time>2021-08-27T14:11:53Z</time>
      </trkpt>
      <trkpt lat="43.49573" lon="6.04103">
        <ele>195</ele>
        <time>2021-08-27T14:11:58Z</time>
      </trkpt>
      <trkpt lat="43.49624" lon="6.04063">
        <ele>198</ele>
        <time>2021-08-27T14:12:09Z</time>
      </trkpt>
      <trkpt lat="43.49635" lon="6.04051">
        <ele>198</ele>
        <time>2021-08-27T14:12:11Z</time>
      </trkpt>
      <trkpt lat="43.49644" lon="6.04038">
        <ele>197</ele>
        <time>2021-08-27T14:12:13Z</time>
      </trkpt>
      <trkpt lat="43.49654" lon="6.04007">
        <ele>190</ele>
        <time>2021-08-27T14:12:18Z</time>
      </trkpt>
      <trkpt lat="43.49659" lon="6.03978">
        <ele>185</ele>
        <time>2021-08-27T14:12:22Z</time>
      </trkpt>
      <trkpt lat="43.4966" lon="6.03964">
        <ele>183</ele>
        <time>2021-08-27T14:12:23Z</time>
      </trkpt>
      <trkpt lat="43.49657" lon="6.03926">
        <ele>178</ele>
        <time>2021-08-27T14:12:28Z</time>
      </trkpt>
      <trkpt lat="43.49651" lon="6.03895">
        <ele>178</ele>
        <time>2021-08-27T14:12:33Z</time>
      </trkpt>
      <trkpt lat="43.49614" lon="6.0374">
        <ele>182</ele>
        <time>2021-08-27T14:12:54Z</time>
      </trkpt>
      <trkpt lat="43.496" lon="6.03668">
        <ele>185</ele>
        <time>2021-08-27T14:13:03Z</time>
      </trkpt>
      <trkpt lat="43.49598" lon="6.03648">
        <ele>185</ele>
        <time>2021-08-27T14:13:06Z</time>
      </trkpt>
      <trkpt lat="43.49597" lon="6.03629">
        <ele>185</ele>
        <time>2021-08-27T14:13:08Z</time>
      </trkpt>
      <trkpt lat="43.49598" lon="6.03611">
        <ele>186</ele>
        <time>2021-08-27T14:13:11Z</time>
      </trkpt>
      <trkpt lat="43.496" lon="6.03593">
        <ele>187</ele>
        <time>2021-08-27T14:13:13Z</time>
      </trkpt>
      <trkpt lat="43.49616" lon="6.03522">
        <ele>197</ele>
        <time>2021-08-27T14:13:23Z</time>
      </trkpt>
      <trkpt lat="43.49625" lon="6.03443">
        <ele>200</ele>
        <time>2021-08-27T14:13:33Z</time>
      </trkpt>
      <trkpt lat="43.49626" lon="6.0338">
        <ele>197</ele>
        <time>2021-08-27T14:13:41Z</time>
      </trkpt>
      <trkpt lat="43.49614" lon="6.03275">
        <ele>189</ele>
        <time>2021-08-27T14:13:55Z</time>
      </trkpt>
      <trkpt lat="43.49611" lon="6.03234">
        <ele>187</ele>
        <time>2021-08-27T14:14:00Z</time>
      </trkpt>
      <trkpt lat="43.49611" lon="6.03215">
        <ele>186</ele>
        <time>2021-08-27T14:14:02Z</time>
      </trkpt>
      <trkpt lat="43.49614" lon="6.03197">
        <ele>186</ele>
        <time>2021-08-27T14:14:05Z</time>
      </trkpt>
      <trkpt lat="43.49625" lon="6.03168">
        <ele>187</ele>
        <time>2021-08-27T14:14:09Z</time>
      </trkpt>
      <trkpt lat="43.49647" lon="6.03127">
        <ele>187</ele>
        <time>2021-08-27T14:14:16Z</time>
      </trkpt>
      <trkpt lat="43.49668" lon="6.03096">
        <ele>187</ele>
        <time>2021-08-27T14:14:21Z</time>
      </trkpt>
      <trkpt lat="43.4968" lon="6.03081">
        <ele>187</ele>
        <time>2021-08-27T14:14:24Z</time>
      </trkpt>
      <trkpt lat="43.49722" lon="6.03046">
        <ele>187</ele>
        <time>2021-08-27T14:14:33Z</time>
      </trkpt>
      <trkpt lat="43.49778" lon="6.03013">
        <ele>190</ele>
        <time>2021-08-27T14:14:44Z</time>
      </trkpt>
      <trkpt lat="43.49791" lon="6.03001">
        <ele>190</ele>
        <time>2021-08-27T14:14:46Z</time>
      </trkpt>
      <trkpt lat="43.49812" lon="6.02972">
        <ele>192</ele>
        <time>2021-08-27T14:14:52Z</time>
      </trkpt>
      <trkpt lat="43.4983" lon="6.02936">
        <ele>191</ele>
        <time>2021-08-27T14:14:57Z</time>
      </trkpt>
      <trkpt lat="43.49846" lon="6.029">
        <ele>194</ele>
        <time>2021-08-27T14:15:03Z</time>
      </trkpt>
      <trkpt lat="43.49858" lon="6.02861">
        <ele>194</ele>
        <time>2021-08-27T14:15:08Z</time>
      </trkpt>
      <trkpt lat="43.49862" lon="6.0282">
        <ele>190</ele>
        <time>2021-08-27T14:15:14Z</time>
      </trkpt>
      <trkpt lat="43.4986" lon="6.02778">
        <ele>187</ele>
        <time>2021-08-27T14:15:19Z</time>
      </trkpt>
      <trkpt lat="43.49851" lon="6.02721">
        <ele>183</ele>
        <time>2021-08-27T14:15:27Z</time>
      </trkpt>
      <trkpt lat="43.49847" lon="6.0268">
        <ele>182</ele>
        <time>2021-08-27T14:15:32Z</time>
      </trkpt>
      <trkpt lat="43.49852" lon="6.02658">
        <ele>182</ele>
        <time>2021-08-27T14:15:35Z</time>
      </trkpt>
      <trkpt lat="43.49857" lon="6.02651">
        <ele>183</ele>
        <time>2021-08-27T14:15:36Z</time>
      </trkpt>
      <trkpt lat="43.49872" lon="6.02641">
        <ele>185</ele>
        <time>2021-08-27T14:15:39Z</time>
      </trkpt>
      <trkpt lat="43.49891" lon="6.02639">
        <ele>186</ele>
        <time>2021-08-27T14:15:42Z</time>
      </trkpt>
      <trkpt lat="43.49911" lon="6.02641">
        <ele>188</ele>
        <time>2021-08-27T14:15:46Z</time>
      </trkpt>
      <trkpt lat="43.49919" lon="6.02646">
        <ele>188</ele>
        <time>2021-08-27T14:15:48Z</time>
      </trkpt>
      <trkpt lat="43.49927" lon="6.02653">
        <ele>188</ele>
        <time>2021-08-27T14:15:49Z</time>
      </trkpt>
      <trkpt lat="43.49965" lon="6.02701">
        <ele>191</ele>
        <time>2021-08-27T14:15:58Z</time>
      </trkpt>
      <trkpt lat="43.49977" lon="6.02711">
        <ele>192</ele>
        <time>2021-08-27T14:16:01Z</time>
      </trkpt>
      <trkpt lat="43.49984" lon="6.02714">
        <ele>192</ele>
        <time>2021-08-27T14:16:02Z</time>
      </trkpt>
      <trkpt lat="43.49999" lon="6.02713">
        <ele>192</ele>
        <time>2021-08-27T14:16:05Z</time>
      </trkpt>
      <trkpt lat="43.50011" lon="6.02709">
        <ele>191</ele>
        <time>2021-08-27T14:16:07Z</time>
      </trkpt>
      <trkpt lat="43.5002" lon="6.02703">
        <ele>189</ele>
        <time>2021-08-27T14:16:09Z</time>
      </trkpt>
      <trkpt lat="43.50005" lon="6.02679">
        <ele>186</ele>
        <time>2021-08-27T14:16:13Z</time>
      </trkpt>
      <trkpt lat="43.5" lon="6.02667">
        <ele>184</ele>
        <time>2021-08-27T14:16:15Z</time>
      </trkpt>
      <trkpt lat="43.49995" lon="6.02646">
        <ele>185</ele>
        <time>2021-08-27T14:16:18Z</time>
      </trkpt>
      <trkpt lat="43.49989" lon="6.02613">
        <ele>187</ele>
        <time>2021-08-27T14:16:22Z</time>
      </trkpt>
      <trkpt lat="43.49985" lon="6.026">
        <ele>187</ele>
        <time>2021-08-27T14:16:24Z</time>
      </trkpt>
      <trkpt lat="43.4998" lon="6.02593">
        <ele>188</ele>
        <time>2021-08-27T14:16:25Z</time>
      </trkpt>
      <trkpt lat="43.49941" lon="6.02586">
        <ele>189</ele>
        <time>2021-08-27T14:16:32Z</time>
      </trkpt>
      <trkpt lat="43.49925" lon="6.02581">
        <ele>190</ele>
        <time>2021-08-27T14:16:35Z</time>
      </trkpt>
      <trkpt lat="43.49886" lon="6.02552">
        <ele>195</ele>
        <time>2021-08-27T14:16:43Z</time>
      </trkpt>
      <trkpt lat="43.49878" lon="6.02548">
        <ele>196</ele>
        <time>2021-08-27T14:16:44Z</time>
      </trkpt>
      <trkpt lat="43.49861" lon="6.02551">
        <ele>193</ele>
        <time>2021-08-27T14:16:47Z</time>
      </trkpt>
      <trkpt lat="43.49783" lon="6.02609">
        <ele>191</ele>
        <time>2021-08-27T14:17:03Z</time>
      </trkpt>
      <trkpt lat="43.49768" lon="6.02625">
        <ele>193</ele>
        <time>2021-08-27T14:17:07Z</time>
      </trkpt>
      <trkpt lat="43.49757" lon="6.0265">
        <ele>195</ele>
        <time>2021-08-27T14:17:10Z</time>
      </trkpt>
      <trkpt lat="43.49754" lon="6.02664">
        <ele>195</ele>
        <time>2021-08-27T14:17:12Z</time>
      </trkpt>
      <trkpt lat="43.49753" lon="6.0269">
        <ele>196</ele>
        <time>2021-08-27T14:17:16Z</time>
      </trkpt>
      <trkpt lat="43.49756" lon="6.02712">
        <ele>196</ele>
        <time>2021-08-27T14:17:19Z</time>
      </trkpt>
      <trkpt lat="43.49766" lon="6.02763">
        <ele>195</ele>
        <time>2021-08-27T14:17:25Z</time>
      </trkpt>
      <trkpt lat="43.49767" lon="6.02778">
        <ele>193</ele>
        <time>2021-08-27T14:17:27Z</time>
      </trkpt>
      <trkpt lat="43.49764" lon="6.02806">
        <ele>192</ele>
        <time>2021-08-27T14:17:31Z</time>
      </trkpt>
      <trkpt lat="43.49761" lon="6.02818">
        <ele>191</ele>
        <time>2021-08-27T14:17:33Z</time>
      </trkpt>
      <trkpt lat="43.49753" lon="6.02833">
        <ele>191</ele>
        <time>2021-08-27T14:17:35Z</time>
      </trkpt>
      <trkpt lat="43.49743" lon="6.02847">
        <ele>191</ele>
        <time>2021-08-27T14:17:38Z</time>
      </trkpt>
      <trkpt lat="43.49674" lon="6.02907">
        <ele>189</ele>
        <time>2021-08-27T14:17:52Z</time>
      </trkpt>
      <trkpt lat="43.49646" lon="6.02919">
        <ele>187</ele>
        <time>2021-08-27T14:17:57Z</time>
      </trkpt>
      <trkpt lat="43.49556" lon="6.0295">
        <ele>184</ele>
        <time>2021-08-27T14:18:14Z</time>
      </trkpt>
      <trkpt lat="43.49522" lon="6.02957">
        <ele>185</ele>
        <time>2021-08-27T14:18:20Z</time>
      </trkpt>
      <trkpt lat="43.49495" lon="6.02949">
        <ele>186</ele>
        <time>2021-08-27T14:18:25Z</time>
      </trkpt>
      <trkpt lat="43.49434" lon="6.02919">
        <ele>188</ele>
        <time>2021-08-27T14:18:36Z</time>
      </trkpt>
      <trkpt lat="43.49401" lon="6.02909">
        <ele>188</ele>
        <time>2021-08-27T14:18:42Z</time>
      </trkpt>
      <trkpt lat="43.49366" lon="6.02911">
        <ele>189</ele>
        <time>2021-08-27T14:18:49Z</time>
      </trkpt>
      <trkpt lat="43.49222" lon="6.0296">
        <ele>194</ele>
        <time>2021-08-27T14:19:15Z</time>
      </trkpt>
      <trkpt lat="43.49178" lon="6.0298">
        <ele>192</ele>
        <time>2021-08-27T14:19:23Z</time>
      </trkpt>
      <trkpt lat="43.49029" lon="6.03092">
        <ele>195</ele>
        <time>2021-08-27T14:19:53Z</time>
      </trkpt>
      <trkpt lat="43.48927" lon="6.03203">
        <ele>198</ele>
        <time>2021-08-27T14:20:17Z</time>
      </trkpt>
      <trkpt lat="43.48822" lon="6.03313">
        <ele>202</ele>
        <time>2021-08-27T14:20:40Z</time>
      </trkpt>
      <trkpt lat="43.48742" lon="6.03467">
        <ele>211</ele>
        <time>2021-08-27T14:21:04Z</time>
      </trkpt>
      <trkpt lat="43.48706" lon="6.03507">
        <ele>212</ele>
        <time>2021-08-27T14:21:13Z</time>
      </trkpt>
      <trkpt lat="43.48694" lon="6.03532">
        <ele>214</ele>
        <time>2021-08-27T14:21:17Z</time>
      </trkpt>
      <trkpt lat="43.4868" lon="6.03555">
        <ele>214</ele>
        <time>2021-08-27T14:21:20Z</time>
      </trkpt>
      <trkpt lat="43.48615" lon="6.0361">
        <ele>209</ele>
        <time>2021-08-27T14:21:34Z</time>
      </trkpt>
      <trkpt lat="43.48594" lon="6.03634">
        <ele>208</ele>
        <time>2021-08-27T14:21:39Z</time>
      </trkpt>
      <trkpt lat="43.48562" lon="6.0368">
        <ele>208</ele>
        <time>2021-08-27T14:21:47Z</time>
      </trkpt>
      <trkpt lat="43.4855" lon="6.03714">
        <ele>210</ele>
        <time>2021-08-27T14:21:52Z</time>
      </trkpt>
      <trkpt lat="43.48545" lon="6.03736">
        <ele>211</ele>
        <time>2021-08-27T14:21:55Z</time>
      </trkpt>
      <trkpt lat="43.48524" lon="6.03762">
        <ele>211</ele>
        <time>2021-08-27T14:22:00Z</time>
      </trkpt>
      <trkpt lat="43.48502" lon="6.03778">
        <ele>211</ele>
        <time>2021-08-27T14:22:04Z</time>
      </trkpt>
      <trkpt lat="43.48397" lon="6.03881">
        <ele>214</ele>
        <time>2021-08-27T14:22:27Z</time>
      </trkpt>
      <trkpt lat="43.48371" lon="6.03902">
        <ele>217</ele>
        <time>2021-08-27T14:22:33Z</time>
      </trkpt>
      <trkpt lat="43.48289" lon="6.0394">
        <ele>219</ele>
        <time>2021-08-27T14:22:48Z</time>
      </trkpt>
      <trkpt lat="43.4823" lon="6.0398">
        <ele>220</ele>
        <time>2021-08-27T14:23:00Z</time>
      </trkpt>
      <trkpt lat="43.48095" lon="6.04085">
        <ele>227</ele>
        <time>2021-08-27T14:23:27Z</time>
      </trkpt>
      <trkpt lat="43.4794" lon="6.04234">
        <ele>236</ele>
        <time>2021-08-27T14:24:01Z</time>
      </trkpt>
      <trkpt lat="43.47872" lon="6.04277">
        <ele>236</ele>
        <time>2021-08-27T14:24:14Z</time>
      </trkpt>
      <trkpt lat="43.47851" lon="6.04299">
        <ele>237</ele>
        <time>2021-08-27T14:24:19Z</time>
      </trkpt>
      <trkpt lat="43.47777" lon="6.0441">
        <ele>245</ele>
        <time>2021-08-27T14:24:38Z</time>
      </trkpt>
      <trkpt lat="43.47736" lon="6.04514">
        <ele>253</ele>
        <time>2021-08-27T14:24:54Z</time>
      </trkpt>
      <trkpt lat="43.47718" lon="6.0455">
        <ele>254</ele>
        <time>2021-08-27T14:24:59Z</time>
      </trkpt>
      <trkpt lat="43.47665" lon="6.0465">
        <ele>252</ele>
        <time>2021-08-27T14:25:15Z</time>
      </trkpt>
      <trkpt lat="43.47608" lon="6.04738">
        <ele>253</ele>
        <time>2021-08-27T14:25:31Z</time>
      </trkpt>
      <trkpt lat="43.47588" lon="6.04786">
        <ele>252</ele>
        <time>2021-08-27T14:25:38Z</time>
      </trkpt>
      <trkpt lat="43.47572" lon="6.04832">
        <ele>254</ele>
        <time>2021-08-27T14:25:44Z</time>
      </trkpt>
      <trkpt lat="43.47559" lon="6.04854">
        <ele>255</ele>
        <time>2021-08-27T14:25:48Z</time>
      </trkpt>
      <trkpt lat="43.47523" lon="6.04894">
        <ele>256</ele>
        <time>2021-08-27T14:25:56Z</time>
      </trkpt>
      <trkpt lat="43.47482" lon="6.04957">
        <ele>258</ele>
        <time>2021-08-27T14:26:07Z</time>
      </trkpt>
      <trkpt lat="43.47442" lon="6.04995">
        <ele>257</ele>
        <time>2021-08-27T14:26:16Z</time>
      </trkpt>
      <trkpt lat="43.4742" lon="6.05021">
        <ele>256</ele>
        <time>2021-08-27T14:26:21Z</time>
      </trkpt>
      <trkpt lat="43.47386" lon="6.05079">
        <ele>260</ele>
        <time>2021-08-27T14:26:31Z</time>
      </trkpt>
      <trkpt lat="43.47368" lon="6.05125">
        <ele>262</ele>
        <time>2021-08-27T14:26:37Z</time>
      </trkpt>
      <trkpt lat="43.47365" lon="6.0516">
        <ele>262</ele>
        <time>2021-08-27T14:26:42Z</time>
      </trkpt>
      <trkpt lat="43.47358" lon="6.05191">
        <ele>263</ele>
        <time>2021-08-27T14:26:46Z</time>
      </trkpt>
      <trkpt lat="43.47348" lon="6.05224">
        <ele>263</ele>
        <time>2021-08-27T14:26:51Z</time>
      </trkpt>
      <trkpt lat="43.47317" lon="6.05284">
        <ele>265</ele>
        <time>2021-08-27T14:27:00Z</time>
      </trkpt>
      <trkpt lat="43.47304" lon="6.05323">
        <ele>266</ele>
        <time>2021-08-27T14:27:06Z</time>
      </trkpt>
      <trkpt lat="43.47294" lon="6.0534">
        <ele>266</ele>
        <time>2021-08-27T14:27:09Z</time>
      </trkpt>
      <trkpt lat="43.47282" lon="6.05353">
        <ele>267</ele>
        <time>2021-08-27T14:27:11Z</time>
      </trkpt>
      <trkpt lat="43.47263" lon="6.05361">
        <ele>267</ele>
        <time>2021-08-27T14:27:15Z</time>
      </trkpt>
      <trkpt lat="43.47166" lon="6.0535">
        <ele>274</ele>
        <time>2021-08-27T14:27:32Z</time>
      </trkpt>
      <trkpt lat="43.47144" lon="6.05345">
        <ele>274</ele>
        <time>2021-08-27T14:27:36Z</time>
      </trkpt>
      <trkpt lat="43.47071" lon="6.05319">
        <ele>275</ele>
        <time>2021-08-27T14:27:49Z</time>
      </trkpt>
      <trkpt lat="43.47046" lon="6.05317">
        <ele>275</ele>
        <time>2021-08-27T14:27:54Z</time>
      </trkpt>
      <trkpt lat="43.46995" lon="6.05333">
        <ele>276</ele>
        <time>2021-08-27T14:28:03Z</time>
      </trkpt>
      <trkpt lat="43.46978" lon="6.05346">
        <ele>279</ele>
        <time>2021-08-27T14:28:07Z</time>
      </trkpt>
      <trkpt lat="43.46964" lon="6.05359">
        <ele>281</ele>
        <time>2021-08-27T14:28:10Z</time>
      </trkpt>
      <trkpt lat="43.46947" lon="6.0538">
        <ele>283</ele>
        <time>2021-08-27T14:28:14Z</time>
      </trkpt>
      <trkpt lat="43.46899" lon="6.05476">
        <ele>291</ele>
        <time>2021-08-27T14:28:29Z</time>
      </trkpt>
      <trkpt lat="43.46892" lon="6.05503">
        <ele>292</ele>
        <time>2021-08-27T14:28:33Z</time>
      </trkpt>
      <trkpt lat="43.46892" lon="6.0553">
        <ele>291</ele>
        <time>2021-08-27T14:28:36Z</time>
      </trkpt>
      <trkpt lat="43.46929" lon="6.05682">
        <ele>290</ele>
        <time>2021-08-27T14:28:57Z</time>
      </trkpt>
      <trkpt lat="43.4693" lon="6.05695">
        <ele>290</ele>
        <time>2021-08-27T14:28:58Z</time>
      </trkpt>
      <trkpt lat="43.46927" lon="6.0571">
        <ele>290</ele>
        <time>2021-08-27T14:29:00Z</time>
      </trkpt>
      <trkpt lat="43.46913" lon="6.0573">
        <ele>289</ele>
        <time>2021-08-27T14:29:04Z</time>
      </trkpt>
      <trkpt lat="43.46901" lon="6.05735">
        <ele>290</ele>
        <time>2021-08-27T14:29:06Z</time>
      </trkpt>
      <trkpt lat="43.46888" lon="6.0573">
        <ele>291</ele>
        <time>2021-08-27T14:29:09Z</time>
      </trkpt>
      <trkpt lat="43.46813" lon="6.05645">
        <ele>297</ele>
        <time>2021-08-27T14:29:26Z</time>
      </trkpt>
      <trkpt lat="43.46797" lon="6.05629">
        <ele>301</ele>
        <time>2021-08-27T14:29:29Z</time>
      </trkpt>
      <trkpt lat="43.4678" lon="6.05629">
        <ele>304</ele>
        <time>2021-08-27T14:29:32Z</time>
      </trkpt>
      <trkpt lat="43.46755" lon="6.05638">
        <ele>307</ele>
        <time>2021-08-27T14:29:37Z</time>
      </trkpt>
      <trkpt lat="43.46687" lon="6.05675">
        <ele>306</ele>
        <time>2021-08-27T14:29:50Z</time>
      </trkpt>
      <trkpt lat="43.46678" lon="6.05677">
        <ele>306</ele>
        <time>2021-08-27T14:29:52Z</time>
      </trkpt>
      <trkpt lat="43.46623" lon="6.05673">
        <ele>302</ele>
        <time>2021-08-27T14:30:01Z</time>
      </trkpt>
      <trkpt lat="43.46611" lon="6.05676">
        <ele>301</ele>
        <time>2021-08-27T14:30:04Z</time>
      </trkpt>
      <trkpt lat="43.46599" lon="6.05683">
        <ele>300</ele>
        <time>2021-08-27T14:30:06Z</time>
      </trkpt>
      <trkpt lat="43.46563" lon="6.05718">
        <ele>297</ele>
        <time>2021-08-27T14:30:14Z</time>
      </trkpt>
      <trkpt lat="43.46549" lon="6.05727">
        <ele>295</ele>
        <time>2021-08-27T14:30:17Z</time>
      </trkpt>
      <trkpt lat="43.4647" lon="6.05764">
        <ele>290</ele>
        <time>2021-08-27T14:30:31Z</time>
      </trkpt>
      <trkpt lat="43.46438" lon="6.05776">
        <ele>291</ele>
        <time>2021-08-27T14:30:37Z</time>
      </trkpt>
      <trkpt lat="43.46375" lon="6.05792">
        <ele>291</ele>
        <time>2021-08-27T14:30:49Z</time>
      </trkpt>
      <trkpt lat="43.46362" lon="6.058">
        <ele>291</ele>
        <time>2021-08-27T14:30:51Z</time>
      </trkpt>
      <trkpt lat="43.46321" lon="6.05832">
        <ele>290</ele>
        <time>2021-08-27T14:31:00Z</time>
      </trkpt>
      <trkpt lat="43.46292" lon="6.05847">
        <ele>289</ele>
        <time>2021-08-27T14:31:05Z</time>
      </trkpt>
      <trkpt lat="43.46277" lon="6.05852">
        <ele>289</ele>
        <time>2021-08-27T14:31:08Z</time>
      </trkpt>
      <trkpt lat="43.46261" lon="6.05854">
        <ele>288</ele>
        <time>2021-08-27T14:31:11Z</time>
      </trkpt>
      <trkpt lat="43.46215" lon="6.05847">
        <ele>289</ele>
        <time>2021-08-27T14:31:19Z</time>
      </trkpt>
      <trkpt lat="43.46142" lon="6.05827">
        <ele>290</ele>
        <time>2021-08-27T14:31:32Z</time>
      </trkpt>
      <trkpt lat="43.46124" lon="6.05825">
        <ele>290</ele>
        <time>2021-08-27T14:31:35Z</time>
      </trkpt>
      <trkpt lat="43.4609" lon="6.05829">
        <ele>290</ele>
        <time>2021-08-27T14:31:42Z</time>
      </trkpt>
      <trkpt lat="43.46053" lon="6.05836">
        <ele>290</ele>
        <time>2021-08-27T14:31:48Z</time>
      </trkpt>
      <trkpt lat="43.46016" lon="6.05848">
        <ele>290</ele>
        <time>2021-08-27T14:31:55Z</time>
      </trkpt>
      <trkpt lat="43.45981" lon="6.05865">
        <ele>291</ele>
        <time>2021-08-27T14:32:02Z</time>
      </trkpt>
      <trkpt lat="43.45964" lon="6.05876">
        <ele>292</ele>
        <time>2021-08-27T14:32:05Z</time>
      </trkpt>
      <trkpt lat="43.45855" lon="6.0597">
        <ele>293</ele>
        <time>2021-08-27T14:32:28Z</time>
      </trkpt>
      <trkpt lat="43.45842" lon="6.05987">
        <ele>294</ele>
        <time>2021-08-27T14:32:31Z</time>
      </trkpt>
      <trkpt lat="43.45832" lon="6.06008">
        <ele>294</ele>
        <time>2021-08-27T14:32:34Z</time>
      </trkpt>
      <trkpt lat="43.45785" lon="6.06148">
        <ele>295</ele>
        <time>2021-08-27T14:32:54Z</time>
      </trkpt>
      <trkpt lat="43.45765" lon="6.06194">
        <ele>296</ele>
        <time>2021-08-27T14:33:01Z</time>
      </trkpt>
      <trkpt lat="43.45733" lon="6.06257">
        <ele>296</ele>
        <time>2021-08-27T14:33:11Z</time>
      </trkpt>
      <trkpt lat="43.45722" lon="6.06276">
        <ele>296</ele>
        <time>2021-08-27T14:33:14Z</time>
      </trkpt>
      <trkpt lat="43.45682" lon="6.0633">
        <ele>296</ele>
        <time>2021-08-27T14:33:24Z</time>
      </trkpt>
      <trkpt lat="43.45652" lon="6.06362">
        <ele>300</ele>
        <time>2021-08-27T14:33:31Z</time>
      </trkpt>
      <trkpt lat="43.45636" lon="6.06375">
        <ele>303</ele>
        <time>2021-08-27T14:33:34Z</time>
      </trkpt>
      <trkpt lat="43.45621" lon="6.06391">
        <ele>304</ele>
        <time>2021-08-27T14:33:37Z</time>
      </trkpt>
      <trkpt lat="43.45606" lon="6.06409">
        <ele>305</ele>
        <time>2021-08-27T14:33:41Z</time>
      </trkpt>
      <trkpt lat="43.45566" lon="6.06468">
        <ele>309</ele>
        <time>2021-08-27T14:33:51Z</time>
      </trkpt>
      <trkpt lat="43.4554" lon="6.06511">
        <ele>312</ele>
        <time>2021-08-27T14:33:59Z</time>
      </trkpt>
      <trkpt lat="43.45507" lon="6.06576">
        <ele>312</ele>
        <time>2021-08-27T14:34:09Z</time>
      </trkpt>
      <trkpt lat="43.45391" lon="6.06788">
        <ele>321</ele>
        <time>2021-08-27T14:34:43Z</time>
      </trkpt>
      <trkpt lat="43.45371" lon="6.06828">
        <ele>321</ele>
        <time>2021-08-27T14:34:49Z</time>
      </trkpt>
      <trkpt lat="43.45353" lon="6.06871">
        <ele>320</ele>
        <time>2021-08-27T14:34:56Z</time>
      </trkpt>
      <trkpt lat="43.45345" lon="6.06892">
        <ele>320</ele>
        <time>2021-08-27T14:34:59Z</time>
      </trkpt>
      <trkpt lat="43.4534" lon="6.06914">
        <ele>318</ele>
        <time>2021-08-27T14:35:02Z</time>
      </trkpt>
      <trkpt lat="43.45337" lon="6.06937">
        <ele>318</ele>
        <time>2021-08-27T14:35:05Z</time>
      </trkpt>
      <trkpt lat="43.45335" lon="6.06961">
        <ele>317</ele>
        <time>2021-08-27T14:35:08Z</time>
      </trkpt>
      <trkpt lat="43.45336" lon="6.07011">
        <ele>317</ele>
        <time>2021-08-27T14:35:15Z</time>
      </trkpt>
      <trkpt lat="43.4535" lon="6.07203">
        <ele>323</ele>
        <time>2021-08-27T14:35:39Z</time>
      </trkpt>
      <trkpt lat="43.45359" lon="6.0734">
        <ele>324</ele>
        <time>2021-08-27T14:35:57Z</time>
      </trkpt>
      <trkpt lat="43.4536" lon="6.07386">
        <ele>324</ele>
        <time>2021-08-27T14:36:03Z</time>
      </trkpt>
      <trkpt lat="43.45357" lon="6.07431">
        <ele>324</ele>
        <time>2021-08-27T14:36:09Z</time>
      </trkpt>
      <trkpt lat="43.45346" lon="6.07471">
        <ele>323</ele>
        <time>2021-08-27T14:36:15Z</time>
      </trkpt>
      <trkpt lat="43.4533" lon="6.07502">
        <ele>323</ele>
        <time>2021-08-27T14:36:19Z</time>
      </trkpt>
      <trkpt lat="43.45278" lon="6.07582">
        <ele>317</ele>
        <time>2021-08-27T14:36:33Z</time>
      </trkpt>
      <trkpt lat="43.4522" lon="6.07676">
        <ele>312</ele>
        <time>2021-08-27T14:36:49Z</time>
      </trkpt>
      <trkpt lat="43.45202" lon="6.07725">
        <ele>309</ele>
        <time>2021-08-27T14:36:56Z</time>
      </trkpt>
      <trkpt lat="43.45199" lon="6.07773">
        <ele>306</ele>
        <time>2021-08-27T14:37:03Z</time>
      </trkpt>
      <trkpt lat="43.45191" lon="6.07814">
        <ele>304</ele>
        <time>2021-08-27T14:37:08Z</time>
      </trkpt>
      <trkpt lat="43.45178" lon="6.07861">
        <ele>303</ele>
        <time>2021-08-27T14:37:15Z</time>
      </trkpt>
      <trkpt lat="43.45169" lon="6.07883">
        <ele>302</ele>
        <time>2021-08-27T14:37:18Z</time>
      </trkpt>
      <trkpt lat="43.45161" lon="6.07895">
        <ele>301</ele>
        <time>2021-08-27T14:37:20Z</time>
      </trkpt>
      <trkpt lat="43.4515" lon="6.07905">
        <ele>300</ele>
        <time>2021-08-27T14:37:22Z</time>
      </trkpt>
      <trkpt lat="43.4514" lon="6.07909">
        <ele>300</ele>
        <time>2021-08-27T14:37:24Z</time>
      </trkpt>
      <trkpt lat="43.45128" lon="6.0791">
        <ele>299</ele>
        <time>2021-08-27T14:37:26Z</time>
      </trkpt>
      <trkpt lat="43.45117" lon="6.07907">
        <ele>298</ele>
        <time>2021-08-27T14:37:28Z</time>
      </trkpt>
      <trkpt lat="43.45109" lon="6.07901">
        <ele>298</ele>
        <time>2021-08-27T14:37:30Z</time>
      </trkpt>
      <trkpt lat="43.45099" lon="6.07889">
        <ele>298</ele>
        <time>2021-08-27T14:37:32Z</time>
      </trkpt>
      <trkpt lat="43.45079" lon="6.07847">
        <ele>297</ele>
        <time>2021-08-27T14:37:39Z</time>
      </trkpt>
      <trkpt lat="43.45069" lon="6.07833">
        <ele>295</ele>
        <time>2021-08-27T14:37:41Z</time>
      </trkpt>
      <trkpt lat="43.45038" lon="6.07801">
        <ele>291</ele>
        <time>2021-08-27T14:37:48Z</time>
      </trkpt>
      <trkpt lat="43.45027" lon="6.07789">
        <ele>290</ele>
        <time>2021-08-27T14:37:51Z</time>
      </trkpt>
      <trkpt lat="43.45019" lon="6.07775">
        <ele>289</ele>
        <time>2021-08-27T14:37:53Z</time>
      </trkpt>
      <trkpt lat="43.45012" lon="6.07761">
        <ele>289</ele>
        <time>2021-08-27T14:37:55Z</time>
      </trkpt>
      <trkpt lat="43.45007" lon="6.07746">
        <ele>289</ele>
        <time>2021-08-27T14:37:57Z</time>
      </trkpt>
      <trkpt lat="43.45" lon="6.07715">
        <ele>289</ele>
        <time>2021-08-27T14:38:01Z</time>
      </trkpt>
      <trkpt lat="43.44994" lon="6.07701">
        <ele>288</ele>
        <time>2021-08-27T14:38:04Z</time>
      </trkpt>
      <trkpt lat="43.44985" lon="6.07689">
        <ele>287</ele>
        <time>2021-08-27T14:38:06Z</time>
      </trkpt>
      <trkpt lat="43.44966" lon="6.0767">
        <ele>283</ele>
        <time>2021-08-27T14:38:10Z</time>
      </trkpt>
      <trkpt lat="43.44958" lon="6.0766">
        <ele>283</ele>
        <time>2021-08-27T14:38:12Z</time>
      </trkpt>
      <trkpt lat="43.44937" lon="6.07603">
        <ele>285</ele>
        <time>2021-08-27T14:38:20Z</time>
      </trkpt>
      <trkpt lat="43.44927" lon="6.07589">
        <ele>284</ele>
        <time>2021-08-27T14:38:23Z</time>
      </trkpt>
      <trkpt lat="43.44892" lon="6.07547">
        <ele>282</ele>
        <time>2021-08-27T14:38:31Z</time>
      </trkpt>
      <trkpt lat="43.44869" lon="6.07516">
        <ele>281</ele>
        <time>2021-08-27T14:38:37Z</time>
      </trkpt>
      <trkpt lat="43.44826" lon="6.07449">
        <ele>276</ele>
        <time>2021-08-27T14:38:48Z</time>
      </trkpt>
      <trkpt lat="43.44814" lon="6.07432">
        <ele>276</ele>
        <time>2021-08-27T14:38:51Z</time>
      </trkpt>
      <trkpt lat="43.44788" lon="6.07404">
        <ele>274</ele>
        <time>2021-08-27T14:38:57Z</time>
      </trkpt>
      <trkpt lat="43.44745" lon="6.07365">
        <ele>269</ele>
        <time>2021-08-27T14:39:06Z</time>
      </trkpt>
      <trkpt lat="43.4473" lon="6.07356">
        <ele>268</ele>
        <time>2021-08-27T14:39:09Z</time>
      </trkpt>
      <trkpt lat="43.447" lon="6.07341">
        <ele>265</ele>
        <time>2021-08-27T14:39:15Z</time>
      </trkpt>
      <trkpt lat="43.44667" lon="6.07334">
        <ele>262</ele>
        <time>2021-08-27T14:39:21Z</time>
      </trkpt>
      <trkpt lat="43.44599" lon="6.07326">
        <ele>260</ele>
        <time>2021-08-27T14:39:33Z</time>
      </trkpt>
      <trkpt lat="43.44582" lon="6.07322">
        <ele>260</ele>
        <time>2021-08-27T14:39:36Z</time>
      </trkpt>
      <trkpt lat="43.4455" lon="6.07308">
        <ele>258</ele>
        <time>2021-08-27T14:39:42Z</time>
      </trkpt>
      <trkpt lat="43.44521" lon="6.07291">
        <ele>256</ele>
        <time>2021-08-27T14:39:48Z</time>
      </trkpt>
      <trkpt lat="43.44507" lon="6.0728">
        <ele>255</ele>
        <time>2021-08-27T14:39:51Z</time>
      </trkpt>
      <trkpt lat="43.44465" lon="6.07239">
        <ele>252</ele>
        <time>2021-08-27T14:40:00Z</time>
      </trkpt>
      <trkpt lat="43.44451" lon="6.07226">
        <ele>252</ele>
        <time>2021-08-27T14:40:03Z</time>
      </trkpt>
      <trkpt lat="43.44436" lon="6.07216">
        <ele>251</ele>
        <time>2021-08-27T14:40:06Z</time>
      </trkpt>
      <trkpt lat="43.44408" lon="6.07203">
        <ele>249</ele>
        <time>2021-08-27T14:40:11Z</time>
      </trkpt>
      <trkpt lat="43.44367" lon="6.07195">
        <ele>247</ele>
        <time>2021-08-27T14:40:18Z</time>
      </trkpt>
      <trkpt lat="43.44328" lon="6.07178">
        <ele>246</ele>
        <time>2021-08-27T14:40:26Z</time>
      </trkpt>
      <trkpt lat="43.44316" lon="6.07177">
        <ele>246</ele>
        <time>2021-08-27T14:40:28Z</time>
      </trkpt>
      <trkpt lat="43.44311" lon="6.07179">
        <ele>245</ele>
        <time>2021-08-27T14:40:29Z</time>
      </trkpt>
      <trkpt lat="43.44299" lon="6.0715">
        <ele>245</ele>
        <time>2021-08-27T14:40:33Z</time>
      </trkpt>
      <trkpt lat="43.44277" lon="6.07113">
        <ele>244</ele>
        <time>2021-08-27T14:40:39Z</time>
      </trkpt>
      <trkpt lat="43.44241" lon="6.0707">
        <ele>244</ele>
        <time>2021-08-27T14:40:48Z</time>
      </trkpt>
      <trkpt lat="43.44146" lon="6.06973">
        <ele>246</ele>
        <time>2021-08-27T14:41:09Z</time>
      </trkpt>
      <trkpt lat="43.4411" lon="6.06948">
        <ele>246</ele>
        <time>2021-08-27T14:41:16Z</time>
      </trkpt>
      <trkpt lat="43.44078" lon="6.06934">
        <ele>246</ele>
        <time>2021-08-27T14:41:22Z</time>
      </trkpt>
      <trkpt lat="43.44023" lon="6.06924">
        <ele>246</ele>
        <time>2021-08-27T14:41:32Z</time>
      </trkpt>
      <trkpt lat="43.43972" lon="6.06923">
        <ele>246</ele>
        <time>2021-08-27T14:41:41Z</time>
      </trkpt>
      <trkpt lat="43.43937" lon="6.06926">
        <ele>247</ele>
        <time>2021-08-27T14:41:47Z</time>
      </trkpt>
      <trkpt lat="43.43907" lon="6.06932">
        <ele>247</ele>
        <time>2021-08-27T14:41:52Z</time>
      </trkpt>
      <trkpt lat="43.43879" lon="6.06944">
        <ele>247</ele>
        <time>2021-08-27T14:41:58Z</time>
      </trkpt>
      <trkpt lat="43.43873" lon="6.06944">
        <ele>247</ele>
        <time>2021-08-27T14:41:59Z</time>
      </trkpt>
      <trkpt lat="43.43862" lon="6.06939">
        <ele>247</ele>
        <time>2021-08-27T14:42:01Z</time>
      </trkpt>
      <trkpt lat="43.43855" lon="6.06941">
        <ele>247</ele>
        <time>2021-08-27T14:42:02Z</time>
      </trkpt>
      <trkpt lat="43.43852" lon="6.06944">
        <ele>247</ele>
        <time>2021-08-27T14:42:03Z</time>
      </trkpt>
      <trkpt lat="43.43847" lon="6.06952">
        <ele>247</ele>
        <time>2021-08-27T14:42:04Z</time>
      </trkpt>
      <trkpt lat="43.43845" lon="6.06963">
        <ele>246</ele>
        <time>2021-08-27T14:42:05Z</time>
      </trkpt>
      <trkpt lat="43.43835" lon="6.06982">
        <ele>246</ele>
        <time>2021-08-27T14:42:08Z</time>
      </trkpt>
      <trkpt lat="43.43816" lon="6.07006">
        <ele>246</ele>
        <time>2021-08-27T14:42:13Z</time>
      </trkpt>
      <trkpt lat="43.43738" lon="6.07085">
        <ele>244</ele>
        <time>2021-08-27T14:42:30Z</time>
      </trkpt>
      <trkpt lat="43.43709" lon="6.0711">
        <ele>244</ele>
        <time>2021-08-27T14:42:36Z</time>
      </trkpt>
      <trkpt lat="43.43699" lon="6.07115">
        <ele>244</ele>
        <time>2021-08-27T14:42:38Z</time>
      </trkpt>
      <trkpt lat="43.43677" lon="6.07121">
        <ele>244</ele>
        <time>2021-08-27T14:42:42Z</time>
      </trkpt>
      <trkpt lat="43.43605" lon="6.07105">
        <ele>243</ele>
        <time>2021-08-27T14:42:55Z</time>
      </trkpt>
      <trkpt lat="43.43531" lon="6.07085">
        <ele>246</ele>
        <time>2021-08-27T14:43:09Z</time>
      </trkpt>
      <trkpt lat="43.4347" lon="6.07062">
        <ele>247</ele>
        <time>2021-08-27T14:43:20Z</time>
      </trkpt>
      <trkpt lat="43.43348" lon="6.07027">
        <ele>241</ele>
        <time>2021-08-27T14:43:42Z</time>
      </trkpt>
      <trkpt lat="43.43333" lon="6.07022">
        <ele>241</ele>
        <time>2021-08-27T14:43:45Z</time>
      </trkpt>
      <trkpt lat="43.43307" lon="6.07017">
        <ele>245</ele>
        <time>2021-08-27T14:43:50Z</time>
      </trkpt>
      <trkpt lat="43.43295" lon="6.0702">
        <ele>247</ele>
        <time>2021-08-27T14:43:52Z</time>
      </trkpt>
      <trkpt lat="43.43276" lon="6.07031">
        <ele>250</ele>
        <time>2021-08-27T14:43:55Z</time>
      </trkpt>
      <trkpt lat="43.43266" lon="6.0704">
        <ele>251</ele>
        <time>2021-08-27T14:43:57Z</time>
      </trkpt>
      <trkpt lat="43.43261" lon="6.07048">
        <ele>252</ele>
        <time>2021-08-27T14:43:59Z</time>
      </trkpt>
      <trkpt lat="43.43243" lon="6.0709">
        <ele>253</ele>
        <time>2021-08-27T14:44:05Z</time>
      </trkpt>
      <trkpt lat="43.43227" lon="6.07135">
        <ele>254</ele>
        <time>2021-08-27T14:44:12Z</time>
      </trkpt>
      <trkpt lat="43.43221" lon="6.07159">
        <ele>254</ele>
        <time>2021-08-27T14:44:15Z</time>
      </trkpt>
      <trkpt lat="43.43208" lon="6.07258">
        <ele>256</ele>
        <time>2021-08-27T14:44:28Z</time>
      </trkpt>
      <trkpt lat="43.43206" lon="6.07293">
        <ele>258</ele>
        <time>2021-08-27T14:44:32Z</time>
      </trkpt>
      <trkpt lat="43.43221" lon="6.07589">
        <ele>266</ele>
        <time>2021-08-27T14:45:11Z</time>
      </trkpt>
      <trkpt lat="43.43227" lon="6.07682">
        <ele>267</ele>
        <time>2021-08-27T14:45:23Z</time>
      </trkpt>
      <trkpt lat="43.43224" lon="6.07691">
        <ele>268</ele>
        <time>2021-08-27T14:45:24Z</time>
      </trkpt>
      <trkpt lat="43.4322" lon="6.07694">
        <ele>269</ele>
        <time>2021-08-27T14:45:25Z</time>
      </trkpt>
      <trkpt lat="43.43216" lon="6.07693">
        <ele>270</ele>
        <time>2021-08-27T14:45:26Z</time>
      </trkpt>
      <trkpt lat="43.43212" lon="6.07688">
        <ele>271</ele>
        <time>2021-08-27T14:45:27Z</time>
      </trkpt>
      <trkpt lat="43.4321" lon="6.07677">
        <ele>271</ele>
        <time>2021-08-27T14:45:28Z</time>
      </trkpt>
      <trkpt lat="43.43208" lon="6.07615">
        <ele>270</ele>
        <time>2021-08-27T14:45:36Z</time>
      </trkpt>
      <trkpt lat="43.432" lon="6.07543">
        <ele>272</ele>
        <time>2021-08-27T14:45:46Z</time>
      </trkpt>
      <trkpt lat="43.43183" lon="6.07452">
        <ele>276</ele>
        <time>2021-08-27T14:45:58Z</time>
      </trkpt>
      <trkpt lat="43.4317" lon="6.07401">
        <ele>279</ele>
        <time>2021-08-27T14:46:05Z</time>
      </trkpt>
      <trkpt lat="43.43155" lon="6.07352">
        <ele>279</ele>
        <time>2021-08-27T14:46:12Z</time>
      </trkpt>
      <trkpt lat="43.43126" lon="6.0728">
        <ele>282</ele>
        <time>2021-08-27T14:46:22Z</time>
      </trkpt>
      <trkpt lat="43.43098" lon="6.0722">
        <ele>285</ele>
        <time>2021-08-27T14:46:31Z</time>
      </trkpt>
      <trkpt lat="43.43074" lon="6.07183">
        <ele>285</ele>
        <time>2021-08-27T14:46:38Z</time>
      </trkpt>
      <trkpt lat="43.43061" lon="6.07168">
        <ele>285</ele>
        <time>2021-08-27T14:46:41Z</time>
      </trkpt>
      <trkpt lat="43.43051" lon="6.07162">
        <ele>286</ele>
        <time>2021-08-27T14:46:43Z</time>
      </trkpt>
      <trkpt lat="43.43039" lon="6.0716">
        <ele>288</ele>
        <time>2021-08-27T14:46:45Z</time>
      </trkpt>
      <trkpt lat="43.42938" lon="6.07157">
        <ele>283</ele>
        <time>2021-08-27T14:47:03Z</time>
      </trkpt>
      <trkpt lat="43.42871" lon="6.07158">
        <ele>279</ele>
        <time>2021-08-27T14:47:15Z</time>
      </trkpt>
      <trkpt lat="43.42807" lon="6.07163">
        <ele>278</ele>
        <time>2021-08-27T14:47:26Z</time>
      </trkpt>
      <trkpt lat="43.42717" lon="6.07149">
        <ele>277</ele>
        <time>2021-08-27T14:47:42Z</time>
      </trkpt>
      <trkpt lat="43.42595" lon="6.07127">
        <ele>268</ele>
        <time>2021-08-27T14:48:04Z</time>
      </trkpt>
      <trkpt lat="43.42566" lon="6.07124">
        <ele>266</ele>
        <time>2021-08-27T14:48:09Z</time>
      </trkpt>
      <trkpt lat="43.42543" lon="6.07126">
        <ele>265</ele>
        <time>2021-08-27T14:48:13Z</time>
      </trkpt>
      <trkpt lat="43.42518" lon="6.07134">
        <ele>263</ele>
        <time>2021-08-27T14:48:18Z</time>
      </trkpt>
      <trkpt lat="43.42499" lon="6.07139">
        <ele>262</ele>
        <time>2021-08-27T14:48:21Z</time>
      </trkpt>
      <trkpt lat="43.4248" lon="6.07139">
        <ele>261</ele>
        <time>2021-08-27T14:48:25Z</time>
      </trkpt>
      <trkpt lat="43.4241" lon="6.07131">
        <ele>256</ele>
        <time>2021-08-27T14:48:37Z</time>
      </trkpt>
      <trkpt lat="43.42368" lon="6.07125">
        <ele>251</ele>
        <time>2021-08-27T14:48:45Z</time>
      </trkpt>
      <trkpt lat="43.4235" lon="6.07113">
        <ele>250</ele>
        <time>2021-08-27T14:48:48Z</time>
      </trkpt>
      <trkpt lat="43.42323" lon="6.07088">
        <ele>248</ele>
        <time>2021-08-27T14:48:54Z</time>
      </trkpt>
      <trkpt lat="43.4231" lon="6.0708">
        <ele>247</ele>
        <time>2021-08-27T14:48:57Z</time>
      </trkpt>
      <trkpt lat="43.42298" lon="6.07075">
        <ele>247</ele>
        <time>2021-08-27T14:48:59Z</time>
      </trkpt>
      <trkpt lat="43.4218" lon="6.07055">
        <ele>241</ele>
        <time>2021-08-27T14:49:20Z</time>
      </trkpt>
      <trkpt lat="43.42156" lon="6.07039">
        <ele>241</ele>
        <time>2021-08-27T14:49:25Z</time>
      </trkpt>
      <trkpt lat="43.42153" lon="6.07033">
        <ele>241</ele>
        <time>2021-08-27T14:49:26Z</time>
      </trkpt>
      <trkpt lat="43.42151" lon="6.07006">
        <ele>241</ele>
        <time>2021-08-27T14:49:29Z</time>
      </trkpt>
      <trkpt lat="43.42157" lon="6.0697">
        <ele>242</ele>
        <time>2021-08-27T14:49:34Z</time>
      </trkpt>
      <trkpt lat="43.42157" lon="6.06946">
        <ele>241</ele>
        <time>2021-08-27T14:49:37Z</time>
      </trkpt>
      <trkpt lat="43.42156" lon="6.06913">
        <ele>241</ele>
        <time>2021-08-27T14:49:41Z</time>
      </trkpt>
      <trkpt lat="43.42149" lon="6.06808">
        <ele>245</ele>
        <time>2021-08-27T14:49:55Z</time>
      </trkpt>
      <trkpt lat="43.42146" lon="6.06791">
        <ele>246</ele>
        <time>2021-08-27T14:49:57Z</time>
      </trkpt>
      <trkpt lat="43.42136" lon="6.06761">
        <ele>249</ele>
        <time>2021-08-27T14:50:02Z</time>
      </trkpt>
      <trkpt lat="43.42129" lon="6.06747">
        <ele>249</ele>
        <time>2021-08-27T14:50:04Z</time>
      </trkpt>
      <trkpt lat="43.42112" lon="6.0672">
        <ele>249</ele>
        <time>2021-08-27T14:50:08Z</time>
      </trkpt>
      <trkpt lat="43.42082" lon="6.06693">
        <ele>247</ele>
        <time>2021-08-27T14:50:15Z</time>
      </trkpt>
      <trkpt lat="43.41999" lon="6.06629">
        <ele>248</ele>
        <time>2021-08-27T14:50:32Z</time>
      </trkpt>
      <trkpt lat="43.41966" lon="6.0661">
        <ele>246</ele>
        <time>2021-08-27T14:50:38Z</time>
      </trkpt>
      <trkpt lat="43.41933" lon="6.06588">
        <ele>244</ele>
        <time>2021-08-27T14:50:45Z</time>
      </trkpt>
      <trkpt lat="43.41909" lon="6.06563">
        <ele>242</ele>
        <time>2021-08-27T14:50:50Z</time>
      </trkpt>
      <trkpt lat="43.41871" lon="6.06502">
        <ele>240</ele>
        <time>2021-08-27T14:51:00Z</time>
      </trkpt>
      <trkpt lat="43.41856" lon="6.06486">
        <ele>240</ele>
        <time>2021-08-27T14:51:04Z</time>
      </trkpt>
      <trkpt lat="43.41846" lon="6.06483">
        <ele>239</ele>
        <time>2021-08-27T14:51:06Z</time>
      </trkpt>
      <trkpt lat="43.41832" lon="6.06482">
        <ele>239</ele>
        <time>2021-08-27T14:51:08Z</time>
      </trkpt>
      <trkpt lat="43.41805" lon="6.06472">
        <ele>237</ele>
        <time>2021-08-27T14:51:13Z</time>
      </trkpt>
      <trkpt lat="43.41792" lon="6.06471">
        <ele>237</ele>
        <time>2021-08-27T14:51:15Z</time>
      </trkpt>
      <trkpt lat="43.41754" lon="6.06478">
        <ele>235</ele>
        <time>2021-08-27T14:51:22Z</time>
      </trkpt>
      <trkpt lat="43.41741" lon="6.06478">
        <ele>234</ele>
        <time>2021-08-27T14:51:24Z</time>
      </trkpt>
      <trkpt lat="43.41726" lon="6.06474">
        <ele>233</ele>
        <time>2021-08-27T14:51:27Z</time>
      </trkpt>
      <trkpt lat="43.41715" lon="6.06474">
        <ele>232</ele>
        <time>2021-08-27T14:51:29Z</time>
      </trkpt>
      <trkpt lat="43.4168" lon="6.06476">
        <ele>230</ele>
        <time>2021-08-27T14:51:35Z</time>
      </trkpt>
      <trkpt lat="43.41629" lon="6.06496">
        <ele>227</ele>
        <time>2021-08-27T14:51:45Z</time>
      </trkpt>
      <trkpt lat="43.41616" lon="6.06497">
        <ele>226</ele>
        <time>2021-08-27T14:51:47Z</time>
      </trkpt>
      <trkpt lat="43.41569" lon="6.0649">
        <ele>224</ele>
        <time>2021-08-27T14:51:56Z</time>
      </trkpt>
      <trkpt lat="43.41558" lon="6.06486">
        <ele>223</ele>
        <time>2021-08-27T14:51:58Z</time>
      </trkpt>
      <trkpt lat="43.41547" lon="6.06474">
        <ele>223</ele>
        <time>2021-08-27T14:52:00Z</time>
      </trkpt>
      <trkpt lat="43.41542" lon="6.06456">
        <ele>223</ele>
        <time>2021-08-27T14:52:03Z</time>
      </trkpt>
      <trkpt lat="43.41542" lon="6.06443">
        <ele>223</ele>
        <time>2021-08-27T14:52:04Z</time>
      </trkpt>
      <trkpt lat="43.41552" lon="6.06381">
        <ele>223</ele>
        <time>2021-08-27T14:52:12Z</time>
      </trkpt>
      <trkpt lat="43.41559" lon="6.06352">
        <ele>222</ele>
        <time>2021-08-27T14:52:16Z</time>
      </trkpt>
      <trkpt lat="43.41584" lon="6.0631">
        <ele>223</ele>
        <time>2021-08-27T14:52:23Z</time>
      </trkpt>
      <trkpt lat="43.41585" lon="6.06297">
        <ele>224</ele>
        <time>2021-08-27T14:52:25Z</time>
      </trkpt>
      <trkpt lat="43.41581" lon="6.06266">
        <ele>224</ele>
        <time>2021-08-27T14:52:29Z</time>
      </trkpt>
      <trkpt lat="43.41586" lon="6.06258">
        <ele>224</ele>
        <time>2021-08-27T14:52:31Z</time>
      </trkpt>
      <trkpt lat="43.4159" lon="6.06244">
        <ele>225</ele>
        <time>2021-08-27T14:52:32Z</time>
      </trkpt>
      <trkpt lat="43.41591" lon="6.06228">
        <ele>225</ele>
        <time>2021-08-27T14:52:35Z</time>
      </trkpt>
      <trkpt lat="43.41586" lon="6.0621">
        <ele>226</ele>
        <time>2021-08-27T14:52:37Z</time>
      </trkpt>
      <trkpt lat="43.41599" lon="6.06201">
        <ele>227</ele>
        <time>2021-08-27T14:52:40Z</time>
      </trkpt>
      <trkpt lat="43.41598" lon="6.06182">
        <ele>228</ele>
        <time>2021-08-27T14:52:42Z</time>
      </trkpt>
      <trkpt lat="43.41601" lon="6.06171">
        <ele>229</ele>
        <time>2021-08-27T14:52:44Z</time>
      </trkpt>
      <trkpt lat="43.41606" lon="6.0616">
        <ele>229</ele>
        <time>2021-08-27T14:52:45Z</time>
      </trkpt>
      <trkpt lat="43.41629" lon="6.06126">
        <ele>231</ele>
        <time>2021-08-27T14:52:51Z</time>
      </trkpt>
      <trkpt lat="43.41617" lon="6.06107">
        <ele>232</ele>
        <time>2021-08-27T14:52:55Z</time>
      </trkpt>
      <trkpt lat="43.41614" lon="6.06089">
        <ele>232</ele>
        <time>2021-08-27T14:52:57Z</time>
      </trkpt>
      <trkpt lat="43.41613" lon="6.06073">
        <ele>233</ele>
        <time>2021-08-27T14:52:59Z</time>
      </trkpt>
      <trkpt lat="43.41624" lon="6.05989">
        <ele>234</ele>
        <time>2021-08-27T14:53:10Z</time>
      </trkpt>
      <trkpt lat="43.41636" lon="6.05906">
        <ele>233</ele>
        <time>2021-08-27T14:53:21Z</time>
      </trkpt>
      <trkpt lat="43.41643" lon="6.05823">
        <ele>232</ele>
        <time>2021-08-27T14:53:32Z</time>
      </trkpt>
      <trkpt lat="43.41645" lon="6.05765">
        <ele>233</ele>
        <time>2021-08-27T14:53:39Z</time>
      </trkpt>
      <trkpt lat="43.41641" lon="6.05677">
        <ele>233</ele>
        <time>2021-08-27T14:53:51Z</time>
      </trkpt>
      <trkpt lat="43.41632" lon="6.05597">
        <ele>233</ele>
        <time>2021-08-27T14:54:01Z</time>
      </trkpt>
      <trkpt lat="43.41623" lon="6.0555">
        <ele>232</ele>
        <time>2021-08-27T14:54:07Z</time>
      </trkpt>
      <trkpt lat="43.41592" lon="6.05444">
        <ele>231</ele>
        <time>2021-08-27T14:54:22Z</time>
      </trkpt>
      <trkpt lat="43.4157" lon="6.05373">
        <ele>230</ele>
        <time>2021-08-27T14:54:32Z</time>
      </trkpt>
      <trkpt lat="43.41556" lon="6.05338">
        <ele>229</ele>
        <time>2021-08-27T14:54:37Z</time>
      </trkpt>
      <trkpt lat="43.41537" lon="6.05274">
        <ele>227</ele>
        <time>2021-08-27T14:54:46Z</time>
      </trkpt>
      <trkpt lat="43.4152" lon="6.05233">
        <ele>226</ele>
        <time>2021-08-27T14:54:52Z</time>
      </trkpt>
      <trkpt lat="43.41487" lon="6.05169">
        <ele>225</ele>
        <time>2021-08-27T14:55:03Z</time>
      </trkpt>
      <trkpt lat="43.41498" lon="6.0516">
        <ele>225</ele>
        <time>2021-08-27T14:55:05Z</time>
      </trkpt>
      <trkpt lat="43.41507" lon="6.05158">
        <ele>226</ele>
        <time>2021-08-27T14:55:06Z</time>
      </trkpt>
      <trkpt lat="43.41498" lon="6.0516">
        <ele>225</ele>
        <time>2021-08-27T14:55:08Z</time>
      </trkpt>
      <trkpt lat="43.41487" lon="6.05169">
        <ele>225</ele>
        <time>2021-08-27T14:55:10Z</time>
      </trkpt>
      <trkpt lat="43.41461" lon="6.05109">
        <ele>228</ele>
        <time>2021-08-27T14:55:19Z</time>
      </trkpt>
      <trkpt lat="43.41389" lon="6.04952">
        <ele>229</ele>
        <time>2021-08-27T14:55:43Z</time>
      </trkpt>
      <trkpt lat="43.41369" lon="6.04923">
        <ele>228</ele>
        <time>2021-08-27T14:55:49Z</time>
      </trkpt>
      <trkpt lat="43.4131" lon="6.04811">
        <ele>226</ele>
        <time>2021-08-27T14:56:06Z</time>
      </trkpt>
      <trkpt lat="43.41266" lon="6.04748">
        <ele>223</ele>
        <time>2021-08-27T14:56:18Z</time>
      </trkpt>
      <trkpt lat="43.41205" lon="6.04657">
        <ele>223</ele>
        <time>2021-08-27T14:56:34Z</time>
      </trkpt>
      <trkpt lat="43.41066" lon="6.0448">
        <ele>222</ele>
        <time>2021-08-27T14:57:07Z</time>
      </trkpt>
      <trkpt lat="43.41042" lon="6.04446">
        <ele>223</ele>
        <time>2021-08-27T14:57:14Z</time>
      </trkpt>
      <trkpt lat="43.41026" lon="6.04415">
        <ele>224</ele>
        <time>2021-08-27T14:57:18Z</time>
      </trkpt>
      <trkpt lat="43.4102" lon="6.04396">
        <ele>224</ele>
        <time>2021-08-27T14:57:21Z</time>
      </trkpt>
      <trkpt lat="43.40996" lon="6.04303">
        <ele>224</ele>
        <time>2021-08-27T14:57:34Z</time>
      </trkpt>
      <trkpt lat="43.40994" lon="6.04297">
        <ele>224</ele>
        <time>2021-08-27T14:57:35Z</time>
      </trkpt>
      <trkpt lat="43.40989" lon="6.04292">
        <ele>224</ele>
        <time>2021-08-27T14:57:36Z</time>
      </trkpt>
      <trkpt lat="43.40974" lon="6.04289">
        <ele>223</ele>
        <time>2021-08-27T14:57:39Z</time>
      </trkpt>
      <trkpt lat="43.40954" lon="6.04291">
        <ele>222</ele>
        <time>2021-08-27T14:57:42Z</time>
      </trkpt>
      <trkpt lat="43.40932" lon="6.04296">
        <ele>221</ele>
        <time>2021-08-27T14:57:46Z</time>
      </trkpt>
      <trkpt lat="43.40921" lon="6.04293">
        <ele>221</ele>
        <time>2021-08-27T14:57:48Z</time>
      </trkpt>
      <trkpt lat="43.40914" lon="6.04279">
        <ele>221</ele>
        <time>2021-08-27T14:57:50Z</time>
      </trkpt>
      <trkpt lat="43.40905" lon="6.04273">
        <ele>222</ele>
        <time>2021-08-27T14:57:52Z</time>
      </trkpt>
      <trkpt lat="43.40893" lon="6.04273">
        <ele>222</ele>
        <time>2021-08-27T14:57:54Z</time>
      </trkpt>
      <trkpt lat="43.40885" lon="6.04278">
        <ele>222</ele>
        <time>2021-08-27T14:57:56Z</time>
      </trkpt>
      <trkpt lat="43.4088" lon="6.04287">
        <ele>222</ele>
        <time>2021-08-27T14:57:57Z</time>
      </trkpt>
      <trkpt lat="43.40847" lon="6.04299">
        <ele>222</ele>
        <time>2021-08-27T14:58:03Z</time>
      </trkpt>
      <trkpt lat="43.40813" lon="6.04326">
        <ele>222</ele>
        <time>2021-08-27T14:58:10Z</time>
      </trkpt>
      <trkpt lat="43.40794" lon="6.04335">
        <ele>221</ele>
        <time>2021-08-27T14:58:14Z</time>
      </trkpt>
      <trkpt lat="43.40777" lon="6.04339">
        <ele>222</ele>
        <time>2021-08-27T14:58:17Z</time>
      </trkpt>
      <trkpt lat="43.40744" lon="6.0434">
        <ele>222</ele>
        <time>2021-08-27T14:58:23Z</time>
      </trkpt>
      <trkpt lat="43.40589" lon="6.04333">
        <ele>224</ele>
        <time>2021-08-27T14:58:50Z</time>
      </trkpt>
      <trkpt lat="43.40546" lon="6.04333">
        <ele>222</ele>
        <time>2021-08-27T14:58:58Z</time>
      </trkpt>
      <trkpt lat="43.40431" lon="6.04344">
        <ele>218</ele>
        <time>2021-08-27T14:59:19Z</time>
      </trkpt>
      <trkpt lat="43.40334" lon="6.04358">
        <ele>218</ele>
        <time>2021-08-27T14:59:36Z</time>
      </trkpt>
      <trkpt lat="43.4028" lon="6.04368">
        <ele>218</ele>
        <time>2021-08-27T14:59:46Z</time>
      </trkpt>
      <trkpt lat="43.40262" lon="6.04373">
        <ele>218</ele>
        <time>2021-08-27T14:59:49Z</time>
      </trkpt>
      <trkpt lat="43.40191" lon="6.04392">
        <ele>217</ele>
        <time>2021-08-27T15:00:02Z</time>
      </trkpt>
      <trkpt lat="43.40118" lon="6.04418">
        <ele>217</ele>
        <time>2021-08-27T15:00:15Z</time>
      </trkpt>
      <trkpt lat="43.40058" lon="6.04443">
        <ele>217</ele>
        <time>2021-08-27T15:00:26Z</time>
      </trkpt>
      <trkpt lat="43.39956" lon="6.04494">
        <ele>218</ele>
        <time>2021-08-27T15:00:46Z</time>
      </trkpt>
      <trkpt lat="43.39875" lon="6.04526">
        <ele>220</ele>
        <time>2021-08-27T15:01:01Z</time>
      </trkpt>
      <trkpt lat="43.39805" lon="6.04545">
        <ele>222</ele>
        <time>2021-08-27T15:01:13Z</time>
      </trkpt>
      <trkpt lat="43.39697" lon="6.04561">
        <ele>223</ele>
        <time>2021-08-27T15:01:33Z</time>
      </trkpt>
      <trkpt lat="43.39659" lon="6.04572">
        <ele>224</ele>
        <time>2021-08-27T15:01:40Z</time>
      </trkpt>
      <trkpt lat="43.39641" lon="6.04575">
        <ele>224</ele>
        <time>2021-08-27T15:01:43Z</time>
      </trkpt>
      <trkpt lat="43.39628" lon="6.04573">
        <ele>225</ele>
        <time>2021-08-27T15:01:45Z</time>
      </trkpt>
      <trkpt lat="43.39621" lon="6.04571">
        <ele>225</ele>
        <time>2021-08-27T15:01:46Z</time>
      </trkpt>
      <trkpt lat="43.3961" lon="6.04559">
        <ele>226</ele>
        <time>2021-08-27T15:01:49Z</time>
      </trkpt>
      <trkpt lat="43.39597" lon="6.04555">
        <ele>227</ele>
        <time>2021-08-27T15:01:51Z</time>
      </trkpt>
      <trkpt lat="43.39584" lon="6.04559">
        <ele>227</ele>
        <time>2021-08-27T15:01:54Z</time>
      </trkpt>
      <trkpt lat="43.39579" lon="6.04564">
        <ele>227</ele>
        <time>2021-08-27T15:01:55Z</time>
      </trkpt>
      <trkpt lat="43.39572" lon="6.04575">
        <ele>226</ele>
        <time>2021-08-27T15:01:57Z</time>
      </trkpt>
      <trkpt lat="43.39569" lon="6.04583">
        <ele>225</ele>
        <time>2021-08-27T15:01:58Z</time>
      </trkpt>
      <trkpt lat="43.39567" lon="6.04602">
        <ele>226</ele>
        <time>2021-08-27T15:02:00Z</time>
      </trkpt>
      <trkpt lat="43.3957" lon="6.04614">
        <ele>226</ele>
        <time>2021-08-27T15:02:02Z</time>
      </trkpt>
      <trkpt lat="43.3956" lon="6.04637">
        <ele>227</ele>
        <time>2021-08-27T15:02:05Z</time>
      </trkpt>
      <trkpt lat="43.39541" lon="6.04654">
        <ele>228</ele>
        <time>2021-08-27T15:02:09Z</time>
      </trkpt>
      <trkpt lat="43.39498" lon="6.047">
        <ele>233</ele>
        <time>2021-08-27T15:02:19Z</time>
      </trkpt>
      <trkpt lat="43.3946" lon="6.04735">
        <ele>235</ele>
        <time>2021-08-27T15:02:27Z</time>
      </trkpt>
      <trkpt lat="43.39447" lon="6.04742">
        <ele>235</ele>
        <time>2021-08-27T15:02:30Z</time>
      </trkpt>
      <trkpt lat="43.39416" lon="6.04747">
        <ele>234</ele>
        <time>2021-08-27T15:02:35Z</time>
      </trkpt>
      <trkpt lat="43.394" lon="6.04747">
        <ele>235</ele>
        <time>2021-08-27T15:02:38Z</time>
      </trkpt>
      <trkpt lat="43.39385" lon="6.04742">
        <ele>236</ele>
        <time>2021-08-27T15:02:41Z</time>
      </trkpt>
      <trkpt lat="43.39334" lon="6.04712">
        <ele>236</ele>
        <time>2021-08-27T15:02:51Z</time>
      </trkpt>
      <trkpt lat="43.39271" lon="6.04695">
        <ele>235</ele>
        <time>2021-08-27T15:03:02Z</time>
      </trkpt>
      <trkpt lat="43.39174" lon="6.04651">
        <ele>234</ele>
        <time>2021-08-27T15:03:20Z</time>
      </trkpt>
      <trkpt lat="43.39108" lon="6.04624">
        <ele>236</ele>
        <time>2021-08-27T15:03:33Z</time>
      </trkpt>
      <trkpt lat="43.39004" lon="6.04614">
        <ele>242</ele>
        <time>2021-08-27T15:03:51Z</time>
      </trkpt>
      <trkpt lat="43.38982" lon="6.04608">
        <ele>242</ele>
        <time>2021-08-27T15:03:55Z</time>
      </trkpt>
      <trkpt lat="43.38971" lon="6.04602">
        <ele>242</ele>
        <time>2021-08-27T15:03:57Z</time>
      </trkpt>
      <trkpt lat="43.38962" lon="6.0464">
        <ele>246</ele>
        <time>2021-08-27T15:04:02Z</time>
      </trkpt>
      <trkpt lat="43.38953" lon="6.04659">
        <ele>248</ele>
        <time>2021-08-27T15:04:05Z</time>
      </trkpt>
      <trkpt lat="43.38937" lon="6.04675">
        <ele>251</ele>
        <time>2021-08-27T15:04:09Z</time>
      </trkpt>
      <trkpt lat="43.38879" lon="6.04675">
        <ele>252</ele>
        <time>2021-08-27T15:04:19Z</time>
      </trkpt>
      <trkpt lat="43.38825" lon="6.04621">
        <ele>247</ele>
        <time>2021-08-27T15:04:31Z</time>
      </trkpt>
      <trkpt lat="43.3882" lon="6.04622">
        <ele>247</ele>
        <time>2021-08-27T15:04:32Z</time>
      </trkpt>
      <trkpt lat="43.38797" lon="6.04646">
        <ele>249</ele>
        <time>2021-08-27T15:04:37Z</time>
      </trkpt>
      <trkpt lat="43.38765" lon="6.0466">
        <ele>250</ele>
        <time>2021-08-27T15:04:43Z</time>
      </trkpt>
      <trkpt lat="43.38725" lon="6.04691">
        <ele>252</ele>
        <time>2021-08-27T15:04:51Z</time>
      </trkpt>
      <trkpt lat="43.38717" lon="6.04707">
        <ele>252</ele>
        <time>2021-08-27T15:04:54Z</time>
      </trkpt>
      <trkpt lat="43.3872" lon="6.04723">
        <ele>254</ele>
        <time>2021-08-27T15:04:56Z</time>
      </trkpt>
      <trkpt lat="43.38723" lon="6.04832">
        <ele>259</ele>
        <time>2021-08-27T15:05:10Z</time>
      </trkpt>
      <trkpt lat="43.38716" lon="6.04934">
        <ele>258</ele>
        <time>2021-08-27T15:05:23Z</time>
      </trkpt>
      <trkpt lat="43.38691" lon="6.0503">
        <ele>257</ele>
        <time>2021-08-27T15:05:36Z</time>
      </trkpt>
      <trkpt lat="43.38689" lon="6.05118">
        <ele>258</ele>
        <time>2021-08-27T15:05:48Z</time>
      </trkpt>
      <trkpt lat="43.38687" lon="6.05156">
        <ele>257</ele>
        <time>2021-08-27T15:05:53Z</time>
      </trkpt>
      <trkpt lat="43.38689" lon="6.05196">
        <ele>258</ele>
        <time>2021-08-27T15:05:58Z</time>
      </trkpt>
      <trkpt lat="43.38682" lon="6.0529">
        <ele>257</ele>
        <time>2021-08-27T15:06:10Z</time>
      </trkpt>
      <trkpt lat="43.3867" lon="6.05339">
        <ele>257</ele>
        <time>2021-08-27T15:06:17Z</time>
      </trkpt>
      <trkpt lat="43.38665" lon="6.05379">
        <ele>259</ele>
        <time>2021-08-27T15:06:22Z</time>
      </trkpt>
      <trkpt lat="43.38668" lon="6.05458">
        <ele>261</ele>
        <time>2021-08-27T15:06:32Z</time>
      </trkpt>
      <trkpt lat="43.38676" lon="6.05474">
        <ele>261</ele>
        <time>2021-08-27T15:06:35Z</time>
      </trkpt>
      <trkpt lat="43.38674" lon="6.05492">
        <ele>261</ele>
        <time>2021-08-27T15:06:37Z</time>
      </trkpt>
      <trkpt lat="43.38661" lon="6.05545">
        <ele>259</ele>
        <time>2021-08-27T15:06:44Z</time>
      </trkpt>
      <trkpt lat="43.3866" lon="6.05605">
        <ele>259</ele>
        <time>2021-08-27T15:06:52Z</time>
      </trkpt>
      <trkpt lat="43.38662" lon="6.05659">
        <ele>260</ele>
        <time>2021-08-27T15:06:59Z</time>
      </trkpt>
      <trkpt lat="43.38663" lon="6.05741">
        <ele>260</ele>
        <time>2021-08-27T15:07:10Z</time>
      </trkpt>
      <trkpt lat="43.38666" lon="6.05776">
        <ele>260</ele>
        <time>2021-08-27T15:07:14Z</time>
      </trkpt>
      <trkpt lat="43.38664" lon="6.05869">
        <ele>260</ele>
        <time>2021-08-27T15:07:26Z</time>
      </trkpt>
      <trkpt lat="43.38656" lon="6.05902">
        <ele>261</ele>
        <time>2021-08-27T15:07:31Z</time>
      </trkpt>
      <trkpt lat="43.38653" lon="6.05973">
        <ele>262</ele>
        <time>2021-08-27T15:07:40Z</time>
      </trkpt>
      <trkpt lat="43.38637" lon="6.06099">
        <ele>261</ele>
        <time>2021-08-27T15:07:57Z</time>
      </trkpt>
      <trkpt lat="43.38634" lon="6.06222">
        <ele>261</ele>
        <time>2021-08-27T15:08:12Z</time>
      </trkpt>
      <trkpt lat="43.38631" lon="6.06269">
        <ele>260</ele>
        <time>2021-08-27T15:08:19Z</time>
      </trkpt>
      <trkpt lat="43.38591" lon="6.06478">
        <ele>257</ele>
        <time>2021-08-27T15:08:46Z</time>
      </trkpt>
      <trkpt lat="43.38589" lon="6.06594">
        <ele>257</ele>
        <time>2021-08-27T15:09:01Z</time>
      </trkpt>
      <trkpt lat="43.38584" lon="6.06676">
        <ele>258</ele>
        <time>2021-08-27T15:09:12Z</time>
      </trkpt>
      <trkpt lat="43.38587" lon="6.06704">
        <ele>258</ele>
        <time>2021-08-27T15:09:16Z</time>
      </trkpt>
      <trkpt lat="43.38593" lon="6.06734">
        <ele>259</ele>
        <time>2021-08-27T15:09:20Z</time>
      </trkpt>
      <trkpt lat="43.38594" lon="6.0684">
        <ele>259</ele>
        <time>2021-08-27T15:09:34Z</time>
      </trkpt>
      <trkpt lat="43.38596" lon="6.06858">
        <ele>260</ele>
        <time>2021-08-27T15:09:36Z</time>
      </trkpt>
      <trkpt lat="43.38595" lon="6.06873">
        <ele>260</ele>
        <time>2021-08-27T15:09:38Z</time>
      </trkpt>
      <trkpt lat="43.38587" lon="6.06901">
        <ele>260</ele>
        <time>2021-08-27T15:09:42Z</time>
      </trkpt>
      <trkpt lat="43.38571" lon="6.06942">
        <ele>259</ele>
        <time>2021-08-27T15:09:48Z</time>
      </trkpt>
      <trkpt lat="43.38565" lon="6.0698">
        <ele>259</ele>
        <time>2021-08-27T15:09:53Z</time>
      </trkpt>
      <trkpt lat="43.3855" lon="6.07122">
        <ele>258</ele>
        <time>2021-08-27T15:10:11Z</time>
      </trkpt>
      <trkpt lat="43.3854" lon="6.0717">
        <ele>258</ele>
        <time>2021-08-27T15:10:18Z</time>
      </trkpt>
      <trkpt lat="43.38523" lon="6.07349">
        <ele>260</ele>
        <time>2021-08-27T15:10:41Z</time>
      </trkpt>
      <trkpt lat="43.3852" lon="6.07414">
        <ele>259</ele>
        <time>2021-08-27T15:10:50Z</time>
      </trkpt>
      <trkpt lat="43.38529" lon="6.07653">
        <ele>262</ele>
        <time>2021-08-27T15:11:20Z</time>
      </trkpt>
      <trkpt lat="43.385" lon="6.07661">
        <ele>262</ele>
        <time>2021-08-27T15:11:26Z</time>
      </trkpt>
      <trkpt lat="43.38529" lon="6.07653">
        <ele>262</ele>
        <time>2021-08-27T15:11:31Z</time>
      </trkpt>
      <trkpt lat="43.38533" lon="6.07747">
        <ele>261</ele>
        <time>2021-08-27T15:11:43Z</time>
      </trkpt>
      <trkpt lat="43.38559" lon="6.07843">
        <ele>263</ele>
        <time>2021-08-27T15:11:56Z</time>
      </trkpt>
      <trkpt lat="43.38567" lon="6.07897">
        <ele>262</ele>
        <time>2021-08-27T15:12:04Z</time>
      </trkpt>
      <trkpt lat="43.38567" lon="6.08024">
        <ele>263</ele>
        <time>2021-08-27T15:12:20Z</time>
      </trkpt>
      <trkpt lat="43.38576" lon="6.08057">
        <ele>263</ele>
        <time>2021-08-27T15:12:25Z</time>
      </trkpt>
      <trkpt lat="43.38607" lon="6.08127">
        <ele>265</ele>
        <time>2021-08-27T15:12:35Z</time>
      </trkpt>
      <trkpt lat="43.38633" lon="6.0818">
        <ele>267</ele>
        <time>2021-08-27T15:12:43Z</time>
      </trkpt>
      <trkpt lat="43.38635" lon="6.08217">
        <ele>267</ele>
        <time>2021-08-27T15:12:48Z</time>
      </trkpt>
      <trkpt lat="43.38633" lon="6.08308">
        <ele>268</ele>
        <time>2021-08-27T15:13:00Z</time>
      </trkpt>
      <trkpt lat="43.38631" lon="6.08366">
        <ele>268</ele>
        <time>2021-08-27T15:13:07Z</time>
      </trkpt>
      <trkpt lat="43.38641" lon="6.08454">
        <ele>269</ele>
        <time>2021-08-27T15:13:19Z</time>
      </trkpt>
      <trkpt lat="43.38642" lon="6.08512">
        <ele>270</ele>
        <time>2021-08-27T15:13:26Z</time>
      </trkpt>
      <trkpt lat="43.38627" lon="6.0859">
        <ele>271</ele>
        <time>2021-08-27T15:13:37Z</time>
      </trkpt>
      <trkpt lat="43.38582" lon="6.08731">
        <ele>268</ele>
        <time>2021-08-27T15:13:57Z</time>
      </trkpt>
      <trkpt lat="43.38582" lon="6.08746">
        <ele>268</ele>
        <time>2021-08-27T15:13:59Z</time>
      </trkpt>
      <trkpt lat="43.38594" lon="6.08796">
        <ele>270</ele>
        <time>2021-08-27T15:14:06Z</time>
      </trkpt>
      <trkpt lat="43.3861" lon="6.08843">
        <ele>272</ele>
        <time>2021-08-27T15:14:12Z</time>
      </trkpt>
      <trkpt lat="43.3862" lon="6.08867">
        <ele>273</ele>
        <time>2021-08-27T15:14:16Z</time>
      </trkpt>
      <trkpt lat="43.38624" lon="6.08884">
        <ele>274</ele>
        <time>2021-08-27T15:14:18Z</time>
      </trkpt>
      <trkpt lat="43.38622" lon="6.08931">
        <ele>274</ele>
        <time>2021-08-27T15:14:24Z</time>
      </trkpt>
      <trkpt lat="43.38622" lon="6.08974">
        <ele>275</ele>
        <time>2021-08-27T15:14:30Z</time>
      </trkpt>
      <trkpt lat="43.38648" lon="6.09022">
        <ele>280</ele>
        <time>2021-08-27T15:14:38Z</time>
      </trkpt>
      <trkpt lat="43.38656" lon="6.09046">
        <ele>282</ele>
        <time>2021-08-27T15:14:41Z</time>
      </trkpt>
      <trkpt lat="43.38658" lon="6.09068">
        <ele>282</ele>
        <time>2021-08-27T15:14:44Z</time>
      </trkpt>
      <trkpt lat="43.38655" lon="6.09082">
        <ele>282</ele>
        <time>2021-08-27T15:14:46Z</time>
      </trkpt>
      <trkpt lat="43.38649" lon="6.09102">
        <ele>281</ele>
        <time>2021-08-27T15:14:49Z</time>
      </trkpt>
      <trkpt lat="43.38642" lon="6.09143">
        <ele>281</ele>
        <time>2021-08-27T15:14:54Z</time>
      </trkpt>
      <trkpt lat="43.38634" lon="6.0926">
        <ele>284</ele>
        <time>2021-08-27T15:15:09Z</time>
      </trkpt>
      <trkpt lat="43.3866" lon="6.09271">
        <ele>290</ele>
        <time>2021-08-27T15:15:14Z</time>
      </trkpt>
      <trkpt lat="43.38666" lon="6.09285">
        <ele>291</ele>
        <time>2021-08-27T15:15:16Z</time>
      </trkpt>
      <trkpt lat="43.38671" lon="6.09352">
        <ele>293</ele>
        <time>2021-08-27T15:15:25Z</time>
      </trkpt>
      <trkpt lat="43.38674" lon="6.09365">
        <ele>294</ele>
        <time>2021-08-27T15:15:27Z</time>
      </trkpt>
      <trkpt lat="43.38673" lon="6.09409">
        <ele>293</ele>
        <time>2021-08-27T15:15:32Z</time>
      </trkpt>
      <trkpt lat="43.38677" lon="6.09453">
        <ele>293</ele>
        <time>2021-08-27T15:15:38Z</time>
      </trkpt>
      <trkpt lat="43.38668" lon="6.09514">
        <ele>290</ele>
        <time>2021-08-27T15:15:46Z</time>
      </trkpt>
      <trkpt lat="43.3865" lon="6.09522">
        <ele>288</ele>
        <time>2021-08-27T15:15:49Z</time>
      </trkpt>
      <trkpt lat="43.3865" lon="6.09545">
        <ele>288</ele>
        <time>2021-08-27T15:15:52Z</time>
      </trkpt>
      <trkpt lat="43.38655" lon="6.09584">
        <ele>289</ele>
        <time>2021-08-27T15:15:58Z</time>
      </trkpt>
      <trkpt lat="43.38636" lon="6.09585">
        <ele>286</ele>
        <time>2021-08-27T15:16:01Z</time>
      </trkpt>
      <trkpt lat="43.38617" lon="6.0958">
        <ele>283</ele>
        <time>2021-08-27T15:16:04Z</time>
      </trkpt>
      <trkpt lat="43.38614" lon="6.096">
        <ele>283</ele>
        <time>2021-08-27T15:16:07Z</time>
      </trkpt>
      <trkpt lat="43.38594" lon="6.09684">
        <ele>281</ele>
        <time>2021-08-27T15:16:18Z</time>
      </trkpt>
      <trkpt lat="43.38584" lon="6.09681">
        <ele>280</ele>
        <time>2021-08-27T15:16:20Z</time>
      </trkpt>
      <trkpt lat="43.38572" lon="6.0968">
        <ele>279</ele>
        <time>2021-08-27T15:16:22Z</time>
      </trkpt>
      <trkpt lat="43.38325" lon="6.09715">
        <ele>270</ele>
        <time>2021-08-27T15:17:07Z</time>
      </trkpt>
      <trkpt lat="43.38314" lon="6.09718">
        <ele>270</ele>
        <time>2021-08-27T15:17:09Z</time>
      </trkpt>
      <trkpt lat="43.38245" lon="6.09749">
        <ele>269</ele>
        <time>2021-08-27T15:17:21Z</time>
      </trkpt>
      <trkpt lat="43.38236" lon="6.09754">
        <ele>268</ele>
        <time>2021-08-27T15:17:23Z</time>
      </trkpt>
      <trkpt lat="43.38172" lon="6.09783">
        <ele>266</ele>
        <time>2021-08-27T15:17:35Z</time>
      </trkpt>
      <trkpt lat="43.38134" lon="6.09794">
        <ele>267</ele>
        <time>2021-08-27T15:17:42Z</time>
      </trkpt>
      <trkpt lat="43.38095" lon="6.09803">
        <ele>268</ele>
        <time>2021-08-27T15:17:49Z</time>
      </trkpt>
      <trkpt lat="43.3807" lon="6.09805">
        <ele>269</ele>
        <time>2021-08-27T15:17:54Z</time>
      </trkpt>
      <trkpt lat="43.38058" lon="6.09804">
        <ele>269</ele>
        <time>2021-08-27T15:17:56Z</time>
      </trkpt>
      <trkpt lat="43.38022" lon="6.09794">
        <ele>270</ele>
        <time>2021-08-27T15:18:02Z</time>
      </trkpt>
      <trkpt lat="43.37863" lon="6.09736">
        <ele>267</ele>
        <time>2021-08-27T15:18:32Z</time>
      </trkpt>
      <trkpt lat="43.3785" lon="6.09732">
        <ele>267</ele>
        <time>2021-08-27T15:18:34Z</time>
      </trkpt>
      <trkpt lat="43.37814" lon="6.0973">
        <ele>270</ele>
        <time>2021-08-27T15:18:40Z</time>
      </trkpt>
      <trkpt lat="43.37804" lon="6.09725">
        <ele>272</ele>
        <time>2021-08-27T15:18:42Z</time>
      </trkpt>
      <trkpt lat="43.37798" lon="6.09716">
        <ele>273</ele>
        <time>2021-08-27T15:18:44Z</time>
      </trkpt>
      <trkpt lat="43.37794" lon="6.09704">
        <ele>273</ele>
        <time>2021-08-27T15:18:45Z</time>
      </trkpt>
      <trkpt lat="43.37793" lon="6.0969">
        <ele>273</ele>
        <time>2021-08-27T15:18:47Z</time>
      </trkpt>
      <trkpt lat="43.37794" lon="6.09597">
        <ele>276</ele>
        <time>2021-08-27T15:18:59Z</time>
      </trkpt>
      <trkpt lat="43.37793" lon="6.09584">
        <ele>276</ele>
        <time>2021-08-27T15:19:01Z</time>
      </trkpt>
      <trkpt lat="43.37789" lon="6.09572">
        <ele>276</ele>
        <time>2021-08-27T15:19:03Z</time>
      </trkpt>
      <trkpt lat="43.37784" lon="6.09563">
        <ele>277</ele>
        <time>2021-08-27T15:19:04Z</time>
      </trkpt>
      <trkpt lat="43.37776" lon="6.09556">
        <ele>277</ele>
        <time>2021-08-27T15:19:06Z</time>
      </trkpt>
      <trkpt lat="43.37767" lon="6.09552">
        <ele>278</ele>
        <time>2021-08-27T15:19:08Z</time>
      </trkpt>
      <trkpt lat="43.37701" lon="6.09539">
        <ele>282</ele>
        <time>2021-08-27T15:19:19Z</time>
      </trkpt>
      <trkpt lat="43.37681" lon="6.09542">
        <ele>283</ele>
        <time>2021-08-27T15:19:23Z</time>
      </trkpt>
      <trkpt lat="43.37633" lon="6.09598">
        <ele>289</ele>
        <time>2021-08-27T15:19:34Z</time>
      </trkpt>
      <trkpt lat="43.37609" lon="6.09618">
        <ele>292</ele>
        <time>2021-08-27T15:19:39Z</time>
      </trkpt>
      <trkpt lat="43.37582" lon="6.09633">
        <ele>294</ele>
        <time>2021-08-27T15:19:44Z</time>
      </trkpt>
      <trkpt lat="43.37526" lon="6.09652">
        <ele>296</ele>
        <time>2021-08-27T15:19:55Z</time>
      </trkpt>
      <trkpt lat="43.37513" lon="6.09658">
        <ele>296</ele>
        <time>2021-08-27T15:19:57Z</time>
      </trkpt>
      <trkpt lat="43.37502" lon="6.09667">
        <ele>296</ele>
        <time>2021-08-27T15:19:59Z</time>
      </trkpt>
      <trkpt lat="43.37492" lon="6.09679">
        <ele>297</ele>
        <time>2021-08-27T15:20:02Z</time>
      </trkpt>
      <trkpt lat="43.37485" lon="6.09695">
        <ele>298</ele>
        <time>2021-08-27T15:20:04Z</time>
      </trkpt>
      <trkpt lat="43.37471" lon="6.09747">
        <ele>300</ele>
        <time>2021-08-27T15:20:11Z</time>
      </trkpt>
      <trkpt lat="43.37463" lon="6.09762">
        <ele>301</ele>
        <time>2021-08-27T15:20:14Z</time>
      </trkpt>
      <trkpt lat="43.37452" lon="6.09773">
        <ele>301</ele>
        <time>2021-08-27T15:20:16Z</time>
      </trkpt>
      <trkpt lat="43.3744" lon="6.0978">
        <ele>301</ele>
        <time>2021-08-27T15:20:18Z</time>
      </trkpt>
      <trkpt lat="43.37413" lon="6.09789">
        <ele>301</ele>
        <time>2021-08-27T15:20:23Z</time>
      </trkpt>
      <trkpt lat="43.37387" lon="6.09803">
        <ele>302</ele>
        <time>2021-08-27T15:20:28Z</time>
      </trkpt>
      <trkpt lat="43.37375" lon="6.09814">
        <ele>303</ele>
        <time>2021-08-27T15:20:31Z</time>
      </trkpt>
      <trkpt lat="43.37365" lon="6.09828">
        <ele>303</ele>
        <time>2021-08-27T15:20:33Z</time>
      </trkpt>
      <trkpt lat="43.37357" lon="6.09846">
        <ele>304</ele>
        <time>2021-08-27T15:20:36Z</time>
      </trkpt>
      <trkpt lat="43.37351" lon="6.09865">
        <ele>305</ele>
        <time>2021-08-27T15:20:39Z</time>
      </trkpt>
      <trkpt lat="43.37348" lon="6.09884">
        <ele>305</ele>
        <time>2021-08-27T15:20:41Z</time>
      </trkpt>
      <trkpt lat="43.37345" lon="6.09966">
        <ele>307</ele>
        <time>2021-08-27T15:20:52Z</time>
      </trkpt>
      <trkpt lat="43.37342" lon="6.09985">
        <ele>307</ele>
        <time>2021-08-27T15:20:55Z</time>
      </trkpt>
      <trkpt lat="43.37334" lon="6.09999">
        <ele>307</ele>
        <time>2021-08-27T15:20:57Z</time>
      </trkpt>
      <trkpt lat="43.37324" lon="6.1001">
        <ele>308</ele>
        <time>2021-08-27T15:20:59Z</time>
      </trkpt>
      <trkpt lat="43.37313" lon="6.10016">
        <ele>308</ele>
        <time>2021-08-27T15:21:01Z</time>
      </trkpt>
      <trkpt lat="43.373" lon="6.10017">
        <ele>309</ele>
        <time>2021-08-27T15:21:04Z</time>
      </trkpt>
      <trkpt lat="43.37264" lon="6.10003">
        <ele>310</ele>
        <time>2021-08-27T15:21:10Z</time>
      </trkpt>
      <trkpt lat="43.37251" lon="6.10002">
        <ele>311</ele>
        <time>2021-08-27T15:21:13Z</time>
      </trkpt>
      <trkpt lat="43.37223" lon="6.10004">
        <ele>312</ele>
        <time>2021-08-27T15:21:17Z</time>
      </trkpt>
      <trkpt lat="43.37167" lon="6.10015">
        <ele>312</ele>
        <time>2021-08-27T15:21:28Z</time>
      </trkpt>
      <trkpt lat="43.37154" lon="6.10013">
        <ele>312</ele>
        <time>2021-08-27T15:21:30Z</time>
      </trkpt>
      <trkpt lat="43.37141" lon="6.10009">
        <ele>311</ele>
        <time>2021-08-27T15:21:32Z</time>
      </trkpt>
      <trkpt lat="43.37128" lon="6.10002">
        <ele>310</ele>
        <time>2021-08-27T15:21:35Z</time>
      </trkpt>
      <trkpt lat="43.37116" lon="6.09992">
        <ele>309</ele>
        <time>2021-08-27T15:21:37Z</time>
      </trkpt>
      <trkpt lat="43.37106" lon="6.0998">
        <ele>308</ele>
        <time>2021-08-27T15:21:40Z</time>
      </trkpt>
      <trkpt lat="43.3708" lon="6.09935">
        <ele>307</ele>
        <time>2021-08-27T15:21:47Z</time>
      </trkpt>
      <trkpt lat="43.3707" lon="6.09922">
        <ele>307</ele>
        <time>2021-08-27T15:21:49Z</time>
      </trkpt>
      <trkpt lat="43.37059" lon="6.09911">
        <ele>306</ele>
        <time>2021-08-27T15:21:52Z</time>
      </trkpt>
      <trkpt lat="43.37046" lon="6.09904">
        <ele>306</ele>
        <time>2021-08-27T15:21:54Z</time>
      </trkpt>
      <trkpt lat="43.36851" lon="6.09835">
        <ele>304</ele>
        <time>2021-08-27T15:22:30Z</time>
      </trkpt>
      <trkpt lat="43.36819" lon="6.0982">
        <ele>305</ele>
        <time>2021-08-27T15:22:36Z</time>
      </trkpt>
      <trkpt lat="43.36803" lon="6.0981">
        <ele>306</ele>
        <time>2021-08-27T15:22:39Z</time>
      </trkpt>
      <trkpt lat="43.36719" lon="6.09741">
        <ele>308</ele>
        <time>2021-08-27T15:22:57Z</time>
      </trkpt>
      <trkpt lat="43.3666" lon="6.097">
        <ele>309</ele>
        <time>2021-08-27T15:23:09Z</time>
      </trkpt>
      <trkpt lat="43.36609" lon="6.09671">
        <ele>309</ele>
        <time>2021-08-27T15:23:18Z</time>
      </trkpt>
      <trkpt lat="43.36594" lon="6.0966">
        <ele>309</ele>
        <time>2021-08-27T15:23:21Z</time>
      </trkpt>
      <trkpt lat="43.36567" lon="6.09633">
        <ele>310</ele>
        <time>2021-08-27T15:23:27Z</time>
      </trkpt>
      <trkpt lat="43.36501" lon="6.09542">
        <ele>310</ele>
        <time>2021-08-27T15:23:44Z</time>
      </trkpt>
      <trkpt lat="43.36481" lon="6.09506">
        <ele>309</ele>
        <time>2021-08-27T15:23:50Z</time>
      </trkpt>
      <trkpt lat="43.36469" lon="6.09489">
        <ele>309</ele>
        <time>2021-08-27T15:23:53Z</time>
      </trkpt>
      <trkpt lat="43.36462" lon="6.09484">
        <ele>309</ele>
        <time>2021-08-27T15:23:54Z</time>
      </trkpt>
      <trkpt lat="43.36421" lon="6.09462">
        <ele>309</ele>
        <time>2021-08-27T15:24:02Z</time>
      </trkpt>
      <trkpt lat="43.36387" lon="6.09449">
        <ele>307</ele>
        <time>2021-08-27T15:24:08Z</time>
      </trkpt>
      <trkpt lat="43.36337" lon="6.09436">
        <ele>306</ele>
        <time>2021-08-27T15:24:17Z</time>
      </trkpt>
      <trkpt lat="43.36327" lon="6.09422">
        <ele>305</ele>
        <time>2021-08-27T15:24:20Z</time>
      </trkpt>
      <trkpt lat="43.36324" lon="6.09393">
        <ele>305</ele>
        <time>2021-08-27T15:24:24Z</time>
      </trkpt>
      <trkpt lat="43.36321" lon="6.09388">
        <ele>305</ele>
        <time>2021-08-27T15:24:25Z</time>
      </trkpt>
      <trkpt lat="43.36321" lon="6.09383">
        <ele>305</ele>
        <time>2021-08-27T15:24:25Z</time>
      </trkpt>
      <trkpt lat="43.3628" lon="6.09387">
        <ele>305</ele>
        <time>2021-08-27T15:24:33Z</time>
      </trkpt>
      <trkpt lat="43.36238" lon="6.09386">
        <ele>306</ele>
        <time>2021-08-27T15:24:40Z</time>
      </trkpt>
      <trkpt lat="43.36169" lon="6.09376">
        <ele>305</ele>
        <time>2021-08-27T15:24:52Z</time>
      </trkpt>
      <trkpt lat="43.36142" lon="6.0937">
        <ele>305</ele>
        <time>2021-08-27T15:24:57Z</time>
      </trkpt>
      <trkpt lat="43.36056" lon="6.09339">
        <ele>306</ele>
        <time>2021-08-27T15:25:13Z</time>
      </trkpt>
      <trkpt lat="43.3595" lon="6.09294">
        <ele>308</ele>
        <time>2021-08-27T15:25:33Z</time>
      </trkpt>
      <trkpt lat="43.35785" lon="6.09218">
        <ele>309</ele>
        <time>2021-08-27T15:26:04Z</time>
      </trkpt>
      <trkpt lat="43.35682" lon="6.09163">
        <ele>309</ele>
        <time>2021-08-27T15:26:23Z</time>
      </trkpt>
      <trkpt lat="43.3562" lon="6.09127">
        <ele>309</ele>
        <time>2021-08-27T15:26:35Z</time>
      </trkpt>
      <trkpt lat="43.35457" lon="6.09024">
        <ele>309</ele>
        <time>2021-08-27T15:27:07Z</time>
      </trkpt>
      <trkpt lat="43.35378" lon="6.08971">
        <ele>310</ele>
        <time>2021-08-27T15:27:23Z</time>
      </trkpt>
      <trkpt lat="43.3533" lon="6.08935">
        <ele>311</ele>
        <time>2021-08-27T15:27:33Z</time>
      </trkpt>
      <trkpt lat="43.35284" lon="6.08895">
        <ele>313</ele>
        <time>2021-08-27T15:27:42Z</time>
      </trkpt>
      <trkpt lat="43.3525" lon="6.08862">
        <ele>314</ele>
        <time>2021-08-27T15:27:50Z</time>
      </trkpt>
      <trkpt lat="43.3522" lon="6.08828">
        <ele>314</ele>
        <time>2021-08-27T15:27:57Z</time>
      </trkpt>
      <trkpt lat="43.35164" lon="6.08756">
        <ele>312</ele>
        <time>2021-08-27T15:28:10Z</time>
      </trkpt>
      <trkpt lat="43.35031" lon="6.08554">
        <ele>313</ele>
        <time>2021-08-27T15:28:46Z</time>
      </trkpt>
      <trkpt lat="43.35017" lon="6.08541">
        <ele>314</ele>
        <time>2021-08-27T15:28:49Z</time>
      </trkpt>
      <trkpt lat="43.34987" lon="6.08528">
        <ele>314</ele>
        <time>2021-08-27T15:28:54Z</time>
      </trkpt>
      <trkpt lat="43.34921" lon="6.08508">
        <ele>312</ele>
        <time>2021-08-27T15:29:06Z</time>
      </trkpt>
      <trkpt lat="43.34852" lon="6.08489">
        <ele>311</ele>
        <time>2021-08-27T15:29:19Z</time>
      </trkpt>
      <trkpt lat="43.34725" lon="6.08459">
        <ele>315</ele>
        <time>2021-08-27T15:29:42Z</time>
      </trkpt>
      <trkpt lat="43.34548" lon="6.08458">
        <ele>306</ele>
        <time>2021-08-27T15:30:13Z</time>
      </trkpt>
      <trkpt lat="43.34451" lon="6.08455">
        <ele>301</ele>
        <time>2021-08-27T15:30:30Z</time>
      </trkpt>
      <trkpt lat="43.34439" lon="6.08451">
        <ele>301</ele>
        <time>2021-08-27T15:30:33Z</time>
      </trkpt>
      <trkpt lat="43.34403" lon="6.08429">
        <ele>301</ele>
        <time>2021-08-27T15:30:40Z</time>
      </trkpt>
      <trkpt lat="43.34251" lon="6.08298">
        <ele>297</ele>
        <time>2021-08-27T15:31:12Z</time>
      </trkpt>
      <trkpt lat="43.34241" lon="6.08294">
        <ele>297</ele>
        <time>2021-08-27T15:31:13Z</time>
      </trkpt>
      <trkpt lat="43.3423" lon="6.08294">
        <ele>297</ele>
        <time>2021-08-27T15:31:15Z</time>
      </trkpt>
      <trkpt lat="43.34157" lon="6.08326">
        <ele>295</ele>
        <time>2021-08-27T15:31:29Z</time>
      </trkpt>
      <trkpt lat="43.34141" lon="6.08333">
        <ele>296</ele>
        <time>2021-08-27T15:31:32Z</time>
      </trkpt>
      <trkpt lat="43.33949" lon="6.08428">
        <ele>301</ele>
        <time>2021-08-27T15:32:08Z</time>
      </trkpt>
      <trkpt lat="43.3394" lon="6.0842">
        <ele>302</ele>
        <time>2021-08-27T15:32:10Z</time>
      </trkpt>
      <trkpt lat="43.33928" lon="6.08407">
        <ele>302</ele>
        <time>2021-08-27T15:32:13Z</time>
      </trkpt>
      <trkpt lat="43.33876" lon="6.08325">
        <ele>298</ele>
        <time>2021-08-27T15:32:27Z</time>
      </trkpt>
      <trkpt lat="43.33715" lon="6.08127">
        <ele>300</ele>
        <time>2021-08-27T15:33:05Z</time>
      </trkpt>
      <trkpt lat="43.33709" lon="6.08095">
        <ele>299</ele>
        <time>2021-08-27T15:33:10Z</time>
      </trkpt>
      <trkpt lat="43.337" lon="6.08073">
        <ele>299</ele>
        <time>2021-08-27T15:33:13Z</time>
      </trkpt>
      <trkpt lat="43.3369" lon="6.08054">
        <ele>299</ele>
        <time>2021-08-27T15:33:16Z</time>
      </trkpt>
    </trkseg>
  </trk>
</gpx>